GFSGBSN_925_rhum_000.txt.gz
RH
96 97 93 87 87 91 91 89 88 89 87 86 90 90 88 89 88 84 90 94 92 92 91 92 91 91 91 87 70 46 67 63 44 92 88 59 50 54 60 54 48 50 46 41 39 38 32
95 97 96 90 84 89 90 88 89 90 90 90 92 92 94 89 92 91 92 91 93 96 90 90 88 84 90 94 54 48 61 64 73 89 84 57 49 45 52 52 51 42 37 35 32 31 31
97 96 96 94 88 89 90 92 92 87 91 88 88 85 72 84 93 92 91 88 88 94 92 90 90 94 89 69 55 44 53 72 83 84 71 56 46 44 50 50 40 36 43 40 34 32 31
92 96 96 91 90 89 90 93 91 92 90 76 90 76 80 94 92 94 92 90 86 85 89 90 89 97 82 63 57 61 60 59 80 83 65 57 50 51 48 38 35 34 36 45 35 34 32
83 94 96 91 92 90 92 92 90 90 94 88 86 93 94 87 80 84 94 93 92 91 89 88 88 85 82 60 74 44 61 65 64 84 72 62 53 53 46 51 47 46 51 47 41 32 29
80 81 94 97 99 91 92 90 84 70 91 93 92 93 99 97 91 88 81 84 85 86 83 86 88 85 74 79 64 60 45 60 80 80 80 82 85 70 49 48 72 53 50 45 41 26 36
82 81 85 90 92 81 92 90 88 90 91 77 85 89 92 98 99 92 91 88 98 93 98 80 84 74 65 60 60 61 63 66 80 89 92 85 92 91 78 46 44 42 39 40 36 30 32
86 81 82 81 89 89 83 92 88 92 92 73 82 86 90 99 97 96 84 97 79 70 91 73 70 72 73 57 64 67 70 81 88 90 78 98 91 75 59 51 41 41 42 43 36 29 26
86 92 83 81 82 84 62 71 88 93 93 88 79 85 92 96 97 100 99 91 87 66 79 78 75 62 64 61 75 81 81 81 79 76 82 81 70 65 50 45 46 45 46 41 41 36 32
82 89 82 79 69 77 58 57 64 70 82 76 83 89 96 95 94 98 100 97 87 88 87 90 82 67 75 74 93 88 92 78 70 73 70 70 51 58 56 45 40 48 37 36 35 39 45
78 83 89 76 69 65 60 54 49 57 64 77 83 88 99 98 99 94 99 90 89 96 97 85 83 84 88 78 88 92 98 80 71 70 72 67 51 54 46 42 38 39 34 33 33 40 40
80 77 85 86 77 64 62 55 49 52 58 68 90 88 98 100 96 91 96 100 94 100 98 95 94 97 87 91 85 89 93 70 60 58 52 46 36 41 40 34 34 36 33 44 47 48 57
89 79 78 85 86 72 66 54 49 48 56 62 83 96 85 98 95 97 100 98 100 100 90 97 93 82 80 88 85 87 92 88 80 75 73 58 29 23 29 32 26 35 46 60 59 63 62
85 89 76 84 87 86 67 58 52 51 53 56 76 98 92 88 88 98 100 100 100 95 90 78 78 79 89 75 80 81 88 81 59 48 59 68 47 30 23 32 36 39 44 64 64 70 55
82 93 87 79 91 87 80 65 57 60 54 54 70 74 84 65 89 100 99 99 96 86 77 80 73 93 96 80 68 72 75 55 49 48 45 49 48 32 29 24 31 35 47 40 50 50 55
91 96 95 77 92 88 86 71 62 66 56 57 84 76 73 79 88 98 99 94 92 76 68 70 89 86 91 71 66 61 73 55 66 50 47 47 53 39 32 28 26 34 34 46 55 54 53
94 93 97 93 89 85 87 85 68 70 56 61 74 76 88 85 86 99 96 93 92 64 72 89 75 83 69 68 58 62 69 61 57 56 50 50 52 54 38 42 46 39 38 34 46 52 55
90 92 96 98 93 85 88 90 77 72 58 62 85 63 92 80 82 87 91 89 86 89 86 83 51 55 67 70 61 74 75 67 58 51 57 55 64 71 54 40 37 38 40 38 47 45 53
87 92 93 99 99 87 90 91 82 73 72 68 81 69 88 77 81 85 66 76 86 90 79 70 77 65 57 65 72 68 70 60 59 55 58 54 68 79 60 52 48 50 42 39 47 52 56
87 93 93 95 98 96 96 90 87 73 65 78 79 60 63 71 73 70 67 67 74 73 70 61 61 60 66 66 63 70 69 62 54 54 61 48 54 58 62 54 55 58 55 46 44 58 48
86 92 96 95 99 98 100 88 88 71 56 82 72 62 63 55 59 56 52 56 62 61 57 59 56 53 58 66 62 70 64 56 50 49 48 44 48 45 42 39 38 45 50 56 56 49 45
86 90 96 96 98 98 100 88 89 63 58 66 67 63 67 66 53 56 61 52 56 57 55 60 65 54 53 61 59 64 61 55 53 47 50 47 51 36 34 34 36 35 34 36 42 48 52
89 87 93 96 98 99 100 92 89 67 61 73 73 67 54 65 57 54 58 53 51 55 48 50 54 48 50 44 41 43 49 50 49 49 50 46 41 38 34 47 44 46 45 43 36 35 32
88 89 92 96 98 99 98 100 90 81 63 75 75 79 59 60 59 58 51 48 49 46 52 49 49 48 46 39 33 35 41 51 52 57 50 50 53 55 53 52 61 41 42 40 39 40 37
88 90 95 95 94 99 99 99 98 88 60 58 70 72 67 68 63 57 51 55 49 53 57 53 52 51 52 38 52 55 61 51 58 68 63 51 56 67 69 72 58 48 44 44 43 55 50
89 92 92 92 94 96 98 98 99 90 76 68 69 78 78 65 56 48 52 47 57 57 53 49 42 50 46 55 65 69 75 62 66 66 62 58 60 60 90 81 70 48 43 40 39 57 55
90 92 91 93 93 92 94 99 98 99 87 83 73 77 82 80 71 55 54 57 58 63 68 52 44 42 47 67 78 84 78 58 71 72 71 69 70 72 82 82 73 54 49 41 57 52 63
90 91 91 92 92 92 93 96 100 100 93 90 84 76 82 91 85 72 63 59 65 65 74 65 67 62 66 72 78 80 79 70 64 66 75 75 88 84 84 82 81 49 48 54 59 59 56
90 91 92 91 93 95 96 94 99 99 97 93 89 72 79 92 89 84 74 68 58 63 72 70 72 68 67 82 83 83 79 78 76 75 58 69 72 80 74 73 57 55 55 52 54 55 52

GFSGBSN_925_rhum_003.txt.gz
RH
98 96 97 94 91 87 90 91 90 90 91 89 91 92 92 91 88 80 91 94 93 92 94 94 95 88 90 90 75 56 62 70 60 75 81 84 60 59 64 60 52 54 49 45 44 46 44
97 96 97 97 96 88 90 90 91 93 91 90 90 90 85 93 87 93 88 84 87 92 95 92 84 87 92 89 61 54 58 64 72 76 89 86 55 51 55 56 57 50 50 46 37 37 34
96 92 95 95 94 90 88 90 94 94 94 93 91 88 86 80 94 94 92 91 92 94 74 80 91 83 91 71 57 56 50 54 70 73 88 82 56 46 53 53 49 41 44 42 40 38 37
94 91 95 95 92 93 89 93 94 94 93 94 81 91 89 87 95 93 95 92 90 86 77 77 91 87 83 64 59 57 66 56 71 79 91 70 53 46 52 43 36 37 41 47 37 33 34
82 79 93 95 94 96 94 92 93 94 83 94 95 93 89 95 98 82 76 83 91 91 81 75 86 85 81 62 67 54 60 69 67 78 91 68 50 55 52 61 56 43 54 50 42 33 31
85 80 80 92 94 97 95 92 91 91 93 92 66 84 92 96 97 95 94 91 89 91 79 77 80 90 78 73 66 61 49 64 81 74 91 88 76 80 65 68 82 57 50 49 48 33 36
82 89 86 88 90 88 93 92 87 92 91 88 85 83 86 90 99 99 97 91 94 96 84 87 82 79 64 61 60 57 54 62 75 77 92 86 94 87 79 69 56 49 44 42 40 33 34
81 85 85 86 87 94 89 87 91 94 95 92 85 79 86 96 100 96 100 88 71 70 96 76 70 70 67 64 78 62 54 70 90 85 75 96 92 67 67 53 46 43 44 49 40 35 35
77 82 87 86 85 95 94 74 78 89 95 94 83 86 93 99 99 100 90 81 83 89 88 80 75 76 73 65 70 76 61 70 83 78 84 79 71 69 66 71 58 48 48 50 43 41 35
76 80 84 89 85 84 77 74 74 68 79 73 82 87 96 99 99 92 97 85 78 91 96 86 86 70 63 68 75 68 63 69 77 78 75 80 61 79 72 67 62 75 43 42 44 45 52
83 80 84 84 89 88 72 65 73 55 64 73 82 92 98 100 100 94 99 88 93 93 100 78 79 72 67 73 85 92 98 94 73 70 82 78 71 76 85 65 45 61 36 41 43 43 44
89 85 86 83 87 88 91 70 66 55 52 65 73 86 97 100 100 92 96 89 80 100 100 92 83 85 87 78 78 95 88 93 50 67 53 53 54 60 59 50 40 37 37 44 50 52 62
90 89 86 90 82 88 95 88 62 61 56 61 74 80 96 99 96 96 88 94 100 100 82 97 87 81 80 84 94 92 93 97 77 83 80 50 49 37 33 34 37 38 47 66 64 67 68
90 91 90 89 86 85 94 97 73 62 69 67 78 94 94 100 99 94 95 99 100 91 95 76 82 80 90 78 87 94 95 88 62 58 66 67 67 33 27 36 42 46 48 65 66 73 60
87 88 90 89 94 83 90 94 94 72 73 70 86 99 99 98 98 99 97 100 95 84 76 85 89 93 95 80 83 91 94 76 55 50 57 61 52 34 29 27 33 38 50 44 54 56 64
85 86 90 92 96 90 91 92 97 86 74 70 100 95 86 81 94 99 98 95 89 70 66 71 84 87 91 78 88 91 86 69 53 43 39 44 52 42 33 29 28 36 38 50 61 63 60
84 86 86 89 98 95 92 93 98 92 70 72 95 86 99 100 95 100 99 94 78 61 65 66 72 89 69 72 75 85 81 67 57 54 52 48 47 54 38 42 44 37 38 44 50 57 58
84 86 88 88 98 96 94 92 96 96 65 66 93 76 100 100 97 93 95 93 61 67 90 88 67 61 65 59 62 73 81 66 57 56 65 54 60 66 50 44 40 38 39 40 53 48 56
85 86 86 89 96 94 97 95 96 97 76 76 87 91 96 97 90 88 96 94 87 90 86 76 59 53 59 59 72 74 74 61 59 56 60 58 70 81 63 56 51 50 44 40 49 53 59
86 89 88 92 94 92 99 99 94 95 81 76 90 70 96 97 82 73 80 94 95 88 70 65 66 62 61 65 63 76 73 61 54 55 61 51 62 60 59 60 61 59 53 47 45 59 52
88 87 89 92 90 91 99 99 89 93 66 74 82 63 65 77 68 58 56 70 87 80 67 66 67 66 62 68 66 76 66 59 51 49 48 42 50 46 46 44 50 54 58 54 49 44 45
88 89 88 91 94 92 98 100 89 90 67 74 75 69 69 70 56 54 57 53 61 58 66 72 74 71 60 58 58 68 62 58 55 49 48 46 54 37 35 38 35 34 36 58 52 49 48
87 86 88 91 90 91 98 99 96 88 65 77 79 76 59 68 58 54 57 55 54 52 48 55 56 59 64 50 43 50 51 51 52 51 51 40 43 37 36 45 42 42 44 41 35 35 34
88 86 86 89 92 92 98 99 100 92 61 72 80 83 60 57 61 55 53 48 58 47 53 52 46 45 44 38 37 40 44 50 54 60 47 45 46 48 44 50 57 38 46 40 42 50 38
87 88 88 90 92 94 95 98 99 97 63 61 75 78 66 66 66 52 51 58 52 54 55 53 53 54 47 40 48 54 58 45 54 68 57 48 52 66 64 62 51 51 46 50 51 62 54
85 87 90 91 88 94 91 94 98 99 77 65 72 80 73 65 57 51 52 49 57 59 52 49 42 50 46 61 64 61 65 55 69 67 55 54 56 57 88 78 65 47 43 41 40 75 62
86 89 90 91 88 89 90 96 96 99 85 81 73 81 81 73 73 55 52 54 58 65 66 50 43 42 50 74 81 87 78 62 78 76 67 61 65 68 77 76 68 51 46 43 58 52 63
84 90 90 92 88 90 90 91 94 99 94 89 80 80 83 88 85 78 66 60 66 66 70 61 63 61 68 74 79 81 77 68 69 70 67 66 78 77 84 79 71 53 51 60 63 64 60
88 89 91 90 92 91 91 92 96 100 95 89 84 75 83 89 86 86 80 71 62 60 71 69 71 66 69 85 84 85 81 79 75 75 67 73 68 72 70 70 62 56 57 58 58 60 56

GFSGBSN_925_rhum_006.txt.gz
RH
88 95 96 95 97 95 88 90 92 91 91 90 88 91 92 94 94 92 91 91 94 96 95 78 79 81 92 89 74 59 60 63 70 74 75 85 72 65 70 64 56 58 52 47 46 48 50
81 93 94 94 96 97 93 89 91 93 94 92 92 92 92 92 96 96 96 91 81 86 79 80 90 84 90 96 58 49 52 56 68 74 76 83 73 56 60 59 59 55 53 52 48 44 39
80 82 90 95 96 98 96 89 93 92 93 94 93 93 93 93 92 94 95 91 91 96 91 78 75 86 89 76 57 61 62 52 50 74 72 84 83 50 54 57 53 47 52 49 42 41 42
81 78 81 80 94 96 94 94 94 94 94 94 94 87 85 89 87 91 94 94 91 91 79 79 78 88 89 62 53 64 59 64 49 71 76 79 66 54 53 45 40 48 43 56 42 34 34
76 78 87 81 84 95 97 96 94 94 92 92 92 81 94 92 92 94 94 79 89 83 93 78 84 81 80 58 65 63 53 67 70 74 81 79 74 64 56 59 52 45 55 54 47 34 36
72 77 89 92 90 93 94 93 96 93 91 92 94 92 89 89 94 93 98 86 80 85 79 82 82 88 77 75 65 61 48 56 73 80 78 92 81 79 79 77 87 64 53 50 52 36 37
76 76 78 90 79 89 79 95 95 93 94 93 84 84 80 90 88 96 99 100 92 92 83 88 80 77 68 59 64 64 59 58 71 84 94 86 92 95 82 69 60 59 50 59 43 35 36
74 77 74 81 86 86 84 94 92 92 95 96 80 90 90 94 97 99 99 89 70 67 89 76 76 72 63 68 81 68 53 76 87 78 79 96 92 69 72 69 62 47 49 51 49 38 37
73 76 74 80 86 89 85 93 88 91 94 94 79 82 91 98 98 100 97 73 70 69 87 85 74 77 71 67 79 78 58 69 85 64 82 81 78 62 68 66 63 53 57 57 58 46 41
78 75 80 79 85 88 89 85 83 91 86 85 63 79 92 99 100 98 97 91 81 70 100 94 82 77 74 78 83 62 52 63 76 64 73 86 76 73 69 81 69 87 52 46 46 50 59
87 84 84 88 86 84 90 92 90 82 86 78 72 76 90 100 92 98 92 87 84 98 96 77 79 59 74 79 74 80 51 61 86 73 75 85 91 89 79 70 69 72 47 49 45 51 48
87 88 86 91 90 91 86 92 93 90 78 70 72 67 85 96 99 98 100 94 96 100 95 92 84 82 84 74 75 75 73 78 63 66 64 65 61 74 78 66 58 51 49 45 52 53 67
86 87 87 89 90 92 89 92 88 98 77 74 74 83 89 90 96 98 99 94 99 99 85 95 84 78 76 85 81 80 83 92 81 91 85 58 81 54 58 55 44 51 50 77 65 71 72
87 89 85 84 89 91 93 91 90 98 94 81 83 94 95 91 99 84 93 95 100 98 85 72 81 74 82 74 80 75 87 96 83 58 71 82 93 53 38 60 68 61 57 70 71 75 64
88 91 84 85 89 91 96 90 90 98 99 91 93 99 100 98 100 92 92 100 99 77 78 83 76 80 86 75 91 86 87 89 74 54 67 85 73 36 32 34 54 51 56 46 61 60 70
89 90 84 84 83 90 98 97 90 99 99 95 97 99 96 95 100 94 96 99 95 69 73 68 79 77 96 83 93 90 94 73 70 54 44 53 54 42 33 29 30 44 43 54 62 65 68
89 88 85 82 86 89 99 98 90 99 99 83 97 92 98 100 100 97 99 95 85 64 66 67 80 83 74 83 90 91 88 75 58 53 43 45 50 53 39 44 42 40 45 51 55 62 62
91 86 85 85 88 89 100 97 94 99 96 83 93 88 100 100 99 93 94 94 65 73 83 78 66 64 69 75 76 87 87 68 56 62 62 49 60 60 49 46 40 36 41 45 61 56 62
88 89 86 86 87 87 95 95 99 99 96 77 88 98 100 100 100 99 94 84 73 80 85 83 67 60 54 66 82 80 87 64 65 60 62 58 66 83 66 55 54 47 44 42 52 55 63
86 88 88 88 86 88 90 94 99 100 98 90 88 89 100 99 96 89 93 87 92 93 91 70 64 61 60 68 70 85 86 63 58 57 67 53 63 60 70 53 60 63 54 48 46 61 59
88 88 86 88 92 91 86 93 99 100 96 96 90 66 71 92 90 78 75 87 94 92 78 63 66 58 64 74 75 82 69 65 53 63 52 49 56 50 47 55 56 56 56 55 51 47 51
90 87 84 88 91 92 88 92 100 100 86 92 81 74 71 72 59 61 62 72 70 64 68 69 77 68 59 64 62 79 68 64 62 52 49 49 55 41 39 40 36 44 50 58 51 51 42
90 87 83 89 92 88 87 94 99 100 86 86 81 79 57 66 59 56 60 57 60 55 60 62 64 66 60 56 48 56 55 56 56 51 51 44 46 47 49 44 40 38 42 66 55 49 52
91 88 84 89 89 84 89 94 97 99 88 77 79 80 65 57 58 55 52 53 60 50 60 54 47 56 45 38 42 44 50 55 55 57 44 42 44 46 49 49 46 34 47 40 46 48 42
99 89 84 88 89 88 87 94 94 99 96 72 77 79 67 65 66 53 55 61 55 56 58 54 52 58 51 44 58 76 58 49 57 61 56 46 52 66 59 58 46 52 53 58 51 62 55
99 94 83 88 89 89 88 94 93 99 98 75 76 83 72 68 62 50 55 50 60 58 54 50 44 52 48 62 55 85 87 68 52 58 50 55 58 52 88 75 61 46 47 44 46 68 62
100 96 85 87 87 88 85 92 98 98 99 91 77 87 76 77 77 57 54 56 59 62 66 50 44 43 53 75 78 80 73 60 60 60 57 63 69 63 74 73 66 48 48 42 58 58 68
100 97 86 87 86 89 86 90 98 96 100 96 86 87 84 88 87 82 69 62 64 63 56 55 59 56 69 72 77 84 78 71 70 67 62 58 73 78 84 76 69 53 53 56 61 64 61
100 95 92 88 86 92 88 86 89 94 100 96 85 84 84 88 90 88 80 72 64 62 68 72 66 66 66 86 83 85 83 80 74 74 70 64 61 66 69 69 62 58 55 64 60 62 60

GFSGBSN_925_rhum_009.txt.gz
RH
80 79 81 95 94 97 97 91 90 93 93 92 91 90 91 91 94 94 94 93 94 95 96 96 91 82 92 93 76 66 62 58 69 78 78 80 86 70 75 65 58 56 51 48 44 46 50
81 80 76 87 93 94 94 95 89 92 94 94 93 93 94 90 89 95 95 92 93 95 96 87 85 85 88 95 59 53 54 53 54 74 79 76 77 58 66 62 59 56 52 47 50 47 45
75 81 75 76 83 93 94 96 90 92 94 96 93 96 95 85 95 93 92 95 93 94 95 96 74 87 87 77 57 60 57 58 51 63 78 77 82 54 57 63 56 55 58 53 49 44 43
72 78 84 79 83 91 91 93 94 90 95 96 95 95 87 85 92 96 96 95 95 94 93 93 79 90 84 65 59 60 55 61 58 47 65 74 76 72 55 46 50 59 52 70 51 37 35
78 77 81 84 84 95 95 95 98 94 93 94 94 93 85 80 90 90 93 96 90 92 89 89 87 89 84 59 70 54 53 62 68 64 71 73 75 82 60 58 56 53 76 64 57 42 42
76 76 75 79 81 89 92 86 92 93 95 93 91 89 91 74 88 90 96 99 83 88 88 85 85 90 81 75 66 61 56 49 72 86 82 80 92 93 76 74 90 64 63 53 52 39 40
74 75 77 77 81 86 83 91 94 94 96 94 85 85 82 79 86 92 98 100 93 94 86 81 78 76 68 63 65 66 63 62 62 87 87 80 94 96 79 70 61 54 52 51 53 37 38
75 76 78 75 78 85 84 90 95 92 96 96 83 81 86 83 92 97 100 92 68 60 87 77 74 69 66 68 81 71 59 64 82 92 72 81 93 70 68 70 59 56 55 55 50 40 39
78 77 78 77 78 82 87 88 93 81 90 90 84 80 81 80 97 100 99 86 66 72 85 82 70 77 76 68 75 79 61 63 84 74 75 78 77 61 69 79 74 63 64 60 60 50 44
75 74 78 83 83 85 87 90 94 84 84 86 79 78 77 89 97 100 99 95 82 78 100 95 87 74 74 75 83 63 59 61 78 73 63 84 72 71 77 76 70 82 52 52 52 60 68
78 75 78 87 87 84 88 89 93 96 81 86 80 77 78 88 98 97 93 96 91 88 98 82 81 61 73 69 72 82 59 61 80 63 65 90 96 76 83 74 67 75 61 60 53 55 50
75 80 81 84 89 86 92 90 91 96 91 86 83 73 80 86 99 92 100 100 93 100 96 96 81 92 88 80 74 75 68 65 74 58 57 89 76 71 66 66 64 49 58 62 54 50 63
76 79 81 85 88 86 90 93 90 96 92 97 88 82 88 81 93 92 100 94 100 99 84 96 91 86 72 90 89 77 79 82 95 91 73 90 87 84 84 64 54 52 72 98 96 74 67
76 80 84 86 85 88 88 94 92 93 94 97 98 94 92 89 81 97 91 98 99 90 90 73 82 80 82 77 89 80 76 93 90 76 65 97 99 69 80 73 71 75 72 80 76 71 60
79 80 84 83 82 86 89 92 99 91 95 100 98 93 96 88 94 99 94 99 90 89 84 82 79 85 97 75 87 83 83 75 83 74 60 83 82 54 50 50 60 78 85 49 62 62 67
76 82 87 84 83 86 90 91 100 93 98 100 93 94 95 87 100 90 99 100 90 89 80 68 73 74 88 79 99 71 88 72 83 68 57 68 61 46 34 40 35 56 48 77 61 67 70
71 80 89 82 80 86 90 91 100 94 100 95 100 100 96 100 94 92 100 98 87 85 69 61 74 77 65 82 95 90 88 78 72 64 51 49 53 56 39 44 48 53 74 57 54 61 62
80 78 87 85 81 87 90 92 98 96 100 86 95 96 99 97 97 94 97 86 82 79 67 72 70 73 77 80 88 86 87 75 67 60 54 46 57 62 48 48 40 42 50 49 59 60 61
100 81 87 87 82 89 89 92 98 97 100 82 91 98 100 96 98 97 87 92 87 83 79 82 71 61 66 82 94 81 76 66 62 59 61 53 65 76 62 55 58 47 42 44 51 53 61
98 93 86 89 83 90 89 93 96 97 100 84 93 99 100 98 97 99 95 88 90 85 85 80 62 58 65 76 73 93 86 67 68 56 60 50 63 67 70 59 61 64 52 49 44 56 56
99 95 89 91 82 89 89 93 96 97 100 91 96 89 85 97 97 97 96 88 91 90 90 78 73 60 61 83 84 88 87 68 59 71 54 48 57 52 48 52 53 56 56 51 49 43 46
95 99 89 92 82 85 89 93 94 98 100 98 95 84 79 71 66 97 96 97 88 91 88 77 70 58 61 72 75 87 74 66 65 55 56 53 58 44 43 48 50 58 58 49 46 50 48
97 100 99 94 84 83 85 91 91 100 100 98 84 84 69 64 61 74 81 88 90 85 85 65 62 59 64 57 53 61 56 58 55 56 55 59 50 52 55 44 40 48 49 61 51 54 42
98 99 100 98 87 87 82 89 91 100 100 80 80 84 72 62 63 58 56 64 85 68 86 54 53 55 46 46 50 46 48 48 47 51 43 57 55 54 53 46 56 42 47 52 51 46 46
98 100 99 100 85 87 83 87 92 99 100 99 80 87 72 61 62 55 59 62 62 60 70 56 58 62 52 48 72 75 70 48 56 58 52 48 49 62 61 56 46 54 55 55 52 55 53
98 99 99 100 83 82 86 86 92 98 100 100 78 83 75 67 64 52 58 53 62 61 57 60 52 61 61 73 67 94 97 77 59 56 48 53 50 53 86 64 49 40 48 46 47 56 63
99 100 99 100 88 83 84 86 93 98 100 100 85 87 81 71 76 57 58 58 57 60 65 55 55 56 62 72 70 82 76 60 62 60 58 61 64 58 71 65 59 48 49 45 57 48 67
98 98 99 100 90 83 86 86 94 98 100 100 93 87 85 86 90 84 70 64 65 57 56 53 53 52 80 80 81 80 74 71 69 60 57 57 68 68 79 71 55 53 50 54 59 66 62
99 98 98 100 90 83 86 89 91 99 100 100 94 88 91 87 89 90 82 77 69 60 66 73 61 61 62 81 86 87 82 80 74 71 69 60 54 63 63 63 66 61 57 65 60 63 60

GFSGBSN_925_rhum_012.txt.gz
RH
78 78 77 74 79 95 94 97 92 92 94 93 93 92 90 91 76 82 84 90 92 95 91 94 91 90 92 84 60 65 60 59 61 72 69 54 74 68 73 54 44 48 36 35 33 34 34
74 77 76 72 73 84 92 93 93 90 93 94 94 94 90 92 90 66 67 80 94 92 88 86 92 88 78 83 55 55 58 57 53 63 71 55 63 48 52 50 51 40 41 39 34 36 35
73 80 76 77 74 75 84 92 93 88 91 92 96 94 94 85 81 88 71 85 94 94 88 90 93 88 76 64 56 56 59 51 51 52 62 58 57 70 47 56 44 42 50 43 40 38 38
74 72 77 79 78 83 80 85 90 86 92 93 95 96 95 85 83 80 86 94 92 90 85 89 90 88 77 64 61 62 58 57 57 48 58 56 61 84 79 44 50 54 53 56 36 37 37
78 80 75 77 80 82 85 86 85 96 98 91 94 92 92 83 75 75 79 93 92 88 83 92 88 76 70 65 64 60 56 52 59 54 48 57 66 85 74 70 63 57 62 57 42 36 36
78 80 73 73 78 80 80 83 90 80 96 91 93 88 87 90 80 76 79 92 100 88 89 85 82 80 62 61 57 56 57 53 47 59 59 71 78 96 93 80 81 60 58 45 48 35 34
72 70 75 76 77 74 76 82 88 80 92 91 84 83 84 83 83 81 88 98 97 96 84 64 61 53 56 56 64 59 60 56 53 65 87 67 91 92 82 70 44 36 41 47 39 33 36
75 70 72 75 79 78 80 84 84 80 86 86 82 84 83 82 88 84 98 96 76 69 95 68 64 56 62 60 68 55 59 56 65 73 80 67 95 72 74 58 45 45 48 48 34 35 36
76 72 72 76 79 80 83 84 86 87 82 86 87 84 83 82 82 95 100 98 88 77 91 80 68 69 63 58 65 62 57 51 59 58 84 77 70 55 88 71 54 51 49 40 42 43 42
78 75 76 75 80 84 85 82 87 90 89 75 83 80 79 80 98 96 99 100 92 80 100 90 88 68 66 63 76 48 52 47 59 60 86 60 52 70 90 69 53 66 43 46 52 61 57
74 75 76 76 81 86 87 84 86 89 91 94 83 81 81 79 98 94 97 99 89 84 95 70 80 54 55 61 54 62 53 48 60 76 92 76 54 82 80 78 48 50 47 49 54 60 58
74 71 70 72 78 85 86 86 87 88 93 95 88 81 76 93 99 94 100 99 84 98 90 92 79 86 82 68 50 66 66 47 60 68 80 48 66 64 67 60 52 50 51 53 49 54 62
81 72 72 69 75 82 86 86 87 92 93 96 99 86 87 91 75 98 100 96 100 97 78 99 98 93 71 73 64 83 74 77 97 99 100 71 92 78 59 81 63 51 65 98 91 89 60
100 77 75 73 79 85 87 85 89 93 95 96 100 99 91 91 92 97 96 97 99 84 96 85 86 80 78 68 69 90 65 68 82 89 66 99 99 96 63 66 81 69 53 53 62 58 46
100 91 73 78 80 86 85 88 91 95 96 94 100 99 99 96 98 98 94 100 86 91 86 94 75 84 74 65 86 80 58 56 89 78 68 99 99 81 63 59 56 84 87 40 45 46 45
87 100 82 75 80 85 83 87 90 96 96 98 97 89 83 81 95 98 98 98 88 82 88 78 63 58 69 66 98 62 55 44 66 64 56 67 97 68 63 68 58 67 50 68 51 58 54
93 100 94 81 77 86 84 87 90 98 97 100 91 97 88 93 98 95 100 99 87 70 80 64 48 57 49 59 85 58 56 57 52 53 58 52 54 72 53 81 77 66 78 69 46 44 43
88 96 97 87 81 88 86 89 91 99 100 94 85 99 100 99 97 96 99 92 81 84 79 56 47 43 44 52 87 87 56 68 42 49 65 48 38 77 62 45 43 47 53 53 59 55 43
93 94 100 88 87 89 87 87 91 100 99 76 72 96 100 82 99 97 90 89 84 92 81 56 58 44 42 57 82 78 62 47 48 54 52 40 43 59 80 58 43 58 48 48 39 38 43
94 87 98 98 88 91 90 88 92 99 100 88 73 99 99 99 92 92 95 93 92 73 62 63 54 54 54 56 53 60 67 60 58 54 57 43 44 39 49 45 41 52 48 47 48 52 42
99 96 94 100 92 93 92 91 92 98 100 87 77 81 77 97 96 94 93 89 87 84 77 79 66 55 50 62 69 74 69 69 62 61 54 46 46 43 43 42 39 41 46 42 46 44 44
100 97 99 96 100 95 91 91 93 98 100 95 68 76 68 71 76 92 94 92 89 89 88 87 88 54 49 56 56 70 72 60 65 56 53 46 52 40 42 48 42 42 39 41 43 41 37
96 93 97 98 98 99 92 93 93 97 100 95 86 79 67 54 61 93 95 89 89 90 92 84 65 56 58 53 45 49 48 46 47 50 50 47 46 45 48 41 43 52 42 40 36 33 32
95 99 96 98 99 100 90 93 90 95 100 85 79 72 70 57 60 73 74 88 94 89 93 58 52 55 48 46 43 44 47 52 49 43 40 51 50 49 47 46 67 36 39 32 35 31 30
96 98 100 99 99 100 91 91 88 92 100 100 86 78 72 62 52 53 64 83 86 78 82 56 59 55 38 43 52 61 64 77 59 51 43 58 72 75 58 49 37 35 44 40 44 40 35
95 99 96 98 97 100 89 88 85 90 100 100 98 77 69 61 50 52 57 75 89 83 76 59 58 55 72 59 67 94 97 87 74 78 48 51 71 81 64 58 52 35 42 35 35 36 37
96 96 98 97 97 100 95 85 84 89 100 100 90 79 73 65 60 54 50 60 74 88 80 62 63 62 84 76 78 90 81 55 68 74 75 67 56 68 62 90 41 37 41 41 39 40 47
95 97 99 97 98 100 97 85 84 91 100 100 97 85 83 71 74 82 69 55 57 66 82 58 71 70 91 88 80 83 74 66 49 46 46 51 58 55 60 85 63 45 46 43 48 52 49
97 96 99 96 98 99 97 85 84 92 98 100 99 93 94 79 82 91 86 80 68 58 62 64 61 61 80 90 76 66 62 64 50 50 55 48 45 41 42 42 58 54 52 53 46 49 49

GFSGBSN_925_rhum_015.txt.gz
RH
81 78 77 82 76 70 85 94 88 82 87 92 92 93 93 92 94 94 92 79 74 82 95 92 88 87 87 77 58 65 59 57 57 69 60 48 44 49 61 48 50 45 34 29 28 27 28
88 82 76 80 78 72 72 89 97 91 87 90 92 95 95 93 93 88 80 80 80 67 75 90 87 86 76 76 46 46 52 52 47 51 54 48 42 37 42 46 47 42 36 33 28 30 29
94 77 76 76 76 81 71 74 86 93 84 88 91 96 88 90 93 96 94 93 90 71 60 75 89 87 69 57 44 45 45 43 44 43 46 50 42 42 43 50 36 40 44 37 34 31 32
90 80 75 76 73 79 81 80 76 90 88 90 91 94 92 88 85 88 95 96 86 87 74 78 85 78 82 53 53 50 48 45 44 42 42 46 47 45 73 58 49 47 55 66 39 32 30
90 76 84 81 74 74 78 83 82 83 91 96 96 93 89 86 76 78 84 84 93 89 96 93 76 71 67 54 56 49 47 43 41 44 42 42 49 63 73 96 79 60 68 60 52 29 30
89 86 83 78 73 73 77 78 84 82 90 91 97 88 77 87 82 81 80 82 95 99 90 80 64 72 52 54 46 50 47 46 41 41 42 46 64 81 83 96 90 67 65 46 53 31 35
92 90 81 72 69 74 76 78 81 82 83 79 90 86 74 75 83 89 84 99 92 92 91 67 57 51 44 42 49 53 45 48 45 44 67 50 84 87 70 74 55 42 47 44 35 28 32
91 86 80 73 71 76 76 75 79 81 84 75 88 86 78 78 79 89 93 97 71 69 91 68 51 51 43 52 57 51 46 54 54 60 50 63 93 59 47 61 76 73 49 38 31 30 34
83 76 75 76 71 76 76 78 81 81 85 83 82 84 76 79 85 93 96 93 85 74 96 84 73 65 53 57 54 51 47 49 47 54 56 70 66 57 46 71 82 65 53 35 37 34 34
94 78 71 77 74 77 81 82 83 84 84 90 85 83 77 86 90 80 94 93 100 93 100 89 91 78 65 75 83 46 45 46 47 53 51 68 51 79 54 74 80 89 42 35 38 46 53
98 97 77 75 75 75 80 85 86 84 86 92 94 81 79 82 82 93 97 100 100 90 96 68 88 60 66 86 50 48 38 50 55 50 85 87 72 85 69 81 71 80 39 38 45 49 61
94 98 98 85 70 72 76 83 87 87 92 91 99 85 83 93 88 82 95 100 90 99 93 88 76 86 81 90 58 48 47 43 41 54 76 64 45 60 62 70 70 70 43 49 48 50 64
70 98 99 91 77 67 72 79 85 85 88 92 98 96 88 71 65 94 98 92 99 97 71 97 98 92 94 91 76 62 65 74 86 97 99 80 81 70 64 94 90 91 71 92 84 89 51
91 96 97 100 92 73 68 81 85 86 88 95 99 100 94 80 78 100 94 98 98 70 83 91 94 95 99 71 60 50 67 80 63 79 100 92 96 95 66 90 86 89 65 52 58 55 42
85 92 96 86 100 86 70 81 85 86 90 98 99 100 99 94 90 98 94 99 90 78 88 95 95 100 96 62 53 60 70 76 57 64 100 92 88 65 74 84 69 83 68 39 42 35 36
96 98 94 97 99 88 80 84 86 87 92 98 100 99 92 93 96 99 98 96 93 82 87 91 90 58 65 61 68 74 90 57 49 49 71 90 99 90 92 77 85 68 46 56 42 51 46
95 97 88 94 100 88 85 87 84 88 96 100 94 96 69 79 100 98 98 97 90 74 82 94 75 52 45 66 65 71 54 40 38 42 69 89 99 94 88 87 85 86 79 54 38 37 40
94 86 98 97 91 93 90 94 83 91 100 100 89 93 100 99 98 97 100 95 81 77 79 87 71 36 38 42 61 56 50 36 30 40 87 82 93 100 79 51 49 55 72 47 49 49 38
92 94 97 97 86 99 95 92 86 96 99 85 90 82 100 88 99 100 95 94 88 89 90 81 47 37 32 46 54 63 50 32 43 40 65 61 59 100 95 65 62 72 52 46 42 37 40
88 95 99 94 90 95 100 90 89 97 99 82 78 98 100 99 88 94 96 96 96 76 79 61 50 35 35 45 40 54 64 41 44 38 59 53 48 46 52 44 62 79 65 46 45 49 40
90 94 98 96 92 100 99 92 90 94 100 100 87 77 72 96 96 93 91 90 93 93 80 62 69 44 42 46 46 54 52 48 46 46 46 51 49 37 32 32 41 48 51 52 51 44 42
91 92 96 98 95 98 100 93 91 95 100 100 85 56 72 83 74 88 93 94 94 86 61 87 86 49 43 41 39 57 48 54 55 54 55 48 53 40 44 39 35 38 38 40 43 42 40
91 92 98 99 99 96 97 99 91 97 100 97 90 70 59 54 57 79 89 89 85 79 72 72 74 55 49 38 32 38 42 40 44 52 57 57 55 46 46 38 43 50 38 36 37 34 34
89 93 94 97 94 99 98 100 92 97 99 91 78 73 66 57 38 52 92 90 90 88 90 68 79 88 44 36 38 44 52 54 49 45 44 54 53 46 52 43 68 33 31 30 32 31 30
84 92 93 97 96 96 97 100 91 96 100 99 81 83 63 59 42 54 89 91 94 94 92 75 58 52 37 44 55 78 88 87 74 70 45 45 57 61 59 58 46 33 34 34 35 36 28
83 95 93 96 96 99 94 98 94 95 97 100 98 87 83 61 42 46 61 78 94 92 91 76 54 44 56 74 68 92 100 96 97 93 54 64 52 69 67 60 57 36 35 29 29 42 24
79 96 93 95 95 98 96 98 99 94 95 100 99 98 84 66 46 46 48 71 90 91 85 65 69 63 79 79 78 76 76 59 89 94 96 82 93 96 92 70 54 33 34 31 40 43 36
76 96 90 95 98 98 96 93 100 93 95 100 98 93 77 65 59 65 58 55 89 92 78 66 88 74 85 88 82 77 66 53 54 56 72 71 83 90 78 84 84 37 41 39 47 42 36
76 97 92 96 99 98 96 92 100 94 95 100 100 97 95 86 78 80 75 75 69 71 84 63 68 73 83 95 76 70 74 58 44 56 43 60 46 45 43 53 49 42 46 43 40 42 42

GFSGBSN_925_rhum_018.txt.gz
RH
90 82 80 77 84 82 76 73 76 90 91 94 91 94 94 93 93 94 88 89 92 91 96 91 88 83 83 74 60 54 53 50 59 70 68 58 54 48 63 50 52 56 49 37 31 31 30
87 91 84 71 78 83 78 74 70 75 95 96 92 94 96 91 95 94 88 89 92 94 88 86 91 85 85 80 45 48 52 51 47 48 59 56 51 40 44 46 50 47 49 47 38 31 30
87 89 93 82 70 79 79 77 74 71 85 96 94 92 92 84 89 95 90 92 92 93 94 91 92 89 72 61 42 42 43 44 45 42 39 44 44 49 41 47 42 40 55 47 46 36 35
94 89 89 83 74 78 78 77 79 79 72 90 94 92 85 93 82 89 82 81 89 89 92 94 92 80 77 56 55 52 44 44 43 41 40 38 44 50 54 61 63 66 54 73 49 40 36
95 93 86 86 73 78 79 76 80 81 81 82 87 91 85 86 86 83 76 66 68 86 94 91 83 72 66 51 56 51 48 43 39 38 39 39 40 62 57 75 84 71 78 66 62 41 38
99 93 87 84 83 76 79 74 76 82 85 83 77 91 91 81 86 81 81 72 77 84 97 80 67 69 57 51 48 50 48 46 42 39 44 47 54 80 80 82 88 78 80 64 68 50 44
98 100 88 84 83 82 72 74 74 78 81 85 75 74 91 78 82 88 92 81 90 93 94 72 64 54 42 43 45 45 46 44 44 49 64 53 74 87 79 71 67 58 58 66 49 39 45
97 96 97 84 75 81 75 72 76 77 81 82 75 74 87 77 79 85 94 89 75 77 91 78 66 57 47 46 52 46 44 54 60 73 57 64 83 58 51 56 66 69 73 69 53 40 39
90 100 98 94 83 74 78 73 76 77 81 84 84 73 86 77 86 90 97 88 83 80 98 86 76 66 58 50 61 51 46 51 57 66 60 72 61 53 49 55 64 60 83 74 79 49 36
85 96 100 94 98 81 75 73 79 80 79 87 90 80 82 85 89 81 78 81 88 90 100 92 92 78 66 72 89 54 43 50 56 61 55 58 47 48 59 60 56 72 55 68 67 85 78
87 86 90 98 99 97 82 74 77 80 85 85 90 89 84 78 79 80 97 97 98 88 97 78 86 63 65 88 70 66 51 63 66 57 50 76 62 62 72 74 68 72 61 75 77 87 75
85 91 92 95 97 94 99 82 74 78 86 87 93 95 85 89 81 95 89 97 81 99 94 88 82 92 92 89 80 69 61 56 54 63 53 59 54 60 58 64 68 63 70 91 89 78 92
86 89 93 93 94 94 98 91 74 77 86 86 94 98 87 89 79 96 94 89 99 99 66 96 95 85 77 95 93 89 84 73 78 95 93 73 93 68 68 83 67 72 84 100 100 99 79
86 88 94 96 99 84 98 98 79 73 86 87 95 99 96 86 87 89 85 96 99 58 76 89 93 93 99 92 93 94 93 83 63 73 86 84 80 87 72 85 85 80 97 100 96 92 61
87 87 94 97 89 81 97 100 88 75 86 87 96 100 100 98 98 95 92 99 86 84 90 96 97 100 100 83 67 73 72 86 79 63 97 98 95 70 55 68 81 87 99 83 70 38 52
87 90 95 95 99 86 99 92 85 81 89 90 100 100 100 100 100 98 99 96 88 77 86 92 99 90 82 73 79 62 59 52 54 52 59 87 99 80 77 74 82 97 75 95 69 59 65
88 90 95 98 95 88 96 99 86 90 91 97 98 99 82 100 100 98 98 93 93 79 83 95 95 91 59 58 80 58 59 49 48 50 70 91 99 96 96 92 92 95 96 86 57 49 60
80 89 94 98 94 86 92 100 92 92 92 100 97 99 97 100 98 97 97 94 88 86 83 86 90 84 68 48 62 56 57 46 43 43 86 88 100 100 96 79 67 81 75 65 58 58 56
72 83 94 98 92 96 91 97 100 95 96 96 97 96 100 94 98 98 93 96 91 91 88 91 92 71 43 40 63 57 55 42 38 56 73 91 99 100 100 95 89 90 75 68 66 53 58
70 78 95 96 99 95 94 97 100 99 98 84 96 95 100 100 90 88 97 99 97 86 88 80 73 52 42 39 41 59 53 45 46 46 81 80 78 99 100 72 81 85 81 72 66 66 52
68 76 87 97 96 99 94 90 99 99 100 83 97 91 79 98 96 96 94 94 98 98 82 71 68 59 51 46 47 50 52 51 51 46 64 82 94 92 89 62 61 65 68 64 59 54 54
66 70 85 96 98 96 99 99 100 98 100 98 97 85 83 83 72 87 94 95 96 90 84 79 80 62 57 43 42 49 47 57 60 52 50 68 82 62 48 48 55 65 60 60 55 49 48
64 70 81 94 93 96 99 95 98 100 99 98 97 83 79 65 75 89 92 91 90 88 82 76 67 67 67 43 37 41 39 46 58 51 59 64 66 61 55 41 46 54 53 52 50 48 47
64 68 77 92 92 95 98 96 94 100 99 87 84 84 93 90 58 60 84 86 87 90 88 66 71 79 64 44 47 55 69 62 62 50 48 67 69 66 58 47 70 39 34 34 38 38 40
64 67 76 89 92 94 96 97 95 100 100 95 80 90 96 91 74 50 83 86 94 90 95 89 72 67 69 57 66 84 90 85 77 74 54 53 63 83 69 67 50 40 35 37 42 43 34
64 66 77 87 91 94 96 97 95 100 100 100 92 83 96 96 71 49 64 85 93 98 98 89 74 55 73 76 72 96 99 98 98 90 69 59 66 82 90 77 69 44 36 32 33 53 42
63 67 78 90 90 95 97 86 94 99 99 100 99 96 95 97 73 55 56 66 92 94 95 86 82 73 82 90 94 88 91 80 98 96 97 84 84 91 86 90 72 39 34 33 50 52 46
64 68 76 91 90 94 96 93 98 99 100 100 98 98 92 95 76 66 58 61 95 94 92 89 84 78 94 93 95 85 73 71 84 82 80 86 95 96 96 99 92 39 41 45 54 43 41
65 66 77 91 90 95 96 98 93 100 100 100 99 99 100 100 93 76 72 74 71 90 90 89 87 75 83 93 90 78 79 63 56 88 67 76 66 73 79 80 51 50 52 44 44 48 54

GFSGBSN_925_rhum_021.txt.gz
RH
94 90 84 93 91 75 75 81 76 72 78 92 95 92 94 94 95 93 83 81 90 92 87 90 90 83 83 87 83 56 50 48 55 67 78 75 76 64 69 67 63 68 59 52 46 44 40
97 95 90 86 89 81 71 78 80 76 74 87 97 95 94 90 90 90 87 80 79 87 83 76 89 89 89 93 53 48 54 51 50 67 73 71 72 59 59 56 56 50 52 51 51 50 43
99 99 96 91 83 84 74 73 80 78 74 74 93 96 86 85 83 85 89 95 90 90 82 72 84 92 88 76 49 47 48 50 49 46 45 51 59 65 55 61 53 65 66 53 51 52 53
99 100 100 96 89 79 83 74 78 77 80 76 85 93 82 75 91 78 90 89 93 90 81 81 72 90 92 57 53 52 50 44 44 44 42 42 40 55 60 55 62 73 71 77 53 50 47
84 94 98 100 95 84 78 82 80 78 80 81 79 87 85 69 81 84 83 77 74 72 93 86 78 86 88 50 64 56 50 49 44 42 41 40 41 61 64 74 86 85 90 83 67 50 52
80 78 91 99 100 92 82 79 80 77 77 80 82 84 89 87 72 88 83 75 72 80 88 92 80 79 68 57 53 56 52 52 48 46 48 52 60 79 89 84 88 69 88 83 82 56 54
74 81 78 92 98 98 93 80 81 74 72 78 86 84 84 92 73 88 89 84 89 92 95 84 76 61 44 47 46 51 52 51 51 58 69 62 84 88 82 77 67 72 79 82 66 53 59
78 76 79 86 99 99 99 86 82 72 73 76 81 87 80 92 73 85 94 88 77 78 93 80 76 64 49 46 58 51 47 65 67 78 72 76 87 65 63 68 79 77 87 86 67 58 61
78 78 78 77 89 93 98 93 83 75 74 75 82 88 82 88 81 90 92 85 83 80 94 81 79 82 69 57 66 62 52 58 69 80 78 83 65 55 60 66 75 79 87 80 73 62 60
78 81 81 83 88 89 100 99 92 80 74 77 83 88 85 89 91 88 97 78 89 87 100 85 88 79 70 66 81 51 46 53 65 79 74 76 59 59 69 72 64 80 58 60 61 75 86
77 78 78 80 87 90 97 100 98 88 77 78 82 90 87 73 72 86 86 76 88 95 95 78 84 63 66 82 72 71 54 60 83 69 76 81 66 68 67 64 60 68 56 64 62 77 84
75 81 87 83 89 88 97 86 96 94 87 78 84 92 90 72 85 91 83 89 77 95 94 91 82 87 86 86 75 68 66 62 74 91 83 73 54 58 58 51 57 61 69 69 78 81 97
74 85 88 87 89 90 96 84 99 94 89 82 93 96 95 90 86 91 83 81 93 99 59 94 90 83 81 82 88 81 91 95 99 99 100 93 81 72 73 85 72 81 85 92 93 95 89
71 80 86 89 91 93 99 91 100 94 92 91 94 99 97 94 82 83 74 96 98 66 78 83 84 75 93 75 90 88 96 100 90 98 88 96 93 81 74 76 79 89 78 80 90 78 68
76 81 84 88 96 96 98 82 99 87 91 94 99 100 100 96 92 80 90 99 84 72 80 95 96 100 98 91 81 83 87 99 80 80 90 97 93 68 60 59 60 86 95 59 95 96 83
70 75 81 89 98 99 89 84 97 96 87 92 100 100 100 95 94 92 98 97 84 77 87 93 100 95 93 83 95 98 92 69 73 62 60 83 94 60 68 78 69 72 59 90 100 98 98
67 63 75 87 98 98 97 88 84 99 86 97 99 99 99 98 100 98 98 100 79 66 79 95 97 97 97 87 79 78 66 55 54 60 59 76 99 83 76 98 82 94 99 75 83 86 85
61 64 70 84 97 99 91 96 95 100 91 99 98 95 100 100 98 97 100 84 77 84 85 90 91 94 95 82 84 77 64 56 46 46 76 85 100 98 86 85 62 63 84 72 86 94 74
63 65 66 80 95 98 99 93 98 98 100 99 96 98 100 84 98 99 91 91 84 93 93 95 93 86 76 73 90 71 58 51 58 60 81 91 99 96 100 95 81 88 83 87 95 90 67
63 62 66 75 88 99 95 86 98 99 100 88 97 98 99 99 93 90 95 98 98 88 92 87 83 75 78 74 61 68 62 52 53 54 71 78 98 99 98 92 86 89 85 90 98 89 66
66 60 67 73 88 98 94 98 95 98 98 79 95 94 83 98 98 92 88 92 99 99 91 85 92 82 80 68 55 61 63 54 53 62 80 88 100 99 95 90 85 76 79 82 84 72 69
66 59 67 70 84 96 97 95 96 98 98 94 98 96 87 89 81 96 96 97 97 93 92 90 89 68 73 79 55 60 62 59 63 71 83 86 99 91 77 71 79 83 77 65 68 55 53
67 59 66 69 82 90 94 96 99 98 100 99 97 91 82 91 85 93 88 88 92 89 84 77 79 74 77 70 54 56 61 45 60 63 64 76 87 91 70 73 73 88 70 68 62 53 50
68 60 65 67 80 90 92 96 93 99 99 92 86 87 90 93 84 81 81 85 89 91 92 76 78 85 68 69 61 69 73 68 75 79 56 70 78 76 68 57 71 43 44 54 58 52 53
70 62 63 68 81 89 92 95 96 96 97 98 77 88 95 93 79 77 72 84 94 88 94 90 77 69 79 74 77 87 94 87 81 74 68 63 75 80 80 78 56 45 39 40 49 49 43
73 68 62 69 79 89 91 93 98 96 100 100 78 83 94 93 89 71 64 79 92 95 97 95 84 60 72 85 84 96 88 84 96 87 68 64 66 80 94 81 71 45 39 35 36 56 50
76 74 63 67 80 90 92 94 98 94 98 100 96 85 94 97 80 74 77 79 90 97 97 94 92 73 81 93 90 96 92 76 96 96 85 84 83 92 89 96 80 48 38 39 45 48 52
78 76 65 68 79 89 91 92 95 93 97 100 98 96 89 96 84 72 64 74 96 94 96 94 95 93 97 98 94 90 90 92 90 76 83 86 93 95 93 98 90 41 38 38 51 48 64
80 71 67 69 77 88 90 90 96 95 95 100 99 99 98 98 95 87 71 69 66 81 92 98 96 88 90 93 94 90 85 75 89 92 77 84 76 88 78 72 54 52 51 48 51 56 63

GFSGBSN_925_rhum_024.txt.gz
RH
97 100 99 98 93 89 90 81 71 82 78 79 81 95 95 96 96 87 86 78 82 92 79 86 88 79 83 96 84 54 55 52 61 74 82 82 83 74 73 69 67 76 70 60 60 59 55
90 93 99 99 98 86 92 90 75 74 83 77 78 89 92 95 93 84 81 80 76 79 81 74 85 86 87 95 54 54 58 54 59 70 80 80 81 70 69 67 68 60 62 61 55 55 56
72 78 86 94 99 99 87 82 84 73 80 82 76 80 90 83 89 81 85 86 88 85 82 82 86 83 95 80 50 51 53 56 52 56 61 76 72 78 69 66 57 62 77 69 58 52 58
80 78 82 80 92 96 100 88 78 81 75 82 80 82 88 82 80 85 91 88 90 88 81 82 86 90 90 55 49 46 46 52 48 50 46 44 44 53 65 59 66 75 75 83 52 53 53
80 80 81 84 80 90 97 99 86 80 72 82 80 82 82 83 76 87 83 85 71 70 80 88 84 88 86 53 65 53 53 57 46 43 43 43 43 57 65 77 84 84 97 84 72 52 56
76 74 74 77 79 80 100 99 98 82 75 82 75 82 82 84 75 79 87 85 73 74 80 99 83 89 73 61 55 56 52 54 55 49 52 53 62 80 89 86 88 70 86 83 81 64 58
76 74 74 82 82 77 82 93 95 97 79 79 75 80 87 84 86 77 97 86 87 91 97 86 77 70 50 52 50 55 56 53 54 60 78 66 85 85 74 84 78 73 77 87 77 62 72
78 83 78 77 80 82 80 87 96 99 88 80 72 76 87 81 93 84 91 86 76 70 93 81 78 70 57 53 63 56 54 68 72 89 77 80 88 69 66 71 84 85 88 84 70 56 62
53 77 79 76 78 78 83 85 90 90 94 84 75 73 84 79 96 96 92 80 80 76 95 80 82 84 76 64 71 65 57 65 75 84 80 88 64 58 68 75 84 87 91 79 77 67 56
62 51 76 77 82 83 88 88 88 90 100 92 80 77 87 89 95 97 90 84 86 78 97 85 88 77 74 72 83 54 50 56 72 81 74 74 65 64 72 77 74 90 69 73 74 75 90
65 56 70 77 86 89 87 91 87 97 98 91 81 83 90 87 70 93 74 81 87 89 87 68 84 64 69 77 71 71 51 59 91 81 83 92 80 77 76 72 60 74 56 63 71 82 80
66 61 77 77 89 90 91 90 93 95 96 94 94 92 95 87 79 76 74 77 90 90 94 92 78 90 88 86 75 70 66 61 80 88 75 74 60 62 63 54 59 65 69 70 73 84 92
65 66 72 78 89 90 92 94 94 98 97 94 96 100 100 89 93 80 86 86 97 95 61 94 89 87 83 85 81 81 90 95 99 99 98 99 96 73 67 68 63 63 79 92 100 96 80
66 63 64 65 81 95 96 97 96 100 88 90 89 100 100 86 79 83 79 87 93 66 81 73 73 79 86 71 81 81 88 97 93 99 100 98 97 96 75 67 76 79 77 91 91 97 62
68 60 67 62 77 93 95 100 93 94 94 86 86 100 100 92 83 86 86 99 86 71 75 76 79 90 88 82 82 86 89 86 77 93 95 96 94 66 64 62 60 88 94 61 79 76 96
70 66 68 63 66 92 98 100 98 91 94 97 100 99 98 89 89 85 95 97 79 78 81 81 90 93 91 86 98 89 84 69 69 75 71 76 97 75 69 70 69 70 64 93 94 98 83
71 67 64 61 66 86 98 99 99 96 98 88 99 98 100 96 93 96 99 96 80 77 76 86 95 98 96 90 86 87 86 67 72 72 75 77 88 89 85 97 75 94 98 85 66 78 95
66 66 63 60 69 83 98 86 98 99 100 100 99 100 100 100 98 98 100 82 66 79 78 87 91 95 95 91 92 89 84 60 56 60 84 67 96 95 76 58 71 94 83 79 78 71 96
73 66 65 61 70 80 94 99 98 98 97 99 98 98 100 82 98 100 90 77 80 85 87 94 95 88 84 93 96 83 71 51 55 58 77 92 100 97 86 86 83 100 78 92 64 74 71
78 66 66 62 69 80 90 99 97 95 100 100 97 98 100 99 93 92 96 95 96 84 86 89 92 83 84 82 78 78 69 53 56 54 77 86 99 92 94 99 87 88 81 70 84 96 73
80 69 63 62 67 77 90 95 98 97 99 97 98 95 83 89 98 85 83 93 96 97 91 88 94 85 86 83 82 85 68 59 65 65 81 92 100 99 95 90 97 83 76 80 98 84 98
80 74 66 62 68 73 89 95 99 91 98 94 98 97 86 87 86 90 93 97 96 95 94 96 98 80 80 94 66 64 58 61 75 82 91 89 100 100 98 90 95 98 90 81 93 92 97
80 72 68 63 67 77 88 92 88 97 98 100 94 88 80 89 87 96 96 93 92 82 83 84 87 88 85 82 66 61 58 53 59 78 80 93 100 100 100 85 90 100 90 96 92 88 91
79 73 69 68 62 76 87 94 94 95 99 100 95 88 90 95 88 88 86 90 90 87 83 80 86 90 66 65 71 67 70 74 70 67 67 78 82 90 91 89 79 45 52 62 70 59 52
78 77 69 72 62 75 85 92 94 97 99 100 98 88 91 94 81 81 84 85 79 79 93 92 76 73 72 79 86 82 90 90 84 76 83 65 77 90 97 92 61 44 44 50 63 60 46
80 81 73 75 62 74 83 93 93 91 96 98 97 85 91 93 90 73 80 84 94 95 94 95 83 68 86 93 83 98 99 89 94 91 75 72 70 83 96 90 74 47 41 37 38 62 48
81 82 75 68 63 77 82 92 92 95 94 100 98 82 88 93 80 76 86 82 85 93 97 96 92 81 86 95 97 98 92 72 86 94 91 88 88 90 89 96 80 58 42 41 49 49 51
82 83 80 67 64 76 81 92 92 93 94 99 100 87 86 95 83 67 65 87 97 93 96 94 99 92 97 96 93 93 91 92 89 69 83 85 90 94 93 96 87 47 38 37 46 64 68
81 82 81 70 68 72 81 92 94 96 97 100 100 96 95 96 93 87 74 67 64 76 92 97 97 91 88 91 93 90 90 92 89 97 79 90 79 91 80 79 59 54 49 51 54 64 67

GFSGBSN_925_rhum_027.txt.gz
RH
79 76 79 82 91 99 100 88 80 79 70 83 82 80 88 96 94 95 96 82 84 94 81 87 83 80 89 87 81 54 62 61 78 87 88 83 84 75 76 72 70 81 74 66 63 67 66
84 81 80 83 88 88 94 99 93 84 76 73 74 77 79 91 95 88 94 88 81 89 83 74 82 88 87 89 50 54 61 57 63 81 88 84 85 76 78 71 70 63 64 66 59 61 61
82 82 80 81 82 85 87 93 98 90 78 74 79 82 80 86 90 83 90 92 91 90 82 75 79 90 93 79 52 55 53 54 56 69 80 83 79 81 76 78 60 64 78 70 68 58 59
79 81 83 79 85 82 82 79 100 98 94 78 74 80 84 83 86 83 93 94 92 93 84 83 84 89 88 54 56 52 56 49 50 53 54 48 70 54 62 59 68 76 78 88 56 62 57
66 79 82 81 82 83 82 74 84 96 99 90 77 74 79 82 81 72 80 95 85 75 81 90 86 84 80 51 65 47 52 51 49 48 46 45 45 57 62 80 78 84 96 88 71 57 55
57 59 63 72 77 80 83 83 81 89 96 99 83 76 77 81 78 67 86 93 82 74 82 97 81 90 75 61 58 56 58 54 55 51 51 53 64 77 88 88 86 76 98 84 82 62 66
59 56 60 62 81 75 78 82 85 82 91 90 93 77 80 82 76 70 96 85 87 90 99 85 76 74 54 55 54 59 59 58 57 62 78 68 84 88 80 85 82 88 86 84 79 64 72
62 69 70 58 65 79 78 74 79 87 86 91 100 84 82 83 81 83 96 88 74 68 94 82 84 70 61 62 68 56 56 66 74 91 80 82 89 75 66 70 79 89 96 86 75 64 64
64 67 67 67 73 77 80 86 84 90 88 90 92 90 84 86 90 99 95 78 76 74 91 77 83 84 77 69 73 69 59 69 80 93 91 88 65 61 69 76 84 86 87 69 71 60 63
62 58 64 61 77 80 86 88 91 89 93 89 93 97 89 84 98 99 93 78 80 74 94 78 90 82 78 72 84 56 55 63 72 88 85 86 70 70 72 78 79 88 72 76 80 86 88
67 67 64 66 68 80 85 91 85 93 97 95 84 94 92 100 95 96 80 81 83 68 85 70 85 68 71 78 69 72 55 58 78 86 85 88 94 82 78 72 67 73 61 77 78 85 87
72 70 69 61 72 67 83 95 94 89 92 93 96 86 97 99 84 82 76 86 82 88 94 88 82 87 90 83 76 69 69 60 74 86 77 76 68 73 75 60 62 62 69 74 76 88 97
71 72 71 67 70 68 85 95 95 94 95 95 88 89 100 88 90 75 84 88 98 93 62 90 82 87 72 80 81 80 89 94 96 98 98 98 96 80 69 75 62 68 91 97 97 96 83
67 73 70 65 70 66 72 94 97 99 97 86 91 95 99 88 79 80 79 91 97 70 89 67 75 90 89 82 83 81 85 87 85 98 100 98 99 95 86 71 78 86 87 95 90 92 84
77 76 71 68 66 65 78 92 99 100 92 95 92 99 97 100 81 84 79 98 83 71 77 72 72 84 85 67 74 88 91 79 76 74 98 98 95 84 83 66 74 99 98 72 87 68 89
80 80 74 67 64 66 74 92 99 98 91 87 98 95 91 99 86 82 94 88 77 72 71 67 91 78 80 76 91 91 84 69 76 71 67 80 96 76 79 68 76 83 65 95 98 96 91
80 80 75 68 62 69 77 92 99 93 97 99 98 96 97 98 90 94 98 93 78 80 72 85 84 97 84 89 87 82 80 72 68 72 71 71 87 84 88 92 87 93 96 90 75 84 90
80 80 74 70 61 70 76 90 98 98 94 95 92 98 100 100 97 98 100 84 68 87 76 82 78 82 90 83 96 84 94 74 65 72 93 72 92 97 74 70 59 63 71 77 81 88 76
79 80 78 74 61 68 75 90 94 97 99 99 94 94 100 88 98 99 93 80 76 89 83 89 94 85 78 91 100 93 80 59 66 70 84 80 99 97 95 84 82 100 95 86 71 70 80
82 80 76 74 63 64 81 89 94 96 99 100 96 100 99 95 90 82 89 87 92 80 82 84 93 88 94 94 90 86 84 58 58 59 66 74 100 96 89 84 99 99 94 93 96 95 76
84 80 80 72 67 63 82 89 93 96 97 100 98 96 91 98 98 87 77 92 91 96 82 85 95 95 95 97 76 86 82 74 64 63 81 91 100 99 93 81 80 100 98 91 97 78 86
81 73 78 67 72 61 80 88 95 94 93 97 97 96 89 84 84 86 86 95 93 81 92 97 99 84 90 96 70 79 74 70 67 77 90 94 100 100 96 85 94 96 96 87 80 76 78
80 76 78 70 73 63 75 86 91 96 96 99 96 91 79 84 88 92 94 90 86 82 84 79 89 96 92 80 68 64 67 62 63 79 94 98 100 100 93 96 95 100 94 95 83 73 80
83 81 80 73 73 65 71 85 91 95 98 100 95 99 93 94 85 88 87 82 86 86 84 81 84 96 70 67 66 71 76 76 74 72 72 96 100 100 100 100 98 86 86 82 92 86 84
83 81 81 77 68 64 73 83 91 94 98 100 100 100 91 95 79 79 84 89 90 89 90 84 82 72 64 74 95 88 91 86 81 79 75 78 82 98 100 98 68 48 68 94 97 93 83
84 83 83 82 69 64 74 81 91 94 98 98 96 100 95 91 91 72 83 86 96 97 97 86 80 74 77 89 87 93 98 96 86 89 82 80 81 92 92 100 81 50 44 40 63 65 56
82 83 84 83 72 67 70 80 90 94 97 100 98 100 91 88 85 76 86 88 88 92 96 94 92 83 86 95 96 92 97 80 88 85 96 95 94 95 90 94 83 58 56 44 52 50 54
82 84 79 80 79 69 68 77 90 92 96 99 96 95 98 94 85 70 70 91 98 91 96 90 98 96 98 98 96 93 84 84 81 65 84 88 89 86 93 94 77 56 46 42 47 62 69
77 85 81 86 83 74 70 76 89 91 96 97 99 100 94 92 91 89 77 71 71 81 90 97 95 92 90 86 90 88 92 93 88 94 81 88 77 86 83 79 61 54 54 54 57 64 70

GFSGBSN_925_rhum_030.txt.gz
RH
81 81 82 82 85 87 88 89 92 95 97 84 76 82 94 89 84 95 93 96 96 96 80 84 90 83 90 87 87 60 66 59 79 87 83 74 81 74 77 76 74 86 80 69 64 64 70
65 81 80 82 80 80 82 84 86 88 96 96 83 72 83 83 80 92 84 96 95 95 85 76 88 87 86 83 49 56 60 59 78 83 94 85 83 78 80 75 72 66 67 68 63 60 61
64 62 63 69 77 79 78 79 84 81 89 98 91 78 80 81 81 85 80 93 94 94 80 82 88 90 92 77 55 58 52 56 56 81 94 86 81 77 80 82 65 68 82 75 71 65 62
65 62 62 62 60 80 81 81 80 82 82 92 94 89 74 81 81 86 88 93 90 91 82 85 93 90 81 53 55 57 57 52 51 56 55 51 80 75 59 57 65 75 80 93 62 65 59
68 60 65 67 70 59 77 83 83 82 83 83 96 95 88 84 85 79 78 83 92 82 83 90 92 81 77 51 63 51 53 49 49 52 52 48 51 58 61 75 78 78 83 86 75 57 61
62 61 62 66 66 60 70 80 77 78 73 85 88 98 97 83 87 80 75 88 96 74 81 93 83 82 70 61 58 62 59 49 53 52 54 54 64 78 81 84 91 74 72 62 74 65 69
54 58 65 66 67 65 74 74 83 87 82 85 89 87 91 89 89 82 93 91 87 89 98 79 82 75 58 57 57 62 63 58 58 62 78 70 85 94 86 79 67 77 93 90 75 66 76
67 67 69 70 59 64 70 74 81 84 89 87 92 86 87 93 94 85 94 84 73 64 93 80 80 79 64 65 68 62 59 69 74 88 80 84 94 76 68 73 83 85 87 77 70 65 71
70 69 73 70 67 66 68 79 85 83 88 90 98 96 93 97 100 100 89 77 67 68 86 77 85 84 80 70 75 72 62 70 80 93 93 90 67 65 73 80 85 88 91 84 78 62 63
74 64 75 68 64 63 63 76 85 86 92 94 88 94 99 98 100 100 91 76 72 57 92 77 93 86 82 74 80 60 59 67 79 92 90 93 72 72 78 83 82 89 74 76 80 88 92
62 68 77 72 66 67 72 77 84 87 90 92 92 92 95 93 100 95 88 81 71 52 98 74 92 71 74 74 69 75 58 62 79 87 84 83 90 92 90 76 74 76 69 79 83 95 98
70 71 79 75 72 71 76 76 79 90 93 93 97 94 98 86 100 90 84 73 68 86 98 91 84 89 90 83 74 70 71 61 72 77 78 74 73 75 77 65 62 64 74 76 92 97 95
81 80 79 80 73 74 73 74 80 98 99 95 98 94 98 86 98 90 78 83 95 96 66 87 87 79 76 82 75 78 87 95 97 99 98 92 92 77 72 82 69 82 100 97 98 97 86
83 82 79 79 76 75 64 72 92 93 100 90 87 92 86 82 100 97 86 87 94 70 88 69 78 76 79 68 74 84 85 93 85 89 100 97 90 87 79 73 79 82 88 95 92 86 85
80 85 80 80 76 73 61 73 88 97 98 100 89 82 92 86 100 89 87 97 82 73 77 81 81 82 93 78 74 83 87 88 64 81 98 99 93 82 83 73 64 98 98 72 97 96 96
84 86 81 79 78 73 62 74 86 95 91 91 97 92 90 95 95 86 90 85 73 64 70 70 85 78 77 76 85 90 84 76 74 74 63 80 95 78 80 82 75 81 79 97 98 96 94
78 83 81 77 76 72 63 78 85 92 98 100 100 94 96 95 90 96 97 85 76 77 66 78 82 86 75 82 78 82 81 71 72 76 68 76 92 84 86 97 84 97 96 100 89 95 92
76 82 82 80 76 76 62 78 86 92 90 87 91 98 99 97 99 98 97 84 73 85 78 84 73 86 84 80 90 88 87 75 65 77 86 70 95 96 76 63 62 68 77 78 84 88 86
78 82 84 82 75 76 62 76 89 94 97 99 94 94 100 79 99 100 90 86 80 91 87 85 82 78 77 86 99 91 84 66 70 78 87 77 98 98 88 84 68 99 86 72 69 63 82
82 81 80 81 72 78 64 75 90 97 96 100 94 99 99 95 93 87 88 89 97 79 81 79 80 77 88 96 91 96 90 68 69 70 66 69 95 88 84 70 99 100 88 96 98 96 80
80 82 81 81 78 73 68 74 89 97 93 100 94 98 91 99 99 78 75 82 85 94 80 81 83 82 93 100 96 97 87 78 67 64 77 83 100 97 92 80 91 100 99 96 98 89 97
81 83 82 83 78 71 68 76 89 95 84 96 96 96 96 82 86 78 85 92 94 81 86 91 97 87 93 98 74 76 69 78 76 78 88 90 99 100 97 86 99 97 94 98 96 92 96
81 83 83 81 80 71 67 75 86 95 97 95 88 96 87 87 85 89 93 87 85 81 84 74 86 96 97 92 79 73 61 68 71 78 95 98 100 100 89 90 100 100 98 96 95 94 88
78 83 84 83 81 73 67 74 84 92 99 100 96 100 93 97 87 82 89 80 84 82 78 84 81 92 75 71 66 68 80 82 77 76 73 98 100 100 98 99 98 89 91 88 92 81 70
78 77 82 82 83 75 68 71 81 94 98 100 99 100 98 92 80 82 88 86 83 81 90 86 79 77 76 78 91 98 97 92 87 88 86 84 96 100 100 96 89 66 90 91 97 87 77
80 79 82 81 81 79 70 69 79 94 96 99 98 100 99 91 86 71 83 87 93 96 100 94 85 86 86 93 91 83 97 94 89 85 79 78 81 98 99 98 97 58 56 68 74 69 78
86 76 82 82 82 83 76 72 78 93 96 99 98 100 100 90 85 74 86 91 85 90 95 94 91 94 87 97 95 100 91 82 88 70 96 98 98 99 91 93 82 60 61 52 60 58 55
82 85 84 85 82 83 79 72 76 90 94 98 97 99 100 96 87 72 71 89 97 91 96 92 98 98 98 95 97 94 93 83 84 65 85 87 95 90 86 96 76 58 52 48 52 60 65
83 85 83 86 85 84 78 74 78 92 93 93 95 91 100 98 94 90 78 69 73 82 91 98 94 97 88 90 96 91 93 94 87 94 81 90 80 79 84 84 60 60 58 58 63 68 71

GFSGBSN_925_rhum_033.txt.gz
RH
67 66 66 65 64 65 78 81 84 84 86 90 97 96 91 86 90 95 75 87 93 94 93 83 88 78 83 84 86 66 64 61 80 88 79 74 76 71 73 75 76 86 78 69 65 60 60
68 68 66 67 69 74 64 74 79 83 83 83 91 98 97 86 91 83 91 74 91 94 89 78 85 86 80 80 52 54 61 62 84 82 84 74 73 71 74 75 70 68 68 67 64 60 58
64 68 65 64 75 63 68 68 73 74 78 84 84 95 96 89 88 88 90 75 82 89 83 83 85 87 90 75 55 58 55 58 73 80 89 83 73 75 77 84 69 70 79 71 68 64 63
64 61 63 62 61 63 64 62 72 79 77 72 73 88 97 93 90 90 88 93 73 89 88 88 86 86 73 55 59 53 57 53 54 59 69 77 83 80 70 59 64 74 74 82 63 61 61
60 57 66 64 71 69 62 61 75 76 82 86 79 84 88 94 97 94 87 90 86 91 87 89 88 75 77 53 60 54 54 51 52 54 54 62 59 65 67 76 78 79 87 88 68 57 63
70 70 70 71 75 68 68 65 73 74 83 84 87 87 93 94 90 95 90 86 97 82 85 88 87 87 67 62 60 64 56 51 53 56 55 58 66 77 76 84 87 82 90 72 64 55 66
79 77 65 72 68 66 64 58 64 75 84 85 90 90 94 96 86 99 100 100 87 87 98 78 78 72 60 60 61 66 60 57 58 61 82 70 83 92 81 79 70 78 86 79 67 59 70
77 57 62 67 72 66 64 67 67 76 86 88 90 94 92 96 86 98 91 90 73 61 92 84 85 83 69 66 68 69 61 69 71 85 78 86 90 72 71 80 83 79 84 69 56 53 65
64 67 73 74 68 71 69 69 71 79 86 88 88 89 95 92 99 94 94 75 59 50 75 75 82 77 80 68 77 74 64 72 81 92 89 88 69 67 71 79 83 85 88 82 79 63 59
76 77 73 77 77 78 75 70 76 83 86 82 93 87 90 92 92 95 94 73 61 46 87 73 92 86 81 71 78 61 60 66 79 90 90 91 73 73 83 85 78 90 73 73 77 82 86
84 76 78 80 75 76 77 75 70 73 86 94 91 93 95 96 96 98 94 79 62 53 86 72 95 73 79 75 68 77 61 62 84 86 86 78 88 93 84 74 75 75 67 74 77 89 87
80 77 80 83 77 77 76 75 65 76 88 93 100 98 98 95 97 81 92 78 60 86 94 92 86 92 93 78 74 74 70 60 67 78 83 76 70 75 78 71 67 64 76 78 83 88 96
69 78 84 83 79 80 74 71 64 78 94 88 97 90 98 95 81 84 98 90 97 90 68 97 88 87 77 82 79 78 87 91 92 98 98 84 84 74 70 80 73 72 100 95 96 98 83
82 85 81 83 80 77 71 68 64 83 94 93 100 93 96 96 85 97 88 98 91 74 82 67 75 79 79 73 72 78 87 92 79 89 98 96 87 87 76 75 82 86 87 91 92 82 70
79 77 80 82 79 77 72 70 66 82 95 88 94 84 90 87 80 100 94 98 80 74 75 80 75 82 84 74 76 79 83 79 71 83 96 96 85 78 81 76 66 97 97 72 89 79 95
82 80 79 83 80 79 75 72 67 83 93 95 100 95 88 84 79 99 96 94 69 67 73 74 86 79 88 87 92 92 89 76 77 75 72 81 97 74 79 79 77 87 72 96 98 96 86
69 78 82 83 78 81 78 72 67 84 94 87 97 95 95 88 87 98 100 89 82 72 64 72 84 87 71 84 82 84 83 70 75 79 72 72 87 79 90 94 79 91 95 99 89 88 81
82 82 81 83 82 79 79 72 73 87 96 92 98 97 91 100 99 100 100 80 79 86 79 81 78 78 78 78 79 77 83 73 68 77 87 75 85 97 85 66 66 63 72 76 96 80 92
85 81 82 83 84 82 78 72 76 90 96 98 96 97 99 80 99 100 88 87 88 86 86 83 81 77 77 75 90 85 84 66 74 76 85 76 96 97 79 79 71 87 72 70 89 85 94
86 80 83 83 83 84 72 70 77 96 98 100 94 100 98 94 94 93 86 91 96 80 84 79 78 73 76 85 80 87 83 74 73 72 67 65 88 86 80 61 83 99 89 83 98 96 78
82 80 82 82 83 82 73 70 81 97 94 100 95 98 92 99 99 84 76 78 95 93 83 81 90 78 78 94 85 87 81 76 72 68 69 81 100 88 84 76 75 96 96 97 98 88 96
79 74 81 82 83 81 74 71 81 93 90 97 97 96 93 91 86 80 79 83 83 92 79 88 94 78 77 92 81 90 85 85 75 78 84 81 100 100 96 85 82 99 95 96 97 94 97
86 79 74 82 79 82 76 71 78 88 98 93 81 91 90 84 88 93 86 75 82 79 79 71 82 82 87 89 77 77 68 64 70 82 85 98 100 100 90 73 89 100 99 97 98 96 84
85 84 79 81 79 80 80 72 74 84 99 100 95 99 96 99 94 92 84 81 85 83 85 83 76 87 80 71 74 76 84 84 77 77 73 92 100 100 97 97 98 91 87 86 91 96 88
82 83 74 81 80 82 82 75 74 81 97 100 99 100 99 96 87 80 86 82 84 80 81 77 84 75 84 88 90 93 92 94 92 84 82 78 90 100 100 96 74 59 65 82 97 86 76
78 78 81 84 83 82 83 78 76 79 96 97 96 100 100 89 87 71 90 86 94 94 98 94 94 92 93 92 90 91 91 84 88 89 83 84 80 98 94 99 97 64 63 69 73 71 78
77 79 82 83 86 85 83 78 75 81 97 95 95 100 100 95 84 73 86 89 82 92 96 93 97 98 94 98 98 97 93 82 86 70 98 98 95 97 97 100 81 59 65 64 60 64 72
84 84 84 87 86 82 85 76 74 84 97 92 90 100 99 97 86 75 71 88 91 88 97 94 98 98 98 99 98 90 97 86 83 73 88 86 92 98 93 91 89 63 57 58 58 64 66
82 86 90 87 84 86 81 75 73 84 95 95 93 84 98 100 91 88 80 72 69 71 89 96 93 92 90 93 95 91 95 91 86 94 77 92 83 76 75 78 63 66 60 61 73 75 75

GFSGBSN_925_rhum_036.txt.gz
RH
67 66 68 68 69 72 72 66 68 74 78 79 80 84 96 97 95 92 88 97 94 76 88 76 78 75 84 68 55 72 61 62 78 82 73 62 57 52 54 50 54 54 43 45 43 49 44
66 66 64 67 66 65 63 64 65 70 74 81 77 74 89 96 95 84 97 90 96 83 84 78 77 81 67 62 60 64 61 66 76 80 67 62 57 53 55 53 56 50 53 50 48 47 44
63 66 66 66 67 75 72 70 64 71 70 78 79 83 76 90 98 91 92 82 96 88 76 75 75 87 75 50 57 61 57 60 73 75 78 77 66 62 55 61 53 53 61 47 43 42 45
70 72 66 70 69 71 69 68 67 66 68 72 88 90 87 87 92 97 92 92 94 89 81 76 79 81 57 56 65 58 58 55 67 73 72 80 77 65 53 50 50 53 52 52 43 46 43
76 76 70 68 74 76 70 66 63 61 68 72 81 86 91 90 95 91 98 100 88 88 94 94 82 64 63 57 58 52 54 52 55 55 53 68 58 59 57 65 60 53 53 55 50 40 45
81 73 69 71 76 75 72 77 72 66 60 76 86 89 93 94 95 96 95 100 94 92 96 95 79 79 62 55 55 62 58 50 50 49 54 57 53 57 52 58 55 45 54 48 49 40 44
71 67 69 70 74 74 70 74 72 69 71 78 90 90 93 87 94 93 92 100 94 90 77 58 65 60 55 58 62 60 53 49 47 53 65 59 69 70 54 51 45 53 54 55 46 42 45
74 76 76 78 70 77 73 75 74 73 79 86 85 84 89 89 93 94 98 98 69 57 82 64 67 62 64 60 62 59 54 52 53 64 60 69 76 49 48 52 59 59 61 58 46 40 44
80 84 81 76 80 79 72 76 75 71 76 86 86 86 89 92 90 93 95 88 65 50 59 74 67 64 65 60 60 64 50 54 55 66 64 63 54 52 60 62 68 64 64 55 54 45 42
83 69 75 80 84 81 77 78 72 73 64 80 92 91 92 97 88 81 85 72 86 58 89 78 81 65 64 58 64 52 49 51 63 61 65 63 48 57 63 63 58 62 45 54 54 59 62
78 76 80 80 85 83 81 77 72 68 67 87 89 99 98 98 76 85 81 73 90 65 94 69 85 65 57 57 62 74 54 52 64 65 66 65 69 74 67 60 54 60 51 54 56 61 63
71 77 80 80 84 83 80 79 73 65 71 88 99 96 99 95 92 85 98 96 90 96 85 90 83 92 88 62 63 70 67 56 50 62 67 52 55 58 54 52 52 54 62 62 60 73 90
73 76 79 77 83 84 80 78 73 66 72 88 97 99 99 85 77 86 87 90 98 96 63 92 82 87 73 75 77 70 85 85 83 97 94 65 63 57 58 66 60 64 89 75 85 93 67
83 70 75 83 83 82 81 77 74 67 74 94 89 98 93 82 88 86 98 98 95 69 68 63 69 74 79 70 71 73 81 89 64 64 77 79 75 65 67 68 62 79 74 69 68 44 40
83 81 81 83 81 79 81 78 75 66 76 90 91 97 94 92 87 76 97 98 84 59 63 68 70 78 79 67 65 72 75 70 62 65 87 84 78 59 61 58 56 82 96 58 80 66 76
88 88 86 83 81 81 82 80 78 72 80 93 100 92 83 80 94 91 98 99 62 60 58 56 72 63 76 73 76 70 68 55 56 54 52 67 88 57 65 65 63 66 53 88 92 78 61
86 86 83 84 83 85 83 80 71 77 84 98 99 90 85 80 87 94 100 94 75 56 53 60 65 70 63 72 68 69 63 57 56 59 56 63 70 68 74 83 68 82 92 94 63 61 70
86 83 81 84 84 83 86 71 73 80 92 93 96 100 86 86 98 99 100 75 64 68 65 67 60 58 60 64 68 65 62 58 52 59 71 55 71 83 63 43 44 43 55 61 89 70 79
86 81 76 83 84 84 85 72 77 85 97 99 94 98 99 88 96 98 96 85 74 69 71 66 70 63 59 61 73 61 67 58 57 60 59 58 85 84 51 69 56 74 58 52 67 76 93
87 84 77 79 84 79 82 73 77 90 98 93 94 100 97 89 89 81 96 92 86 74 72 66 66 59 64 71 64 75 73 63 59 55 56 56 67 68 58 53 63 99 78 76 96 96 74
87 82 79 75 82 77 81 75 76 86 94 94 94 95 82 100 97 74 65 73 78 80 71 63 71 66 65 75 78 92 72 64 65 64 62 64 97 72 67 60 63 80 87 93 99 93 94
83 84 82 79 83 78 79 79 77 80 92 94 99 92 87 80 74 77 75 72 71 79 70 77 70 69 66 76 69 75 69 70 71 66 72 71 95 100 96 71 76 99 92 96 97 96 97
88 82 79 72 82 79 81 83 77 82 98 93 84 88 89 91 75 75 68 66 65 65 67 60 63 68 72 67 61 63 68 62 59 64 69 79 98 98 94 76 78 94 97 96 95 93 86
78 76 77 79 84 79 82 83 77 83 95 99 93 98 97 94 76 70 64 61 70 66 72 72 64 70 69 70 74 71 76 80 68 66 63 84 100 100 99 91 93 70 63 73 86 79 83
83 80 78 79 83 83 83 84 76 80 92 100 99 99 99 88 72 79 72 67 70 70 76 71 72 69 72 77 92 83 90 90 74 69 67 62 80 100 100 93 69 54 53 62 93 94 81
80 81 81 82 87 85 83 84 76 79 95 96 96 100 100 90 87 64 69 66 75 77 82 86 93 89 86 92 95 77 66 62 80 92 83 73 81 99 100 96 81 51 49 57 72 96 93
76 80 83 88 88 82 86 81 76 78 93 98 94 98 100 97 72 74 68 74 67 78 92 95 96 100 91 96 88 79 71 69 86 80 92 98 98 97 97 98 68 45 51 57 55 62 63
76 77 80 85 87 86 83 79 76 80 91 90 90 100 100 96 80 76 70 77 80 77 94 92 94 97 98 99 99 72 73 67 71 60 68 73 82 97 98 90 82 52 48 57 53 55 56
77 74 73 78 79 79 76 76 75 78 86 88 92 86 99 100 84 89 82 74 70 67 78 90 87 88 88 97 89 72 80 72 66 67 66 72 59 64 61 55 49 53 55 52 60 62 62

GFSGBSN_925_rhum_039.txt.gz
RH
68 69 67 69 67 70 72 72 72 67 66 65 75 81 80 79 90 99 97 100 97 95 96 75 76 75 76 61 54 73 65 62 75 82 70 51 49 43 47 38 36 44 38 30 32 35 37
66 71 71 66 68 69 72 71 70 69 68 66 68 77 86 87 82 94 98 92 98 96 96 76 70 72 64 62 52 56 55 57 55 65 72 59 54 41 44 40 44 37 38 36 35 36 36
72 73 77 70 70 66 70 74 72 71 68 66 69 70 87 92 87 89 97 95 97 97 96 82 67 77 59 43 44 52 54 54 61 61 56 61 55 50 50 53 42 45 52 42 38 36 37
72 90 73 71 72 75 78 75 77 76 73 67 64 75 82 90 92 91 94 99 99 94 95 93 67 64 55 55 51 54 50 55 60 63 64 69 64 56 59 46 45 48 45 51 30 34 32
84 72 69 74 70 74 72 75 75 74 76 71 70 77 86 90 92 94 96 99 99 88 95 93 74 58 54 54 48 44 46 48 50 55 61 70 68 67 61 58 50 44 48 41 33 31 34
74 78 75 75 77 71 80 73 76 73 76 74 77 84 86 84 80 91 95 98 97 97 93 81 66 68 54 51 47 46 47 48 46 46 56 56 54 59 56 56 56 42 42 38 37 30 37
72 81 75 71 79 75 84 76 78 76 70 78 83 84 81 84 90 89 94 94 99 99 88 64 63 49 51 49 50 46 48 48 45 48 55 50 57 58 44 40 38 36 43 40 32 30 37
82 82 85 75 77 80 86 83 78 73 78 80 71 87 90 86 89 90 90 92 89 87 88 56 53 52 49 47 56 46 44 49 55 69 52 67 74 43 37 39 43 47 49 45 36 32 36
81 82 78 81 86 83 88 81 78 76 81 70 71 90 97 93 95 92 75 82 80 99 86 69 54 54 58 52 49 56 44 42 49 54 55 62 46 42 44 50 55 51 51 45 44 37 34
77 68 78 79 79 83 83 83 82 78 80 68 78 93 94 78 97 82 68 73 87 100 100 86 77 59 59 50 60 43 42 42 48 48 49 51 39 47 48 54 48 55 37 40 44 51 52
76 79 74 73 80 83 84 86 80 78 75 72 78 89 95 100 99 66 69 74 92 94 97 72 70 48 51 52 54 58 42 48 50 48 52 59 55 53 56 49 42 49 45 48 49 54 59
74 76 81 82 83 82 85 82 79 78 73 72 79 88 98 96 90 74 76 96 87 99 97 87 84 76 69 50 58 58 57 49 42 48 52 47 43 48 47 44 43 47 51 57 56 65 86
72 88 88 88 85 83 83 83 78 75 74 71 83 92 98 99 70 81 84 86 98 97 61 93 80 75 68 64 66 70 76 78 73 93 85 61 53 48 45 56 50 53 73 72 83 88 65
79 87 86 88 84 83 82 81 78 80 75 79 92 81 90 83 73 92 91 96 98 77 65 52 68 69 76 65 66 62 68 80 56 54 64 74 76 53 55 61 58 60 65 66 61 37 34
78 86 87 84 83 82 81 80 76 71 76 84 86 94 88 83 90 66 96 96 94 56 58 63 70 91 83 59 60 66 66 65 55 53 76 69 71 47 52 49 49 64 86 54 70 55 63
80 85 82 80 82 83 80 82 72 73 81 90 99 93 75 78 90 88 98 100 60 48 51 54 69 57 74 71 69 65 71 49 54 45 42 63 79 49 52 50 51 55 47 80 90 82 59
89 86 85 76 82 84 80 81 72 77 88 97 100 97 86 90 83 94 99 94 63 46 44 50 55 57 55 64 58 63 61 51 44 45 46 57 62 64 60 72 62 68 76 67 54 60 62
87 86 81 80 81 81 79 79 74 84 98 99 92 99 99 72 98 99 100 84 54 54 55 53 44 45 51 52 60 56 54 48 42 44 59 52 67 80 56 39 38 42 58 58 86 59 62
84 89 82 77 81 82 79 80 77 89 97 99 96 96 98 97 99 100 94 80 58 62 58 55 59 47 45 52 63 53 51 50 46 50 51 52 77 78 63 57 42 56 50 47 56 80 95
85 84 84 81 82 79 79 81 79 87 96 86 95 100 87 75 77 75 96 82 72 63 59 51 54 46 50 54 51 57 58 58 50 48 62 48 61 67 59 62 52 89 60 57 96 97 71
82 84 78 74 80 79 80 84 80 86 88 88 90 94 80 94 73 58 63 69 72 64 57 52 58 52 52 62 62 66 56 61 60 57 55 56 80 60 56 51 54 65 71 73 97 96 98
79 78 76 72 82 82 82 84 80 87 86 85 98 96 82 65 59 55 64 67 80 66 53 59 55 55 52 55 54 63 63 64 64 63 66 68 87 96 89 63 61 83 66 73 96 96 97
86 84 77 76 80 84 82 85 78 86 94 92 86 84 94 78 59 67 60 55 55 53 57 52 52 56 61 56 51 52 59 54 51 70 71 73 96 94 84 62 62 86 89 91 90 81 89
83 81 81 79 82 86 82 86 78 86 95 100 93 98 96 82 65 59 52 52 53 52 64 58 52 56 68 56 59 59 64 73 73 61 59 72 88 96 100 72 89 56 46 53 70 82 83
78 76 79 84 86 85 83 86 78 84 94 99 99 99 97 77 58 56 57 53 53 59 60 60 60 58 61 67 88 76 79 83 72 68 59 55 71 99 92 76 56 46 48 56 71 91 85
77 76 77 83 86 85 87 83 79 81 91 92 97 99 99 99 74 51 62 54 61 59 65 67 77 77 83 90 96 81 69 50 72 93 61 54 58 99 75 93 72 42 41 48 70 74 79
78 76 74 79 86 87 83 80 78 80 89 89 94 99 99 100 66 61 59 60 54 61 82 88 93 97 88 91 100 81 62 51 68 72 89 91 100 99 97 96 63 38 42 47 60 58 54
80 79 76 75 74 75 75 75 76 80 84 85 85 99 99 99 82 74 63 61 66 65 80 87 90 94 96 99 96 66 53 49 53 49 61 71 84 98 99 100 87 44 43 57 52 50 49
82 81 79 76 75 74 72 72 78 76 77 82 91 83 96 99 91 83 78 76 70 68 79 78 82 83 81 95 94 72 62 57 50 58 53 65 50 84 76 62 38 39 47 45 52 55 56

GFSGBSN_925_rhum_042.txt.gz
RH
70 71 77 70 71 67 68 71 73 74 73 73 68 66 70 74 88 87 87 95 100 95 97 96 74 75 72 76 65 71 68 79 85 77 73 59 50 47 50 40 38 42 39 33 31 34 35
75 70 93 67 76 75 75 74 74 79 76 74 73 71 64 76 84 90 87 92 100 99 94 96 68 77 80 70 50 58 54 54 61 72 76 65 47 42 49 44 40 36 38 38 34 33 36
80 80 72 75 70 77 77 76 82 82 77 74 74 72 73 73 79 89 90 89 99 98 96 96 72 82 60 55 40 52 51 50 52 54 73 68 55 53 47 53 47 41 55 47 43 40 41
73 81 73 73 79 78 80 74 82 77 78 80 75 72 74 75 84 88 91 90 95 100 97 96 87 75 67 52 48 49 50 51 56 58 59 68 63 56 61 47 46 55 56 71 40 39 36
80 79 70 82 83 73 77 80 89 85 77 74 77 79 80 84 82 76 92 93 90 97 99 90 84 70 61 50 49 46 46 48 50 54 66 63 58 65 60 66 65 53 63 56 44 35 34
70 82 75 80 79 86 87 88 88 81 75 76 83 84 83 71 88 84 79 89 87 93 98 88 68 72 54 54 42 42 43 45 46 55 69 73 73 78 70 75 80 57 58 51 46 37 37
78 90 88 76 74 88 86 88 85 72 81 82 84 77 82 86 91 90 92 82 89 91 95 81 69 52 49 44 45 43 44 45 42 56 67 60 75 84 71 62 56 45 45 46 39 30 37
94 77 67 74 77 76 82 83 84 83 82 82 83 73 82 87 94 93 95 78 85 95 98 82 55 47 46 47 54 46 45 54 56 68 52 64 74 48 41 39 44 46 51 53 43 34 36
72 80 74 75 84 81 80 84 82 82 82 78 80 74 84 91 82 92 82 74 72 92 96 82 57 52 53 44 53 55 45 47 58 65 65 66 49 42 49 47 52 54 58 54 50 41 39
87 86 73 88 88 86 84 83 83 81 78 81 75 77 83 91 99 94 76 66 73 85 100 98 75 58 56 50 56 43 40 42 50 61 58 61 46 42 50 53 50 62 43 44 45 54 67
84 71 86 87 86 87 83 81 81 81 80 80 77 78 82 92 98 88 71 69 82 90 96 94 75 49 53 54 57 55 42 44 51 50 51 60 50 54 56 48 43 51 47 51 52 62 69
82 73 87 86 86 83 83 82 82 82 81 81 78 83 89 91 87 81 75 79 80 97 95 99 77 72 74 57 57 52 52 48 44 45 45 50 42 46 49 42 42 47 50 56 59 68 93
81 78 86 82 78 82 81 82 82 75 72 75 85 90 96 97 81 81 83 83 95 97 94 98 83 68 66 68 70 64 73 71 77 89 91 62 58 46 46 53 47 49 62 94 98 93 91
73 86 85 85 78 80 82 78 80 69 73 81 93 97 92 88 90 78 87 95 92 66 100 56 72 67 72 62 71 69 76 78 61 59 78 76 76 56 51 58 59 60 68 94 86 77 70
74 90 87 83 75 82 79 75 74 72 80 89 94 92 87 86 92 65 95 97 79 71 58 77 73 86 79 63 65 72 74 69 59 55 75 67 73 45 53 49 54 64 86 58 78 64 86
75 90 87 82 82 81 79 77 76 80 94 98 99 92 85 85 79 75 99 98 97 51 52 60 78 60 85 70 72 71 70 52 52 46 46 66 78 51 52 46 49 54 49 85 94 96 85
79 85 88 82 79 82 79 75 77 88 98 98 94 95 88 80 73 93 100 100 84 46 49 52 57 55 56 66 62 63 60 49 44 46 45 53 66 66 63 75 73 68 72 64 64 73 91
76 83 84 86 84 86 77 80 78 92 98 83 87 98 86 76 97 100 97 98 64 60 49 45 44 45 52 52 62 56 60 50 41 44 57 49 70 87 71 48 51 53 62 64 82 74 77
79 86 75 79 76 86 77 83 79 92 100 93 97 93 83 96 96 99 96 87 58 61 55 52 48 42 43 55 66 52 55 50 45 47 55 55 80 92 66 60 46 61 55 56 63 77 90
84 79 76 75 76 86 79 84 80 92 100 84 92 99 94 96 86 99 96 81 79 64 54 49 49 44 46 55 49 57 61 55 49 49 55 50 66 80 90 73 70 84 65 56 74 98 78
81 86 82 78 75 83 81 85 80 88 87 96 94 83 75 90 83 91 76 74 69 66 55 48 53 48 48 58 58 56 56 67 56 59 52 56 85 70 67 58 59 67 69 67 99 96 98
84 83 82 80 77 84 82 86 80 89 84 83 96 99 86 64 55 69 75 68 64 57 54 55 57 51 50 55 58 59 58 62 70 64 62 59 97 96 90 65 69 80 70 70 71 76 91
83 77 77 78 85 85 82 87 80 90 91 92 88 87 98 71 62 64 61 64 64 56 59 50 52 58 60 64 53 54 56 51 54 68 67 74 93 95 85 71 77 89 75 75 86 84 84
79 76 76 76 84 85 86 86 82 84 94 97 94 98 96 80 66 59 50 50 55 57 62 55 50 56 68 54 57 57 63 66 68 61 58 75 93 97 94 89 95 63 61 58 65 63 83
78 77 76 74 83 87 88 84 81 82 90 94 100 99 97 97 62 55 57 51 58 58 56 57 67 68 62 66 80 71 82 77 73 74 70 63 86 97 96 85 62 52 54 56 62 78 77
82 78 77 75 74 80 82 80 80 80 88 88 100 98 99 100 69 47 54 50 57 61 68 78 79 75 77 85 89 75 82 66 82 89 68 62 66 98 97 97 84 49 49 54 72 91 68
83 80 80 78 76 74 73 74 76 83 82 84 97 94 99 95 78 56 63 61 56 60 86 84 89 88 80 93 89 81 71 50 75 87 99 98 99 99 97 96 75 47 51 57 76 79 64
85 82 81 80 78 76 74 73 74 80 78 83 88 97 97 98 91 74 67 66 63 68 80 91 92 93 92 97 95 86 63 59 57 68 80 87 97 98 86 95 93 45 51 66 66 60 60
87 83 83 81 80 78 77 75 73 75 77 82 88 84 90 99 94 86 77 74 73 71 81 81 82 83 85 93 95 89 83 62 65 62 53 70 62 82 79 77 54 48 49 60 61 65 66

GFSGBSN_925_rhum_048.txt.gz
RH
86 98 80 77 78 70 82 86 92 90 90 93 92 90 86 82 75 75 71 70 73 85 87 90 99 92 90 89 78 55 70 75 78 81 75 74 84 68 70 65 59 60 53 46 45 47 41
88 80 75 78 81 84 86 72 79 88 92 88 80 81 85 86 81 81 80 76 81 87 88 95 95 91 93 92 54 53 68 75 80 82 82 79 76 66 56 55 61 49 50 47 45 46 45
82 72 73 90 77 68 70 74 82 82 84 81 79 86 88 85 85 89 81 84 86 84 86 90 91 92 90 71 50 58 64 71 74 78 79 77 71 57 58 58 52 49 56 54 51 48 49
77 82 95 77 70 76 91 85 86 82 81 83 85 87 86 86 88 89 88 89 85 88 90 90 92 97 79 56 48 56 55 60 58 71 69 66 70 61 60 52 53 58 62 69 51 46 45
82 83 71 79 75 80 89 90 90 82 80 83 85 89 84 86 92 90 92 89 91 87 86 85 95 85 72 51 60 46 52 52 65 71 72 79 76 79 61 72 74 65 78 76 66 51 50
86 73 83 83 75 88 87 84 81 77 76 82 85 81 81 82 87 92 78 86 57 86 87 90 98 88 71 64 55 48 46 54 71 80 83 86 96 95 87 78 88 82 78 69 66 47 49
74 81 91 74 89 82 75 76 72 75 79 82 79 81 82 84 83 90 92 79 81 91 83 84 84 75 60 52 52 50 48 52 75 78 93 86 93 95 90 74 64 59 66 63 52 42 45
87 84 82 86 82 80 75 75 78 81 79 79 81 85 85 86 85 90 82 95 76 84 85 78 83 77 60 49 63 54 45 68 84 90 83 90 89 74 77 76 79 74 71 69 55 45 44
86 84 74 87 84 84 81 82 83 76 83 85 76 76 85 88 87 88 92 88 78 68 96 81 78 79 54 48 60 61 52 59 76 81 72 80 57 56 61 68 73 63 64 62 63 54 46
87 70 79 88 86 84 82 80 83 73 82 74 75 77 80 87 78 90 86 81 83 72 98 94 93 79 64 57 67 49 51 52 64 74 63 64 52 55 64 63 56 66 52 55 59 62 76
87 77 82 88 89 88 82 79 75 75 72 79 89 89 90 94 90 92 78 80 81 79 96 92 93 66 59 70 66 61 47 48 67 65 64 69 64 56 60 59 52 61 53 57 61 74 74
83 80 81 90 90 87 81 82 76 69 78 88 93 96 99 96 94 80 81 86 84 94 95 100 95 91 80 65 63 61 56 47 48 58 58 57 47 52 53 50 49 53 57 68 73 80 93
83 83 79 91 88 86 84 84 72 78 87 94 99 99 99 95 84 82 92 85 88 96 98 100 97 79 75 74 75 68 71 70 75 91 95 64 62 49 49 62 53 58 73 93 91 95 85
74 82 85 77 80 75 88 77 77 81 92 93 82 78 87 88 82 85 84 92 90 87 88 89 76 75 91 72 75 74 75 81 66 72 88 87 86 62 52 60 69 67 71 88 79 96 88
74 81 80 80 73 78 87 76 79 83 95 89 70 75 92 100 91 81 89 98 97 98 99 85 74 87 98 86 81 72 73 78 68 64 79 85 75 56 56 52 57 69 83 65 84 82 96
80 79 84 71 77 76 87 79 79 91 97 88 70 81 97 80 86 77 100 98 99 94 79 71 97 83 99 91 91 76 74 64 61 58 57 68 86 60 57 53 53 57 62 89 93 83 88
78 82 84 86 86 80 86 82 81 99 91 73 71 91 82 78 67 91 99 100 99 72 70 65 83 72 79 81 78 76 71 62 54 57 52 56 74 83 62 70 78 75 82 70 77 81 93
81 84 79 80 86 86 85 85 83 97 90 70 84 96 77 80 95 98 100 100 90 84 66 68 54 58 70 73 75 66 76 60 50 52 66 56 77 95 85 60 59 64 71 69 90 72 92
81 85 76 77 85 86 85 88 84 94 98 85 90 93 83 84 99 100 99 95 89 85 80 56 55 50 56 66 71 66 62 57 48 50 61 59 79 90 76 70 67 78 70 67 71 84 96
82 84 76 75 82 84 88 88 85 92 94 81 91 94 93 95 88 97 98 94 87 66 59 51 53 50 54 59 60 78 70 62 55 57 58 56 76 75 87 72 79 84 76 74 79 99 89
84 85 77 75 77 85 89 88 85 90 83 81 95 93 91 98 96 90 85 93 75 75 63 54 54 49 55 67 67 77 72 66 63 58 58 62 83 80 80 76 73 74 75 76 88 74 92
88 85 77 76 76 80 86 86 84 90 79 80 96 97 83 94 76 83 86 82 76 72 68 65 71 66 62 70 67 73 74 72 70 65 66 68 91 97 95 73 79 86 78 78 77 73 75
88 91 78 78 78 77 77 81 83 87 83 93 88 90 96 83 79 77 74 66 70 61 64 64 70 77 84 80 70 71 58 62 66 73 72 71 84 98 88 74 84 93 82 76 76 77 70
86 93 81 80 78 78 77 77 80 86 86 96 99 99 94 92 80 71 66 69 69 66 71 77 78 78 73 60 61 63 74 76 67 62 62 81 88 95 96 82 94 62 54 60 69 66 73
85 94 85 81 80 79 77 76 77 82 85 81 90 99 98 89 93 69 64 71 66 70 82 90 87 82 75 72 83 84 84 73 74 73 68 71 78 98 93 97 74 59 59 57 70 75 71
85 92 91 80 83 80 78 76 77 76 82 80 100 90 99 96 88 86 66 58 78 76 71 85 80 79 73 83 75 88 93 81 97 90 76 74 73 88 98 98 86 56 49 54 60 86 68
87 90 95 76 84 80 76 74 77 74 76 82 81 92 97 100 88 86 68 63 59 72 82 86 83 79 76 87 90 80 87 68 94 90 96 97 98 97 92 96 80 58 52 67 77 70 64
88 93 94 79 75 79 75 76 70 73 72 79 79 95 92 98 94 80 83 76 67 70 76 89 83 85 91 94 91 85 93 70 77 78 75 82 92 96 93 97 94 46 61 71 65 65 63
90 92 95 81 79 86 75 72 75 73 73 74 80 83 92 98 92 87 83 80 82 72 84 86 80 87 84 88 93 93 92 89 78 90 78 91 81 90 83 76 53 50 58 61 66 71 67

GFSGBSN_925_rhum_051.txt.gz
RH
85 82 74 74 90 78 70 71 76 80 84 79 80 83 88 91 89 86 83 79 77 74 70 86 90 97 99 95 76 51 69 83 74 74 82 86 80 74 77 71 61 63 56 51 47 48 46
87 80 87 93 74 73 76 88 91 89 85 81 81 83 85 86 89 86 86 88 84 80 86 88 89 99 98 86 49 40 46 83 76 87 82 76 80 66 64 61 68 56 55 52 47 46 46
69 80 82 69 84 78 78 90 90 90 86 84 80 85 85 89 87 86 88 86 86 84 89 85 88 99 95 67 49 54 53 78 78 84 86 70 67 68 62 59 52 51 57 55 54 49 51
78 86 69 81 81 77 88 87 83 84 80 75 79 85 83 85 84 88 90 89 88 88 78 87 86 93 93 62 52 63 75 74 74 74 72 73 70 62 61 53 57 63 62 73 51 51 48
87 77 80 86 77 88 82 74 71 72 73 79 83 83 81 82 84 90 92 96 89 86 88 87 86 86 85 60 63 53 55 57 65 75 76 64 71 77 62 71 76 66 85 77 62 50 48
81 85 82 74 84 83 83 83 71 78 82 80 77 78 84 84 85 88 88 88 73 84 83 79 85 90 82 69 54 48 50 61 82 82 91 88 85 94 85 82 90 87 75 72 69 49 55
83 81 84 76 84 88 84 80 79 85 75 87 89 88 85 87 85 86 92 68 80 80 88 80 83 84 69 57 50 51 48 62 89 87 96 96 94 95 79 75 63 68 68 68 57 45 47
85 85 76 79 83 88 83 84 82 84 72 87 78 73 77 80 88 89 91 86 84 83 80 72 80 80 76 72 65 58 49 72 90 91 92 92 92 80 86 83 77 76 75 73 60 49 47
85 82 76 82 84 90 87 82 80 75 80 71 73 85 80 81 88 87 86 88 72 73 86 85 75 83 80 56 68 71 55 71 80 84 76 80 66 82 82 91 91 82 72 64 63 55 50
85 76 75 84 89 90 88 81 86 78 66 75 87 91 94 96 91 92 79 78 79 77 95 97 91 84 80 58 70 52 49 62 77 80 70 61 51 72 70 76 66 71 54 57 61 62 75
82 78 76 88 91 87 82 86 81 68 81 90 93 97 99 98 95 92 73 79 84 83 93 83 92 72 68 67 67 65 49 50 71 66 62 69 60 67 70 65 54 63 54 59 64 75 70
84 77 82 79 70 76 81 86 72 80 85 92 99 98 97 88 87 87 78 83 85 96 96 99 94 94 78 68 68 68 60 48 50 62 59 59 50 51 52 57 52 57 58 69 79 77 89
80 77 81 80 76 75 76 84 75 80 90 95 88 91 89 94 90 81 82 88 88 95 97 100 97 72 74 76 81 78 72 67 86 98 97 66 66 50 52 64 56 60 71 89 83 91 79
80 79 80 89 78 81 76 80 79 88 98 88 78 90 99 95 87 82 81 94 89 80 96 94 78 74 97 73 86 75 74 93 66 73 90 90 92 61 52 60 69 64 68 85 68 88 87
80 80 84 80 86 79 83 79 82 94 92 66 66 80 91 95 90 75 94 98 96 97 99 93 79 93 100 86 90 92 76 75 67 61 79 84 78 58 54 55 57 73 84 64 85 83 93
81 82 86 76 81 86 83 82 84 96 94 68 65 81 84 79 75 77 98 97 100 97 74 74 93 92 86 93 90 89 72 63 60 59 57 64 87 62 58 52 60 59 64 83 92 66 75
84 83 82 79 82 86 85 86 84 95 99 76 73 91 68 70 72 93 98 100 96 70 73 71 85 80 85 84 80 72 73 63 55 60 53 62 76 83 60 68 78 75 85 80 80 77 87
85 83 80 79 81 84 88 88 85 97 99 67 83 97 73 78 95 93 100 100 93 85 74 72 60 67 73 72 74 71 74 64 54 56 64 59 81 89 76 62 61 65 71 72 86 76 94
85 85 80 80 79 85 89 88 86 95 100 94 90 95 77 86 98 99 98 94 87 84 88 60 58 52 60 68 71 68 65 56 58 56 64 58 79 92 81 69 68 76 72 69 74 84 98
85 90 82 80 79 80 83 86 87 94 94 94 91 94 90 93 89 97 96 93 86 72 62 52 57 54 57 64 69 77 69 68 55 53 59 58 74 73 86 68 82 90 81 75 79 96 88
87 90 82 81 80 80 80 83 87 91 81 91 94 95 98 96 87 84 84 86 79 81 60 57 54 52 59 71 71 79 71 65 63 61 61 61 82 82 79 74 75 77 75 84 85 76 89
90 93 85 82 81 81 80 81 85 89 78 77 90 94 90 91 79 89 80 79 79 75 69 66 76 71 69 73 71 79 74 69 63 62 67 67 96 96 93 72 84 92 80 80 81 76 78
88 90 92 81 82 81 80 80 82 87 81 93 89 87 95 82 87 82 81 69 73 65 70 76 72 78 86 82 73 61 55 62 62 70 75 72 88 97 87 76 84 89 84 78 74 75 66
88 89 94 83 82 82 80 79 79 82 86 89 95 97 89 90 87 77 70 71 74 67 77 86 80 77 76 62 62 63 73 74 66 63 64 79 88 92 98 81 95 59 61 64 67 61 66
88 86 95 86 83 83 80 78 78 78 82 79 88 99 96 86 95 76 70 72 68 77 87 89 87 82 80 68 81 81 79 72 73 69 66 65 82 98 94 92 76 62 65 70 74 73 69
89 87 91 93 79 86 78 78 76 76 76 78 89 95 98 98 89 84 83 64 78 79 76 88 79 78 70 85 80 85 91 81 94 90 74 69 74 91 98 96 90 54 53 58 61 82 67
90 90 92 97 79 81 82 77 76 72 74 77 78 87 98 100 89 89 88 71 68 77 83 84 80 76 72 86 84 86 82 75 90 88 98 100 99 93 90 97 83 57 52 64 73 70 64
92 92 93 97 82 86 73 77 75 73 73 75 76 93 98 98 93 83 86 91 73 75 82 89 80 85 90 92 89 87 92 72 82 76 85 88 91 93 87 97 93 50 69 70 65 67 64
92 93 90 96 82 84 81 73 78 80 71 75 76 85 91 99 94 85 81 79 83 82 82 87 77 83 82 86 90 90 94 91 83 98 74 89 75 84 82 77 52 47 55 58 68 71 65

GFSGBSN_925_rhum_054.txt.gz
RH
89 69 79 80 71 85 80 80 88 91 90 86 85 87 82 82 84 84 86 88 82 80 84 82 82 89 97 98 78 62 67 75 78 76 80 86 76 72 75 74 64 66 58 57 52 51 49
86 79 86 70 85 80 77 87 88 83 83 83 84 78 82 82 84 87 85 87 85 82 81 83 86 88 99 98 60 58 46 60 76 79 81 84 78 64 68 69 67 61 58 55 51 49 47
74 86 78 78 78 80 85 87 81 72 73 74 77 84 82 82 82 82 82 88 84 85 85 83 84 85 96 78 60 62 58 66 73 82 82 85 67 68 63 63 59 56 60 56 58 52 53
82 76 79 78 74 82 86 84 82 83 77 82 84 79 78 78 81 81 86 88 88 82 88 88 82 88 91 71 65 62 75 82 76 85 77 77 64 66 60 55 61 67 61 77 55 57 51
85 80 78 83 73 83 88 88 83 82 84 83 84 88 87 88 84 82 88 93 92 89 84 84 80 79 87 73 80 65 57 86 80 86 72 66 68 74 62 74 80 72 89 82 65 54 50
84 81 82 83 79 84 89 89 86 82 82 80 87 91 80 76 81 87 89 84 72 85 82 77 66 90 79 74 75 54 54 74 80 85 82 79 86 90 88 76 83 72 74 76 75 50 58
83 82 86 75 81 89 89 88 80 80 83 83 81 77 78 76 80 90 90 69 80 73 77 78 80 82 74 77 73 58 52 74 88 84 98 90 92 95 84 75 65 71 74 72 62 48 48
84 81 77 84 78 92 85 87 84 86 83 69 70 74 83 92 83 88 86 88 80 76 80 76 76 80 81 89 72 69 51 77 88 96 97 99 96 81 69 68 72 72 78 76 63 51 49
83 84 74 84 80 71 82 80 84 79 68 79 89 93 96 98 91 93 85 80 72 75 82 79 83 83 86 88 67 68 57 77 82 92 92 92 92 89 85 88 85 82 78 70 67 56 53
82 80 73 86 78 81 74 80 84 71 85 90 94 99 96 96 93 91 82 81 77 79 93 94 93 86 87 84 74 54 58 77 86 85 74 71 77 90 88 88 88 98 61 57 59 63 79
84 80 77 80 94 72 74 78 75 79 89 95 99 97 92 87 86 90 81 81 80 78 91 83 92 84 86 78 70 63 55 55 73 87 74 86 82 80 89 83 86 66 56 61 64 74 68
87 80 78 86 83 88 78 76 78 88 93 94 88 93 85 80 89 88 84 80 80 91 96 99 93 93 88 71 77 68 72 54 57 60 59 62 51 51 55 61 52 60 62 69 78 74 85
85 82 86 88 76 82 82 80 83 92 97 80 85 92 83 94 93 84 79 82 89 94 98 100 99 84 78 82 81 77 80 75 93 96 89 70 66 52 54 66 56 59 69 85 74 87 74
84 82 85 79 79 81 82 84 84 92 96 77 84 91 94 91 81 86 75 93 95 92 97 96 81 79 96 79 86 89 80 84 64 74 91 93 93 60 54 60 69 68 66 82 59 80 80
83 83 93 78 78 78 82 82 85 95 83 70 65 75 80 85 85 77 92 96 98 99 100 92 74 92 92 95 87 95 84 77 65 61 79 85 83 58 55 57 56 71 85 64 87 80 94
84 86 90 81 79 83 85 86 86 97 95 68 68 77 74 73 73 76 92 98 100 96 74 72 90 86 92 99 91 92 86 63 65 60 55 63 90 64 60 56 62 60 65 80 91 64 64
86 87 82 82 81 83 86 88 86 97 100 66 72 89 65 75 74 91 98 100 96 75 76 72 88 86 87 86 80 76 72 65 54 60 58 63 75 81 62 67 78 74 88 80 77 75 78
86 87 85 83 82 82 83 88 87 97 100 74 84 93 63 76 94 100 100 100 85 83 78 59 62 69 74 72 73 69 72 62 54 55 63 60 78 80 74 63 61 63 72 72 84 79 93
87 87 87 84 83 84 83 85 88 94 99 97 93 93 69 79 99 99 96 90 89 84 85 57 57 57 61 67 72 68 64 58 58 55 63 60 78 93 80 68 67 77 73 69 74 82 98
89 89 90 84 84 84 84 85 87 94 95 96 92 96 90 90 86 95 90 91 88 76 68 55 59 54 58 69 72 76 70 71 59 53 59 57 72 70 82 67 82 92 82 73 77 90 85
91 92 94 85 85 83 84 84 86 84 80 90 94 94 96 97 87 91 86 82 80 82 62 59 56 56 62 75 73 80 71 66 65 67 62 62 86 90 78 70 75 78 75 86 82 79 85
90 88 92 90 86 83 83 83 84 87 75 80 86 97 86 92 79 83 82 81 81 78 76 69 82 79 72 74 68 80 73 67 64 62 67 67 98 90 92 72 83 93 82 82 84 78 80
90 89 90 92 86 85 83 82 82 86 74 94 88 87 96 84 90 81 83 78 76 68 75 79 71 82 84 85 75 61 59 63 62 70 75 72 90 94 88 78 83 88 84 79 81 78 68
91 90 89 95 87 86 83 81 81 81 82 82 94 100 88 91 90 85 81 74 86 76 82 89 79 78 76 64 64 65 73 72 67 70 64 76 84 89 98 83 96 56 58 64 68 60 67
91 90 88 92 91 87 84 80 79 79 79 74 91 99 98 86 93 80 85 73 71 79 88 86 85 81 80 68 80 78 78 71 76 73 69 61 81 96 90 81 77 60 75 74 73 68 68
90 91 89 91 97 84 84 81 79 78 77 70 93 89 98 95 89 85 96 70 79 82 78 83 78 80 69 85 82 80 88 79 93 91 74 71 74 85 98 82 95 54 53 60 60 78 62
91 92 90 93 97 86 84 85 77 78 74 75 77 82 96 100 91 92 97 77 72 78 82 86 80 76 70 85 84 84 80 77 91 95 99 99 100 87 92 88 83 61 53 62 86 70 64
90 92 93 93 96 90 88 83 78 74 78 71 74 88 98 99 92 83 84 88 81 81 85 80 78 82 89 86 80 87 92 84 86 78 89 84 97 93 92 96 94 53 68 75 63 65 64
96 94 94 92 92 97 84 82 89 78 80 76 72 79 79 99 96 93 88 83 89 88 87 87 72 79 82 87 89 87 94 90 85 97 75 88 72 80 79 75 54 51 58 54 68 68 62

GFSGBSN_925_rhum_057.txt.gz
RH
78 77 88 84 72 84 77 82 89 83 77 75 82 84 86 79 80 81 83 83 82 84 87 88 84 86 84 87 83 68 71 66 79 77 79 81 84 78 78 72 66 66 60 56 51 53 49
85 80 78 87 75 79 80 87 91 85 82 81 79 84 83 81 81 83 82 79 84 84 83 86 85 81 84 98 66 74 64 55 77 79 78 81 72 64 68 71 63 61 56 54 52 50 48
85 84 84 75 88 73 84 90 90 89 84 81 82 84 87 84 82 77 77 80 83 84 83 86 86 81 86 83 73 59 67 70 78 80 79 81 63 60 64 68 60 60 66 60 54 54 51
77 83 83 87 82 79 86 88 92 90 83 84 83 86 87 83 89 88 82 82 85 89 83 78 74 78 84 68 75 68 69 70 79 80 78 78 66 64 60 58 62 67 62 74 56 56 52
84 79 86 83 78 82 90 91 88 84 84 84 85 85 89 81 77 77 85 86 88 88 85 84 78 80 80 75 72 69 77 81 79 78 81 72 76 79 62 73 80 75 86 78 63 57 56
78 87 80 81 79 78 80 81 83 85 88 87 76 73 73 76 86 81 91 81 66 81 89 84 72 81 71 78 81 75 60 75 81 88 75 75 78 90 86 76 83 88 80 78 62 53 60
80 88 85 76 79 79 80 71 76 93 76 74 80 85 87 88 90 87 88 69 76 72 76 74 73 79 78 84 78 70 58 80 77 76 85 81 92 90 85 71 62 64 73 73 66 50 51
85 85 79 76 78 84 78 65 78 80 77 89 93 95 96 97 95 84 90 86 77 74 69 75 70 70 79 86 89 73 67 77 87 90 86 97 93 72 71 66 66 68 76 76 63 52 51
89 79 78 78 81 89 86 74 84 82 90 95 98 90 94 87 99 90 88 76 73 70 71 81 79 81 89 74 82 73 75 83 85 88 90 96 82 74 72 76 76 77 78 74 68 56 54
88 82 78 80 86 79 79 82 86 86 96 96 95 96 90 81 82 92 84 83 81 80 90 95 93 85 87 79 87 57 72 79 90 93 88 93 88 84 89 82 75 93 68 60 59 63 71
84 83 82 88 74 75 88 84 89 90 96 96 98 99 81 78 85 86 84 82 81 74 92 91 90 90 88 86 74 67 60 59 86 88 89 96 96 92 95 93 77 90 57 61 63 70 63
86 83 84 88 80 78 83 84 91 93 95 94 96 98 80 88 89 92 85 82 76 84 96 99 92 95 92 81 76 71 77 59 66 78 66 70 68 70 70 85 77 68 61 68 72 70 75
86 83 84 83 80 80 78 86 88 95 96 97 76 89 81 89 98 92 82 80 89 93 93 99 99 90 85 84 80 81 87 83 94 99 99 81 67 55 55 64 54 58 71 86 68 83 70
86 86 88 80 81 81 78 86 86 95 100 69 64 78 77 81 83 86 80 89 89 91 99 96 87 84 96 85 87 85 94 86 67 74 89 91 92 64 55 61 68 67 66 83 55 65 62
87 86 87 82 81 82 82 84 87 94 100 70 62 64 70 72 73 75 90 96 100 99 99 93 87 94 97 89 86 90 86 78 69 64 79 84 91 58 60 58 57 68 80 61 85 81 84
88 86 88 84 83 84 84 85 88 96 99 90 67 71 65 74 78 76 94 98 100 96 72 70 89 82 96 93 98 87 85 65 68 62 56 65 94 67 62 56 61 60 63 78 85 76 55
89 86 88 85 85 85 86 86 88 97 99 82 69 85 59 76 72 92 99 100 95 77 72 72 88 87 87 85 78 79 74 65 56 60 58 64 74 82 63 69 76 74 82 77 71 69 61
90 85 86 83 87 86 86 86 89 95 98 81 83 89 55 69 95 92 96 96 85 82 76 59 65 71 75 74 71 71 69 63 54 54 65 63 78 90 74 64 62 62 73 67 75 76 88
91 88 89 83 84 86 87 86 86 95 100 96 93 93 59 72 97 98 88 86 88 86 79 58 58 60 63 67 72 67 66 63 56 53 61 59 78 94 86 69 66 78 73 66 69 79 97
94 90 88 93 84 86 86 87 86 94 95 88 92 95 90 92 87 94 91 87 82 73 65 56 60 55 61 74 72 74 72 72 60 53 60 55 73 68 80 68 80 92 83 71 76 89 82
95 91 90 92 83 87 86 86 85 81 78 82 92 94 92 98 90 88 85 82 80 84 71 64 61 58 64 77 74 80 73 69 67 66 63 61 84 89 76 69 76 77 80 79 81 77 82
94 92 90 94 84 88 88 85 85 82 72 80 88 94 86 96 80 78 82 80 84 82 88 75 81 80 66 71 64 80 74 70 68 64 64 68 94 93 87 74 84 93 82 83 78 75 75
93 92 91 91 94 86 87 84 84 82 71 91 91 88 95 84 86 82 83 81 74 72 75 82 74 80 84 84 78 64 63 64 62 70 73 74 94 90 87 82 81 92 83 80 82 79 69
93 93 92 89 96 87 88 82 82 82 76 83 93 99 94 93 90 83 83 79 88 80 80 86 81 75 74 68 66 65 74 73 70 72 64 75 80 88 93 82 92 51 61 67 69 63 70
91 91 92 91 91 96 88 85 83 81 80 66 98 99 98 90 91 86 84 76 72 79 88 83 84 81 77 67 76 70 75 69 79 78 68 60 78 95 90 77 70 67 76 73 72 67 63
90 91 91 90 93 97 87 87 83 79 80 70 89 83 98 100 90 85 98 82 81 84 81 80 76 82 69 85 80 76 86 77 89 92 73 70 70 82 96 86 89 55 55 62 60 78 57
88 91 94 90 93 96 90 91 85 78 76 73 74 84 98 100 88 90 89 91 75 79 83 87 82 79 67 85 82 82 82 75 87 95 86 95 96 87 96 91 72 59 52 58 90 73 60
87 91 93 94 94 94 97 88 88 84 79 80 70 82 91 99 90 84 82 91 92 84 86 79 80 79 90 82 78 84 89 86 85 78 83 80 92 83 87 86 87 53 68 78 66 63 63
87 83 96 95 96 93 94 96 85 86 81 82 74 72 74 92 95 96 92 86 88 88 92 89 70 80 82 88 88 85 94 96 88 95 75 91 77 81 73 71 51 51 61 52 61 65 62

GFSGBSN_925_rhum_060.txt.gz
RH
81 87 83 84 82 86 75 80 92 91 91 85 80 81 85 82 81 79 82 83 79 77 82 85 86 87 83 70 59 75 74 84 84 76 68 61 66 67 70 59 53 50 45 41 39 44 42
86 74 82 83 85 77 81 87 94 93 90 86 85 85 85 82 85 84 79 75 78 84 89 82 84 86 78 84 46 51 81 70 70 78 67 65 57 53 58 57 54 46 44 42 38 41 41
89 84 85 75 85 82 82 91 84 86 84 86 86 87 88 86 77 83 87 84 76 80 87 84 88 80 73 62 66 81 77 76 69 75 61 66 52 54 52 62 48 48 53 43 44 40 36
81 82 85 82 71 84 78 79 76 83 87 88 90 87 82 84 84 79 76 78 83 84 88 89 75 76 69 55 55 68 86 70 65 71 63 68 64 50 43 45 51 51 46 54 36 40 42
81 88 84 75 74 81 78 81 70 83 89 79 78 82 80 79 76 81 82 86 89 87 86 84 85 71 69 58 76 74 84 64 61 67 68 71 70 53 54 53 64 52 45 43 50 42 34
84 87 78 75 80 80 89 80 74 82 81 87 92 94 95 94 91 87 86 86 81 81 83 78 77 89 63 58 76 77 73 74 69 70 75 78 84 82 60 51 54 55 52 47 41 46 48
89 84 80 79 80 79 81 79 82 83 87 94 94 96 96 91 89 95 83 70 56 70 71 61 60 70 56 63 75 82 69 74 79 68 75 74 94 87 63 46 39 40 47 44 44 43 44
92 84 80 79 79 74 79 85 86 88 94 93 96 95 95 78 92 94 80 64 63 68 64 60 59 70 58 77 71 86 75 95 80 79 59 82 93 68 50 50 49 46 43 45 55 46 44
86 82 82 86 78 76 83 86 89 93 97 95 95 98 97 74 96 88 84 74 72 76 64 75 80 74 73 83 70 85 80 81 64 68 71 71 69 52 56 58 56 50 46 55 50 48 43
87 84 83 86 80 78 81 88 92 96 97 96 93 93 78 87 77 89 74 93 81 80 96 88 95 83 80 74 80 66 92 90 86 72 83 86 78 65 62 59 49 64 54 53 53 54 52
86 85 85 84 82 80 82 88 91 95 95 97 73 71 74 66 88 76 96 86 81 76 93 96 93 83 74 79 80 90 89 69 78 94 91 98 92 81 78 60 54 72 56 53 52 52 50
87 86 84 85 84 82 81 81 87 90 95 100 79 64 64 73 86 97 82 80 79 93 92 98 91 89 88 90 79 85 79 77 68 78 83 96 91 87 86 92 72 49 50 50 50 54 66
88 88 87 85 85 84 82 83 86 88 96 98 90 67 65 68 77 82 82 78 92 86 97 100 97 87 81 84 74 78 76 83 91 98 100 100 97 86 80 89 88 70 58 81 77 80 59
90 87 86 87 85 85 84 84 87 90 99 99 82 68 68 71 76 78 78 83 86 95 100 95 83 88 96 74 88 92 73 70 58 62 94 92 96 90 76 60 67 59 58 69 54 43 41
89 87 88 87 86 86 86 86 87 91 98 100 70 63 70 77 81 82 78 97 99 100 99 80 65 71 75 72 83 93 68 67 61 51 68 78 89 55 55 52 49 62 72 49 65 62 56
91 88 86 87 87 88 88 86 87 90 98 99 79 76 70 73 77 78 88 94 98 92 69 60 76 68 65 71 68 66 68 58 58 52 45 60 90 62 56 50 51 53 48 67 79 66 47
91 88 88 89 86 90 89 88 87 92 99 89 81 69 60 67 72 76 99 99 81 64 64 61 68 66 65 65 63 63 63 58 50 52 44 50 59 80 56 63 61 60 64 59 48 48 44
92 90 89 95 87 90 90 88 87 93 98 90 80 78 58 65 87 90 98 92 78 69 60 54 55 60 60 59 58 57 54 54 47 45 51 54 62 77 67 56 52 52 54 47 55 63 64
93 92 89 95 88 89 90 88 87 90 99 98 81 78 57 80 91 87 74 72 75 65 59 52 54 53 54 56 62 57 56 57 48 47 48 49 70 84 76 66 60 66 58 54 53 63 84
94 93 90 92 95 89 91 88 87 86 91 92 79 82 77 74 76 76 71 73 67 64 56 51 53 49 52 57 54 60 61 60 54 51 58 45 57 57 54 65 66 85 69 57 80 85 56
95 94 92 92 94 88 91 88 86 81 75 82 82 85 81 84 72 71 73 70 69 69 61 53 51 50 51 57 58 61 62 60 59 61 52 48 70 70 62 61 65 68 71 67 82 68 85
92 94 93 92 96 85 91 87 86 77 71 78 86 86 74 76 68 68 74 71 72 74 74 61 57 63 54 51 51 59 58 54 53 56 53 58 93 86 82 66 68 81 65 66 67 61 62
88 95 94 92 92 94 87 86 86 81 68 85 93 87 89 76 70 68 70 72 68 68 74 65 61 59 62 66 64 56 49 46 48 54 58 58 81 81 71 68 69 81 72 65 63 59 56
84 94 89 95 91 97 86 88 86 83 70 83 99 99 86 83 76 68 74 72 77 74 66 69 64 59 60 57 54 48 49 53 52 57 50 60 68 75 74 69 82 50 53 52 56 50 52
84 92 90 90 92 95 93 87 84 82 78 72 95 98 95 88 74 69 74 76 71 72 74 72 75 69 60 59 60 62 65 62 70 64 57 51 61 80 76 66 50 52 62 60 64 64 48
89 91 91 93 93 95 95 90 82 82 79 73 82 82 94 98 75 73 88 82 72 70 71 73 74 70 62 67 63 71 75 64 78 80 62 60 60 63 79 85 61 55 52 53 51 69 54
85 89 91 94 94 94 96 94 87 86 79 78 71 70 95 95 71 77 82 83 70 69 69 73 71 72 62 69 69 70 71 60 73 75 75 80 80 80 71 74 50 38 43 46 84 68 54
92 80 90 93 96 96 95 97 90 88 85 79 78 72 86 84 76 76 75 79 87 75 70 74 71 72 75 75 63 64 63 67 71 61 67 65 74 78 69 78 73 44 64 76 63 55 53
93 80 82 85 97 96 94 94 96 86 84 85 86 76 80 76 68 85 81 85 81 76 92 79 68 66 60 66 69 66 69 86 69 79 65 68 52 60 56 49 39 44 53 48 54 49 52

GFSGBSN_925_rhum_063.txt.gz
RH
90 85 85 88 78 78 84 78 86 79 82 83 86 89 86 86 87 74 82 83 74 78 82 83 86 86 77 60 56 52 76 77 71 84 51 51 43 53 60 52 43 44 31 28 31 39 35
80 84 82 84 74 74 76 73 73 78 87 89 90 89 90 86 87 86 76 85 82 76 82 89 89 76 65 68 37 38 51 78 79 78 47 50 41 41 49 48 45 40 36 35 32 40 39
82 84 86 84 75 73 83 90 79 75 81 83 83 82 87 80 80 83 82 77 84 84 80 89 89 80 61 51 40 74 73 71 77 78 48 45 39 45 42 53 44 41 43 40 35 34 37
83 84 79 78 75 82 79 93 76 78 82 82 92 94 96 92 80 77 78 81 80 86 87 88 81 76 71 45 44 47 60 87 76 86 50 43 46 53 50 39 49 54 44 54 38 36 32
85 86 81 80 78 81 80 84 84 86 87 93 88 91 95 96 96 90 80 88 86 86 86 87 82 67 61 49 47 53 72 73 62 84 59 48 62 61 53 60 59 50 50 43 35 33 36
86 86 83 80 84 75 82 84 86 88 92 94 89 94 94 94 93 94 94 77 69 76 70 66 67 72 48 48 46 66 87 81 64 88 56 67 79 74 65 53 68 49 46 31 31 40 35
88 84 85 83 82 78 82 84 90 90 95 92 92 94 94 83 93 80 87 62 59 66 55 56 59 59 55 50 70 78 83 83 80 62 64 72 91 87 55 42 29 26 36 30 26 38 39
90 86 86 83 81 79 83 86 90 92 94 94 93 95 95 100 92 85 76 50 59 66 60 47 50 57 54 80 86 84 88 90 89 72 52 83 91 69 42 38 35 35 36 38 38 35 38
90 88 87 83 82 81 81 84 90 92 95 97 93 96 94 80 78 68 64 71 73 65 82 68 66 65 70 82 80 84 70 75 84 54 64 79 75 76 72 51 47 36 37 35 40 45 38
87 88 87 87 84 82 82 83 86 89 94 94 96 92 73 71 69 70 65 80 78 76 100 92 76 72 74 71 76 84 85 83 76 60 57 68 71 82 77 63 44 45 32 31 49 50 40
89 90 89 87 85 85 84 84 86 87 95 92 98 95 66 76 68 64 87 87 84 72 82 97 90 74 70 82 80 90 93 95 75 88 73 95 78 77 82 67 41 56 43 46 48 51 48
89 91 90 88 87 86 86 85 86 89 94 95 99 75 78 74 71 84 86 82 74 97 92 96 87 81 89 86 87 87 84 67 62 80 84 95 82 86 87 75 53 51 50 50 48 52 71
89 91 91 89 89 88 87 86 87 89 94 95 100 68 84 77 62 81 84 76 98 88 96 100 95 86 79 91 90 82 80 88 96 99 100 100 99 89 85 84 67 56 60 90 92 87 63
91 91 90 91 90 89 88 88 88 89 97 96 84 59 78 77 85 88 72 85 89 90 99 95 84 64 78 57 80 71 65 85 65 75 100 100 98 100 90 90 95 72 68 76 68 54 48
88 90 90 92 90 90 90 89 88 90 98 97 66 66 77 69 88 86 67 99 100 100 97 75 61 59 60 58 72 60 56 59 56 56 83 87 98 89 79 58 75 95 94 47 56 44 42
88 92 89 94 92 92 91 90 88 90 97 98 74 63 59 77 87 72 81 93 84 73 60 50 60 57 56 56 56 52 53 51 51 44 39 52 88 68 56 47 45 51 44 64 80 69 41
92 94 90 92 96 92 92 90 88 89 91 87 70 64 64 78 82 62 100 92 64 52 55 56 52 50 46 54 50 51 53 52 43 43 37 44 54 71 55 62 57 54 58 51 46 41 45
94 91 91 92 97 93 93 91 87 87 90 88 68 72 60 71 80 75 90 83 70 55 46 47 46 46 44 46 48 47 47 47 41 38 43 46 58 73 63 52 48 45 46 42 53 50 50
92 92 92 92 96 92 93 91 87 84 95 99 62 59 62 76 82 76 64 58 59 51 48 46 48 47 46 47 55 48 48 51 43 42 41 42 65 78 67 59 51 60 50 45 44 58 88
95 94 94 91 97 91 91 90 87 68 73 90 62 76 66 50 59 59 54 55 55 54 48 44 45 43 46 48 43 52 51 53 48 46 55 40 48 55 52 64 56 71 56 51 81 86 48
95 93 94 93 92 96 89 84 85 57 68 86 59 69 75 72 57 59 57 53 53 53 48 44 46 43 42 49 46 47 49 53 49 57 44 42 58 53 51 51 55 64 62 59 88 68 87
94 91 93 93 92 95 88 80 85 46 61 65 81 83 71 68 54 56 64 55 58 54 58 47 47 44 41 41 38 46 46 44 44 48 44 46 88 84 82 56 58 73 58 58 62 62 54
95 87 93 93 95 94 92 83 82 69 64 62 68 72 80 64 56 57 53 55 55 59 57 54 45 44 46 49 49 44 38 37 38 44 49 51 74 82 61 59 60 74 62 59 58 53 54
93 86 93 90 92 93 96 84 80 84 67 80 91 93 79 65 62 54 64 63 60 59 61 52 54 51 52 43 41 39 41 42 44 47 42 53 60 69 67 64 82 57 47 46 51 47 46
85 89 90 87 92 94 94 91 87 84 71 65 88 90 83 76 60 59 59 63 60 60 63 58 60 54 45 51 54 56 55 54 58 52 48 44 49 68 72 59 45 37 52 53 58 60 43
84 92 94 94 93 94 94 93 87 78 80 70 76 84 81 79 55 64 70 67 72 59 64 62 66 58 57 57 57 62 65 54 65 68 55 54 51 63 76 78 62 57 50 45 45 69 51
87 84 93 92 90 94 95 92 91 78 89 78 73 80 74 82 48 58 66 82 70 65 70 61 67 67 58 62 67 71 59 48 64 61 67 67 70 78 69 72 52 36 50 41 77 76 51
93 92 94 90 95 92 96 96 94 90 86 86 72 84 72 61 54 48 52 68 78 79 73 67 69 65 68 70 63 58 54 51 55 46 53 60 64 66 61 74 74 36 53 54 64 51 48
92 96 84 86 93 82 85 95 94 95 86 89 78 85 83 75 57 62 60 54 52 62 93 76 67 54 51 58 49 50 54 62 50 61 49 59 45 50 51 50 37 39 48 42 47 54 52

GFSGBSN_925_rhum_066.txt.gz
RH
82 82 84 86 80 75 80 90 95 80 76 80 82 87 89 89 86 85 84 84 85 78 79 74 70 85 78 65 56 43 57 56 76 88 63 57 48 58 71 59 46 52 40 31 28 38 36
84 84 82 80 78 79 85 80 81 83 84 83 88 90 91 93 92 80 84 78 86 85 87 79 85 83 73 73 40 35 43 52 77 84 70 48 48 39 49 53 54 42 41 34 32 41 34
83 86 82 82 78 76 84 84 86 86 87 89 87 84 89 92 97 82 77 78 76 79 84 84 89 80 67 58 38 61 64 59 74 77 71 49 43 38 46 53 48 42 47 43 35 44 43
85 86 85 83 83 77 84 82 85 89 88 88 82 88 90 89 97 94 83 80 85 86 90 88 82 74 76 50 48 44 54 56 58 89 74 47 41 54 48 48 57 62 49 61 41 40 41
87 87 84 82 81 78 85 83 87 89 91 88 87 87 90 94 93 91 90 85 88 86 84 85 79 72 60 42 48 44 41 64 64 72 81 61 46 67 55 76 75 67 73 62 49 38 38
88 88 87 84 83 80 79 88 87 89 90 94 93 93 96 96 92 86 78 63 75 69 70 64 62 74 54 46 40 41 57 77 74 73 81 72 70 80 74 83 87 73 68 47 46 40 40
89 89 86 85 82 81 80 82 88 90 92 95 94 93 91 96 91 71 79 73 64 67 53 56 55 58 49 57 49 54 79 78 86 93 97 80 86 88 76 65 51 42 47 47 36 36 44
90 90 88 85 84 82 82 82 85 90 90 94 95 93 93 72 71 69 64 54 63 63 69 44 46 49 58 80 77 76 85 88 91 96 78 86 87 60 52 56 53 45 44 44 33 40 42
91 91 89 88 85 85 84 83 85 88 91 95 98 96 94 71 70 62 65 72 71 69 94 71 68 73 90 84 85 86 83 85 84 96 70 74 68 56 53 52 56 43 44 39 43 44 39
91 92 92 89 87 87 86 86 85 86 93 96 98 98 92 80 80 63 67 83 79 74 99 94 76 81 92 87 85 86 88 95 86 64 64 66 68 69 79 76 52 61 33 33 47 56 58
90 93 93 92 90 89 88 87 87 88 90 98 99 98 89 75 74 59 71 76 73 74 92 77 85 77 75 84 85 82 90 84 78 69 74 98 82 80 88 82 57 47 39 45 52 57 50
92 94 94 93 91 91 90 88 88 89 91 99 100 97 71 72 75 74 82 77 76 97 96 97 88 89 88 80 83 82 82 78 57 69 84 94 80 83 89 86 87 51 54 54 51 60 90
93 94 94 93 94 92 91 90 88 89 94 99 99 61 66 81 69 78 79 81 98 93 92 94 97 88 88 92 92 86 88 88 85 96 98 100 99 91 86 97 81 67 68 94 96 96 88
90 94 94 93 95 92 92 91 89 88 95 80 57 52 71 76 80 84 81 97 88 82 99 84 80 55 71 64 79 80 90 95 77 83 100 96 95 99 85 91 92 72 71 94 76 87 73
82 90 95 93 95 93 92 92 90 88 89 71 65 65 74 66 80 82 87 95 97 98 94 78 62 63 58 60 65 60 60 81 85 79 98 100 100 94 90 79 78 96 94 51 70 45 78
82 91 96 93 95 96 93 92 91 86 71 77 76 65 60 63 77 85 90 87 86 69 56 51 60 51 56 54 55 53 55 50 55 56 51 68 98 95 92 84 76 88 63 74 93 74 62
85 91 94 93 96 97 94 93 89 86 55 72 78 75 67 63 77 76 98 83 62 48 52 54 51 47 46 52 49 48 53 51 41 42 41 48 65 88 72 89 87 94 92 68 56 54 80
90 90 94 93 95 97 94 93 89 84 77 70 76 89 63 68 90 83 92 79 67 50 43 44 47 46 43 45 47 47 54 53 41 40 46 51 66 81 68 52 47 52 52 53 87 61 71
94 90 94 95 88 97 96 93 83 72 93 95 73 63 54 68 93 93 67 57 56 49 46 45 46 46 45 45 52 47 52 51 43 49 51 47 78 90 71 64 52 62 54 50 61 78 90
88 94 92 96 93 96 96 90 68 26 71 93 70 87 83 60 58 66 57 53 54 56 50 43 43 42 45 48 42 54 57 52 48 48 52 50 52 62 81 76 71 77 62 56 83 96 72
85 93 91 94 96 95 96 79 74 29 63 80 64 72 72 92 62 63 55 54 53 51 50 43 46 44 45 49 46 48 52 58 50 53 45 52 64 55 51 50 57 70 65 65 89 76 78
94 94 89 92 92 94 94 76 61 42 46 59 77 85 72 74 59 58 63 55 57 50 54 47 51 41 39 46 44 46 47 49 52 52 46 54 92 88 88 53 57 73 63 64 70 70 70
90 92 88 91 89 94 91 89 80 61 55 65 74 67 74 68 59 62 62 61 58 57 54 50 53 46 49 52 49 45 43 40 41 50 55 58 85 93 78 58 62 82 71 67 65 62 66
89 84 89 92 87 91 93 92 85 78 61 67 84 94 76 68 62 58 60 61 64 60 68 50 54 55 55 42 42 40 39 41 43 45 44 56 72 85 88 71 96 62 48 50 58 55 55
87 85 90 90 88 89 95 93 87 78 66 68 75 79 89 78 49 45 56 63 59 58 70 62 56 55 46 52 59 62 61 53 54 49 50 48 58 84 91 78 57 59 52 54 62 63 48
91 87 87 86 94 92 93 93 91 85 77 71 72 75 80 83 57 47 57 65 78 77 68 64 65 56 57 70 65 73 82 58 72 74 55 54 56 74 85 85 79 65 50 44 44 77 54
92 93 88 81 90 89 91 93 92 94 86 79 74 72 70 79 53 56 62 80 80 84 83 76 76 75 62 77 88 87 70 48 64 60 80 73 73 89 83 80 67 57 54 43 85 84 60
97 97 93 89 86 94 92 92 95 96 94 87 76 80 73 70 59 49 48 56 59 77 98 87 84 74 82 80 86 71 63 59 55 48 57 62 80 82 72 87 84 50 51 60 69 56 55
97 97 96 92 89 89 91 79 88 94 95 95 89 77 82 86 69 62 62 61 58 56 92 94 98 81 73 76 70 60 63 63 59 62 48 65 55 63 60 69 47 43 52 48 55 59 59

GFSGBSN_925_rhum_069.txt.gz
RH
86 85 90 85 78 80 80 82 87 88 88 86 86 81 82 82 84 95 83 86 78 86 82 80 71 77 73 80 72 45 46 56 58 79 70 72 62 71 86 75 60 63 48 39 37 40 40
86 86 90 82 82 77 83 83 86 90 90 86 91 84 87 86 89 95 81 83 80 78 85 86 82 81 75 87 42 45 45 46 58 82 68 66 63 61 72 67 70 53 51 47 39 43 38
88 87 83 81 78 81 76 86 90 88 91 86 89 84 88 93 90 89 83 77 84 81 84 86 90 82 74 68 46 53 59 54 73 81 78 61 52 52 53 59 55 60 58 53 45 45 44
89 88 87 81 84 82 79 85 89 92 87 90 90 89 89 94 91 85 89 79 86 86 88 90 87 80 79 50 47 50 50 55 53 78 87 61 53 55 52 51 61 67 55 70 47 48 44
90 90 86 87 84 82 80 80 89 92 88 90 93 90 89 93 91 79 74 76 82 87 85 85 74 74 81 47 54 42 44 45 64 68 82 70 60 62 60 73 83 76 89 73 53 47 49
91 92 87 85 86 84 82 81 84 89 90 92 95 92 90 94 78 74 65 59 63 66 67 70 61 74 61 58 55 47 66 56 69 84 86 85 71 83 78 86 87 92 82 67 65 49 47
92 92 88 89 88 86 84 82 83 85 90 92 96 95 60 79 74 70 70 70 72 75 58 58 58 67 54 66 56 53 76 77 74 83 91 88 88 92 75 76 63 68 71 59 52 44 49
94 93 91 91 90 88 86 84 83 84 87 94 97 97 93 64 67 65 58 70 70 68 80 58 55 63 77 76 75 82 71 75 90 93 91 91 90 74 65 70 71 59 66 63 44 38 47
93 94 93 91 92 91 89 86 85 86 88 93 98 99 91 72 62 68 68 81 74 72 93 83 78 80 86 74 84 81 71 84 85 91 88 94 73 61 68 73 78 65 71 61 47 47 43
94 95 94 92 92 93 91 88 87 86 89 96 97 100 84 71 69 65 74 77 71 76 97 96 88 89 89 77 95 86 84 93 84 90 84 89 67 67 74 69 62 74 51 47 54 60 72
95 95 96 94 94 94 93 90 89 88 90 96 99 100 73 78 76 67 70 77 75 77 92 91 90 76 80 83 78 90 90 91 89 89 80 98 80 86 91 77 80 69 49 44 55 60 56
92 96 96 94 89 94 94 91 90 90 91 95 100 100 64 76 78 75 76 76 78 87 91 98 92 85 81 74 85 83 86 91 59 78 83 93 77 87 89 89 87 83 61 57 61 69 91
83 95 96 95 95 95 94 93 91 91 89 94 90 76 61 72 79 76 78 86 90 95 82 85 96 85 92 95 86 81 87 84 88 94 96 97 98 86 81 88 83 89 88 98 94 95 92
79 92 97 96 96 95 95 94 92 88 77 87 62 62 63 73 76 78 82 90 90 83 97 79 86 76 78 77 89 84 83 92 83 86 92 97 100 97 84 85 95 97 79 88 87 97 85
83 83 96 95 96 94 95 94 93 79 41 72 62 68 69 73 78 78 90 96 89 93 91 79 64 72 67 65 78 85 86 90 84 79 88 98 95 90 86 78 87 98 96 63 71 59 81
73 78 94 96 96 95 96 84 89 62 27 62 80 71 66 68 76 86 89 93 91 78 67 61 66 52 63 57 64 65 65 71 77 74 69 87 96 90 91 85 82 95 72 79 92 76 72
64 78 92 94 91 95 96 62 55 78 34 59 82 88 66 69 78 88 95 89 72 54 54 62 63 52 48 54 50 56 63 52 49 64 66 73 77 99 96 98 98 97 98 80 63 69 81
61 83 93 79 66 70 86 59 41 81 69 65 91 92 60 74 94 94 95 86 65 59 52 55 51 51 53 48 51 60 66 56 48 46 56 54 76 96 78 79 65 71 83 74 85 65 73
69 77 84 83 74 72 78 53 42 26 86 97 99 86 63 74 95 94 72 71 64 57 51 51 50 48 47 49 57 53 65 53 47 53 54 53 80 93 77 68 58 67 61 69 62 76 87
74 74 85 91 83 82 67 50 40 21 56 80 94 94 88 86 77 70 76 68 60 55 59 46 47 45 49 50 45 58 65 53 50 49 51 50 67 72 84 70 75 80 68 62 72 87 71
81 79 87 90 93 96 84 66 46 29 50 64 91 90 81 98 86 85 69 64 67 61 54 46 52 50 52 55 50 57 61 62 53 50 48 58 69 56 54 54 66 72 68 74 79 69 76
89 84 87 82 90 92 77 76 58 37 38 64 91 92 88 91 81 77 70 68 59 62 57 62 57 59 46 51 53 54 58 63 64 57 52 64 90 83 83 59 58 72 70 72 76 68 67
87 84 86 78 86 86 79 79 70 52 47 77 77 73 85 80 79 75 72 66 69 72 60 54 59 69 54 57 54 49 46 47 51 63 63 71 84 90 88 66 66 78 72 69 71 69 62
88 86 80 80 79 74 80 81 82 61 64 76 80 93 93 84 72 64 54 62 68 68 72 67 64 65 54 48 47 44 43 45 47 51 54 76 78 90 92 76 90 48 56 57 60 62 65
90 86 86 86 79 81 79 82 91 75 64 71 78 80 96 90 75 63 61 70 71 68 70 71 64 62 51 57 68 66 65 59 59 53 54 57 67 86 91 92 63 63 56 59 71 69 59
94 84 86 83 81 83 82 76 76 90 73 68 74 71 86 88 75 63 67 61 78 86 82 68 67 62 60 79 73 85 92 78 80 75 58 59 60 79 87 91 91 62 50 46 49 82 59
85 83 89 88 83 89 86 83 72 85 91 80 76 77 78 90 80 56 79 84 80 87 94 87 86 80 67 88 99 97 77 55 80 77 82 81 77 93 91 84 73 50 57 51 86 75 62
97 99 100 99 93 88 91 88 76 82 85 96 77 79 79 94 83 63 55 70 70 72 88 92 95 93 92 94 96 91 73 64 62 61 77 78 72 94 88 93 92 57 52 70 66 59 58
91 93 92 89 82 86 89 90 75 76 94 98 90 86 84 93 88 65 65 57 63 66 82 90 96 97 91 86 84 75 72 73 71 78 56 72 67 67 71 70 50 53 55 56 59 61 59

GFSGBSN_925_rhum_072.txt.gz
RH
85 86 88 80 77 81 77 88 90 92 88 93 87 83 84 87 87 96 88 84 79 82 76 76 67 73 71 80 71 59 52 59 55 65 76 76 76 77 87 81 71 65 52 46 41 61 68
88 83 86 82 80 82 79 87 88 92 89 92 85 87 88 94 92 86 82 81 81 82 84 89 76 68 74 84 54 62 57 57 61 65 74 80 65 66 76 74 74 64 56 50 42 43 42
89 89 83 86 84 84 81 79 86 92 91 91 89 87 89 91 94 79 84 78 87 83 87 87 86 78 78 74 46 48 52 59 65 69 77 77 56 64 67 62 65 66 65 63 55 49 45
90 90 86 86 86 85 83 83 81 90 91 90 92 90 88 95 96 77 76 81 86 87 90 90 73 81 80 43 55 47 46 48 56 75 81 69 62 55 53 54 70 76 72 78 52 51 45
91 87 89 89 88 86 84 84 84 85 92 91 93 93 93 92 94 83 70 67 76 83 86 82 79 73 77 48 52 51 46 47 58 73 86 78 70 61 59 73 88 81 88 74 58 50 50
93 91 92 91 90 88 86 84 85 85 87 91 94 99 96 95 88 78 67 64 67 70 78 78 69 67 60 59 56 61 60 56 70 84 95 86 79 80 84 86 91 95 84 70 66 55 53
94 93 93 92 92 88 89 85 85 86 87 94 90 100 95 74 68 60 59 67 67 67 61 61 63 65 58 64 64 76 66 67 72 82 88 90 92 90 82 72 67 77 71 70 60 48 52
95 95 94 93 92 91 90 88 87 88 88 94 91 95 100 76 66 60 56 74 76 73 83 71 67 70 72 74 78 81 69 73 83 93 94 96 90 74 71 69 70 78 79 71 51 43 52
96 95 96 94 94 92 92 91 89 89 90 93 91 89 99 76 65 69 67 75 71 71 89 88 78 76 76 78 84 83 79 79 83 94 93 85 72 67 71 79 79 75 74 65 58 50 47
94 96 96 95 93 94 94 92 91 91 92 94 98 93 100 89 76 76 73 74 70 75 95 98 92 84 86 81 87 80 84 84 87 98 91 84 67 72 77 81 76 83 58 57 52 61 80
85 97 97 96 96 96 95 94 93 92 93 96 99 99 77 91 78 71 70 77 76 77 92 95 89 79 76 83 85 87 91 83 85 93 93 96 81 77 86 78 65 69 74 56 57 65 59
76 92 97 96 96 96 96 96 95 92 91 94 98 64 62 78 82 72 73 78 78 81 93 96 87 82 87 78 88 86 87 87 76 83 85 92 76 88 90 89 89 86 58 66 68 79 93
68 88 92 85 96 96 90 95 94 90 84 68 60 54 61 74 79 76 76 83 84 92 74 83 95 85 81 86 87 86 94 96 97 98 99 97 97 86 78 82 76 81 77 98 98 98 93
59 71 69 83 93 95 82 88 93 64 55 50 56 56 64 71 74 80 82 79 89 82 88 80 83 78 95 82 88 82 81 91 81 78 95 97 100 94 83 83 83 94 88 92 89 96 83
58 54 62 76 76 77 89 70 92 80 41 49 61 66 67 70 76 82 85 91 83 91 84 90 72 69 74 86 88 87 83 87 84 80 86 90 93 84 84 81 75 96 99 75 73 71 88
54 50 49 52 60 58 59 47 64 39 46 62 71 72 71 69 80 85 88 91 90 77 78 74 76 55 67 67 86 92 89 76 80 78 71 85 98 83 81 84 86 91 84 98 92 83 79
52 47 38 43 44 47 47 46 82 68 53 67 77 86 72 78 80 85 94 94 79 64 65 66 65 63 50 55 55 65 68 62 62 68 71 81 78 93 92 96 81 96 100 89 70 72 83
51 53 33 45 49 55 39 42 37 50 56 63 84 79 75 82 93 95 92 86 65 66 55 60 56 57 57 52 56 63 66 61 48 53 70 64 81 92 89 77 76 76 89 76 91 83 77
52 55 45 56 64 49 39 42 37 27 63 83 96 90 71 82 93 95 78 75 69 60 56 52 54 49 49 54 57 56 64 53 48 52 62 60 81 98 96 74 77 100 90 80 73 79 87
60 61 57 69 67 58 42 42 40 31 51 77 90 83 85 85 84 75 82 73 58 60 58 51 52 46 52 53 47 58 65 54 50 49 49 52 73 73 83 69 78 84 78 89 94 97 80
71 57 67 71 69 83 64 44 43 37 42 55 93 96 86 91 72 89 82 71 71 66 57 51 56 52 60 60 53 58 64 63 54 50 50 56 70 61 60 64 70 72 73 77 86 78 82
72 47 81 75 75 89 78 58 47 42 38 55 85 83 90 88 85 84 77 77 79 71 64 60 63 67 67 60 53 56 66 66 64 58 55 68 87 81 80 63 59 74 72 76 74 69 69
78 72 88 74 79 81 68 60 55 47 39 62 80 83 91 71 80 78 72 57 66 71 67 57 63 72 71 55 56 50 49 52 51 66 67 73 85 86 79 68 67 76 69 69 74 72 62
83 86 88 77 78 81 65 61 65 55 56 65 77 93 86 61 79 64 62 65 75 68 79 66 66 71 58 49 50 49 48 49 55 57 61 82 77 89 93 76 92 57 54 56 59 62 67
87 90 88 81 82 82 73 71 72 68 62 69 73 76 93 71 84 64 64 63 65 57 71 70 63 62 54 58 71 70 67 61 60 57 61 67 78 87 93 94 72 57 61 65 70 64 62
89 93 83 82 79 83 80 78 74 80 72 68 71 74 88 91 74 71 72 72 86 83 80 80 74 77 75 80 80 92 94 82 79 72 64 63 61 74 92 94 92 55 52 49 55 86 62
92 85 82 87 77 81 87 79 76 84 86 76 75 76 75 93 83 64 77 76 71 79 86 80 88 90 83 93 97 98 87 66 86 83 84 85 88 89 87 91 75 54 53 53 82 70 62
92 86 87 93 98 94 84 88 83 78 88 90 80 80 80 95 90 71 61 68 70 73 87 72 55 94 97 99 96 96 95 73 72 69 82 89 91 95 92 97 93 56 54 72 65 61 60
84 85 87 88 83 79 76 86 84 75 80 94 90 81 79 91 84 71 79 80 70 63 80 84 86 86 99 100 96 85 80 79 76 82 65 72 66 76 78 76 51 53 51 50 64 64 58

GFSGBSN_925_rhum_078.txt.gz
RH
90 86 87 83 86 86 84 83 81 86 93 89 88 86 86 91 94 88 80 84 83 86 89 88 78 74 68 67 70 58 59 65 60 68 72 76 82 75 75 76 72 62 64 72 84 73 69
91 89 88 86 86 85 88 84 84 85 86 87 90 84 87 94 94 87 81 84 86 87 89 90 89 65 70 63 62 53 56 65 73 73 70 78 77 71 70 73 72 65 59 80 83 72 70
93 91 90 88 86 88 89 85 85 83 87 91 92 91 88 91 93 94 85 86 87 88 81 90 88 76 73 52 54 52 55 58 77 70 72 78 68 69 70 81 72 66 87 80 84 80 78
94 94 92 90 87 81 89 87 86 85 88 90 92 94 98 96 96 94 87 86 84 72 83 90 82 76 61 50 62 57 53 51 71 69 63 70 69 67 68 69 76 74 75 91 78 81 81
83 95 94 93 91 86 85 88 88 86 86 90 92 95 96 97 95 86 93 68 75 76 70 72 77 75 60 50 56 60 55 58 63 73 74 69 69 68 64 88 90 86 94 83 82 74 86
52 95 96 96 94 91 88 89 89 88 88 91 91 96 97 96 76 66 60 68 68 72 73 74 76 60 53 69 67 67 66 57 63 82 81 84 84 84 83 91 84 91 85 80 76 67 77
32 79 97 96 95 93 92 92 91 89 90 89 92 93 98 96 74 63 58 64 64 61 70 88 87 69 68 69 72 71 67 62 67 72 86 89 91 92 88 69 72 78 76 78 62 56 62
31 55 83 95 96 95 94 95 94 92 91 92 95 96 98 98 71 60 56 74 74 73 83 75 75 72 73 80 75 72 69 72 74 90 88 95 90 76 73 66 74 76 78 75 59 52 62
32 40 54 70 95 96 96 96 95 94 94 94 95 100 98 99 75 65 65 75 75 75 88 81 80 86 81 75 83 80 82 77 87 96 95 99 79 74 73 71 78 78 82 74 64 53 58
36 31 38 40 75 96 96 96 96 96 96 96 98 100 98 87 78 73 70 71 74 74 94 97 82 80 77 73 84 77 84 82 83 97 95 93 72 79 81 82 75 82 66 65 60 64 80
41 28 32 33 58 91 94 96 94 96 96 97 100 99 100 86 71 70 71 76 77 71 91 88 83 85 74 84 73 80 81 74 87 92 94 98 83 86 87 79 66 72 68 66 62 72 68
46 26 26 32 64 71 77 94 95 95 96 88 91 96 79 83 82 74 71 75 74 81 93 95 85 85 94 83 89 78 76 75 72 85 89 92 80 82 85 86 67 72 70 77 84 78 90
52 25 24 37 71 55 45 81 95 95 90 72 52 61 74 74 78 74 76 77 83 92 67 87 97 84 79 87 91 81 84 92 91 91 100 98 95 85 78 85 75 71 78 98 97 98 90
56 27 23 30 48 56 44 56 82 74 75 68 56 61 70 76 78 78 81 81 88 75 87 70 80 80 88 74 76 80 87 96 89 85 98 95 99 96 83 78 84 81 80 92 88 96 89
59 29 25 25 26 47 45 48 54 53 60 64 62 71 75 81 81 84 81 90 78 80 74 88 78 91 81 81 82 85 73 88 86 84 91 94 98 84 81 84 81 97 96 63 85 80 91
62 32 31 27 26 32 39 45 46 43 47 62 65 74 82 84 85 83 89 91 87 67 70 83 78 65 83 90 90 95 87 74 81 75 66 72 96 82 87 78 85 83 80 92 96 97 91
62 36 36 26 28 31 37 41 47 39 42 68 70 83 89 90 88 85 88 91 82 70 73 74 70 71 62 90 88 89 84 70 72 86 72 74 74 91 86 96 93 97 98 92 83 82 87
60 40 31 27 34 30 37 40 46 37 41 57 69 72 84 91 89 95 90 77 64 69 71 73 66 64 64 57 75 91 79 66 68 80 84 71 81 97 82 82 71 73 76 85 94 86 87
61 43 32 34 42 31 38 41 45 39 39 61 86 86 68 84 87 93 81 76 74 69 61 57 61 61 55 61 64 69 68 57 64 73 74 73 89 100 99 86 87 97 85 76 87 84 93
64 44 40 48 45 36 41 42 45 40 32 56 75 60 71 84 85 83 92 77 77 64 71 59 57 54 58 64 62 59 69 60 59 62 60 65 81 78 81 68 83 96 88 82 91 94 77
65 46 54 53 43 36 43 44 46 39 28 36 82 83 78 76 58 81 86 84 82 81 68 60 62 62 65 74 62 68 64 65 62 56 64 65 85 78 70 62 83 88 86 86 96 86 96
62 62 53 58 54 42 44 47 47 41 28 48 64 66 88 78 79 77 77 79 72 72 73 77 74 77 71 77 63 60 66 72 68 66 71 69 86 81 88 64 79 87 81 86 87 87 85
63 54 48 66 62 52 49 52 49 44 35 53 85 94 74 64 74 64 71 60 56 63 54 69 53 53 80 84 68 57 54 59 58 73 76 79 84 88 87 74 70 84 73 72 76 83 78
65 62 60 69 71 63 56 53 52 48 41 45 79 81 63 52 69 56 60 60 61 65 82 65 54 54 52 76 64 70 66 65 62 67 67 83 79 83 88 78 95 60 46 56 65 58 72
71 66 68 72 74 70 63 57 57 54 50 48 63 66 77 64 62 60 59 62 64 70 78 68 63 56 76 89 88 97 82 72 70 71 78 67 78 91 95 93 75 56 55 70 72 63 59
72 75 73 78 78 77 70 64 59 58 55 56 66 66 80 81 74 66 72 70 89 91 90 73 60 57 70 96 95 99 97 83 89 84 75 76 70 74 97 96 95 52 57 55 57 82 53
77 84 82 82 78 80 80 70 65 63 58 56 66 72 74 91 83 71 78 79 66 80 89 79 80 72 62 91 94 94 97 71 90 97 95 92 99 96 96 92 76 60 52 60 76 62 67
83 85 82 82 82 78 84 80 74 69 65 62 71 74 69 93 89 77 71 78 76 78 80 75 81 83 94 97 100 94 98 88 82 79 90 86 96 97 97 97 91 58 66 70 61 65 65
85 83 84 83 84 83 86 82 83 82 73 71 80 81 80 88 88 70 71 71 68 66 72 81 85 86 86 94 94 95 98 99 84 88 76 83 78 91 82 76 53 59 61 58 64 70 62

GFSGBSN_925_rhum_081.txt.gz
RH
92 88 85 83 80 86 90 84 85 82 87 89 94 84 88 89 89 85 82 85 85 87 89 90 85 65 64 64 63 63 68 69 65 75 75 83 75 73 79 80 71 64 72 77 78 67 68
94 92 89 88 85 86 88 87 86 85 87 89 84 88 84 87 90 91 86 87 87 91 91 89 84 56 62 66 58 61 58 71 73 74 79 83 74 64 64 79 72 59 72 83 71 71 71
94 94 92 90 88 87 88 87 88 85 87 92 89 86 90 92 96 93 91 89 88 83 86 91 83 61 59 54 54 54 54 57 74 74 72 76 72 68 69 81 68 66 86 80 82 74 79
94 95 94 93 91 86 86 87 89 88 83 90 91 88 94 96 96 95 95 90 67 62 75 90 69 62 56 51 60 53 52 54 68 73 64 69 65 68 70 71 78 72 79 89 83 77 84
78 95 96 96 93 91 90 90 90 89 88 87 86 89 96 96 96 92 68 68 69 61 74 74 68 66 60 51 61 64 68 62 75 73 65 79 65 72 68 85 87 80 90 82 92 74 87
58 78 96 96 96 94 89 90 93 91 90 88 92 91 88 97 96 78 56 62 67 62 68 71 74 54 56 76 72 70 64 63 78 75 70 89 82 84 82 88 89 92 86 77 86 84 87
61 52 80 96 96 95 92 92 93 93 92 92 89 94 93 99 96 77 58 61 59 62 74 86 84 72 68 71 72 69 69 66 77 72 88 91 91 86 86 69 70 70 70 65 66 63 81
64 38 58 87 96 96 94 93 96 96 94 94 93 96 97 99 96 71 57 68 68 66 81 75 76 72 74 79 74 68 67 76 84 93 83 91 89 75 73 67 73 72 77 76 62 60 70
63 45 35 75 93 96 96 96 97 92 94 95 96 100 96 99 91 68 63 72 75 74 86 77 81 87 83 72 88 77 82 73 84 83 96 100 88 72 72 75 78 79 79 74 70 57 57
62 53 31 49 81 85 95 94 99 96 96 96 98 99 99 93 80 73 69 71 74 72 94 97 83 77 78 71 78 74 81 78 83 91 91 91 76 75 79 77 71 82 68 65 62 69 85
62 59 30 36 56 58 86 94 96 96 95 99 100 100 100 84 73 70 72 74 76 68 88 77 85 85 77 70 69 70 76 71 89 91 95 97 85 85 86 78 60 71 68 66 63 70 69
63 61 29 30 36 45 64 60 94 96 96 97 100 93 71 81 80 76 73 74 72 82 94 92 84 84 89 83 86 73 75 72 70 81 86 92 80 77 80 83 68 70 72 75 79 74 90
64 62 31 29 26 34 40 52 95 88 96 98 74 65 69 76 80 75 72 73 82 93 68 84 82 79 80 91 84 77 84 90 83 95 100 97 94 84 76 84 75 66 76 92 94 95 90
64 63 33 27 24 30 34 45 75 56 95 88 63 67 73 76 78 80 77 80 88 75 87 69 78 74 88 81 75 84 83 93 88 88 98 99 99 89 81 78 84 81 77 87 93 92 83
66 63 34 25 25 29 34 42 50 44 66 76 72 72 79 85 80 85 79 90 77 79 73 84 77 92 80 84 80 74 82 80 88 84 89 90 94 82 81 83 79 87 89 65 83 80 84
70 65 37 25 23 29 33 39 45 40 48 72 69 76 88 85 84 79 87 88 86 65 67 84 79 73 83 81 84 84 87 76 83 77 61 76 96 82 84 78 81 80 74 86 95 97 92
72 66 39 25 22 27 31 38 44 39 47 71 71 83 92 90 88 85 89 90 80 71 73 79 73 74 65 94 86 84 84 70 74 86 69 71 73 93 90 97 95 95 93 89 78 78 82
74 68 41 25 23 28 32 40 43 38 48 68 69 68 90 95 87 95 93 77 66 71 76 78 69 69 69 61 90 93 90 76 74 82 87 69 77 89 87 80 74 73 81 78 86 84 86
77 69 44 26 25 29 38 42 42 38 46 61 82 83 72 91 79 92 80 74 77 71 64 61 63 66 61 65 69 78 71 57 77 78 80 75 93 96 97 87 81 89 79 76 81 81 96
78 70 44 27 29 34 42 45 43 36 37 56 62 56 67 86 85 80 86 74 78 66 75 64 62 56 60 66 64 65 66 62 69 72 66 66 89 77 77 68 82 98 92 82 86 96 74
80 70 44 30 35 36 44 46 44 36 31 36 77 61 70 70 59 78 86 85 85 84 70 68 67 74 72 80 68 73 64 65 66 61 77 86 100 90 78 63 82 84 85 88 96 81 86
82 67 45 31 40 40 45 49 46 39 30 42 58 65 89 76 77 73 76 82 74 70 66 73 76 63 78 93 75 100 95 77 72 71 76 70 98 81 86 68 73 85 83 89 84 78 79
82 64 49 37 47 47 48 50 45 38 30 54 93 93 65 67 76 57 60 65 61 56 48 60 58 62 75 70 87 80 79 81 74 73 78 82 94 97 94 74 71 90 80 76 73 81 77
78 61 47 47 56 53 54 50 46 39 33 36 67 71 59 41 68 55 59 60 57 59 67 68 62 67 55 65 65 72 86 84 77 72 67 88 81 86 94 78 95 58 47 63 69 60 69
80 62 47 55 62 57 55 54 50 43 39 35 55 60 74 52 63 57 59 62 65 71 82 76 66 57 64 69 93 93 99 99 98 79 79 66 80 96 95 90 74 55 53 64 67 57 60
75 65 49 60 66 61 58 59 54 49 50 48 60 58 75 72 66 64 72 70 84 88 87 75 61 63 66 86 94 95 87 91 96 95 81 72 74 98 96 97 90 55 55 59 57 80 52
73 68 52 68 71 66 62 64 61 55 53 51 68 67 68 86 82 75 78 76 72 80 93 83 80 77 69 97 97 98 90 98 97 96 97 94 99 95 95 94 82 55 58 61 78 57 59
74 59 62 74 75 74 71 70 67 62 59 55 73 70 66 90 85 77 71 79 79 83 88 79 79 84 89 91 97 96 96 93 91 79 90 85 94 97 97 97 90 59 67 67 60 62 66
72 68 72 78 76 75 76 79 77 67 64 62 74 71 77 85 76 68 66 67 67 66 76 92 81 87 88 94 96 96 93 96 98 96 85 90 79 89 81 74 54 64 53 60 65 67 64

GFSGBSN_925_rhum_084.txt.gz
RH
94 93 91 89 89 85 84 88 86 85 89 89 88 87 92 84 86 89 86 87 86 89 91 88 86 61 61 47 55 72 78 73 71 74 72 66 53 50 53 51 61 57 55 57 64 55 51
93 94 93 91 90 88 86 90 87 87 84 86 89 90 90 85 92 92 91 88 88 89 88 90 83 51 51 56 54 62 59 71 68 78 73 81 50 42 46 56 54 51 52 56 55 55 51
77 92 94 94 92 92 89 88 88 88 85 89 94 91 88 90 97 96 94 89 87 83 86 90 64 63 47 56 58 57 54 62 65 72 69 87 71 54 42 61 48 45 59 63 61 54 55
72 69 93 95 94 94 88 92 91 89 88 87 87 92 86 94 97 95 94 86 65 70 64 76 62 60 54 51 59 57 65 58 68 69 67 82 72 57 50 53 56 51 46 60 56 59 56
70 59 68 96 96 94 93 89 91 92 88 85 87 86 89 92 96 93 68 64 63 64 69 62 65 56 53 54 58 63 72 63 66 68 69 78 62 61 59 60 66 60 54 50 68 57 56
69 62 41 81 96 96 94 91 90 93 92 91 90 90 90 93 98 82 56 62 61 57 67 58 66 50 51 65 68 72 65 66 64 63 71 84 69 64 58 63 64 70 51 49 50 60 59
70 64 44 46 93 96 95 94 93 94 91 91 86 94 94 95 98 78 54 65 48 54 60 68 70 65 60 67 69 64 70 62 64 62 83 87 89 64 50 52 47 47 51 51 47 51 56
76 67 50 32 73 92 96 95 96 92 91 89 90 92 92 96 94 70 53 51 63 62 70 70 66 64 68 77 54 65 63 70 73 77 80 94 87 49 56 53 50 49 46 48 51 49 59
81 72 54 30 51 74 84 93 96 95 96 97 98 96 97 99 85 65 68 71 70 69 69 72 69 67 67 64 71 77 64 72 67 70 74 99 83 55 54 59 55 50 44 49 48 48 53
83 69 60 30 28 30 45 46 95 99 97 98 99 98 99 85 74 72 65 69 72 68 95 77 68 68 66 62 72 68 74 62 66 74 74 77 68 64 56 56 50 61 52 50 54 54 59
83 67 63 32 26 24 31 33 94 96 100 100 98 98 96 80 73 69 73 71 74 67 83 66 70 73 64 57 64 62 70 67 67 78 75 92 80 67 63 56 48 51 54 53 54 53 55
86 65 64 36 26 21 28 33 54 97 92 98 100 91 80 79 75 75 72 73 71 92 89 86 71 70 70 69 62 63 66 61 56 69 80 89 70 57 48 64 56 57 57 55 53 51 66
91 66 65 40 25 20 26 35 47 96 92 99 61 70 81 75 72 74 73 70 96 86 68 83 72 68 67 69 71 63 68 72 71 91 100 94 89 73 68 65 61 56 57 78 77 82 59
94 67 65 44 26 20 26 36 46 62 63 68 62 75 78 76 76 77 78 71 93 70 83 63 70 65 70 64 62 60 60 66 65 60 97 100 97 85 67 61 68 55 50 56 67 56 44
95 68 66 46 27 20 26 34 43 46 58 70 72 79 85 83 84 86 65 99 72 81 72 70 70 79 66 70 68 66 57 51 57 62 70 76 90 78 74 68 62 70 86 52 70 61 63
94 68 68 47 27 21 26 33 43 43 55 74 72 82 89 85 82 77 74 86 75 57 60 71 67 61 61 67 75 75 58 47 60 58 54 59 90 80 86 71 72 65 49 76 86 81 66
93 67 68 46 26 22 27 34 43 41 60 71 77 68 93 87 82 63 99 78 70 60 62 68 62 62 58 71 70 74 67 56 56 66 56 55 60 91 92 96 97 83 74 70 55 55 60
91 68 68 46 26 23 28 37 43 41 68 72 76 68 94 92 75 77 77 70 64 63 66 66 64 61 59 54 74 76 69 55 53 62 71 54 59 85 77 66 61 60 57 57 67 67 59
88 70 68 44 25 26 30 40 42 40 55 59 62 71 77 98 72 66 61 62 69 67 61 60 58 57 53 58 63 57 58 52 58 62 64 62 88 92 90 79 76 86 66 62 55 64 87
84 73 68 44 25 29 36 42 42 38 44 50 48 58 52 58 66 52 53 58 62 62 65 62 58 53 56 59 51 64 58 55 60 64 64 56 78 64 57 56 56 80 64 61 77 96 63
90 80 66 42 26 32 41 42 42 37 40 39 50 46 59 54 41 55 62 67 65 62 64 60 63 62 65 60 56 58 55 54 67 69 71 83 100 79 63 59 66 68 65 65 88 77 79
89 80 66 41 30 36 43 44 44 38 36 42 44 45 61 54 57 53 58 54 70 63 59 55 68 55 56 80 72 100 98 88 74 81 77 92 100 100 100 84 69 76 63 61 61 64 60
92 85 64 38 36 40 43 45 40 38 34 58 89 77 36 57 53 40 35 53 53 51 40 44 50 58 56 48 55 55 90 96 100 100 95 79 92 93 87 86 94 92 66 61 60 56 58
93 89 62 38 42 44 46 42 39 36 31 32 62 64 32 32 40 36 48 54 48 49 49 43 46 56 51 47 46 47 51 66 81 96 97 98 86 83 78 70 87 43 46 50 51 47 46
97 86 61 38 48 48 48 40 40 37 34 31 45 54 45 30 38 46 50 50 51 51 61 61 56 51 49 50 74 80 80 86 84 81 92 87 88 97 84 72 50 45 47 53 54 45 41
97 83 73 43 54 51 46 41 41 37 33 29 48 46 56 36 39 44 52 58 55 59 57 59 49 52 56 63 78 82 60 82 94 96 100 78 76 81 94 78 68 38 50 44 47 54 47
98 80 53 52 58 53 48 45 45 44 43 40 60 54 57 48 55 55 52 54 61 66 70 67 62 59 64 82 74 74 62 85 78 86 90 97 100 95 85 80 59 39 48 48 53 44 51
98 81 62 61 60 55 52 51 51 51 50 47 70 59 59 56 64 64 60 64 67 67 72 64 64 69 66 80 84 80 80 81 88 79 90 83 91 84 74 86 72 47 57 52 38 52 52
94 84 58 67 63 58 59 58 58 54 54 51 78 70 69 69 65 71 66 62 62 62 66 76 70 69 69 67 73 69 66 70 81 69 69 87 69 63 58 50 46 45 37 36 45 47 50

GFSGBSN_925_rhum_087.txt.gz
RH
95 76 69 93 91 91 88 89 87 87 85 88 92 96 79 94 95 92 91 88 87 88 88 90 81 49 56 43 54 58 75 75 74 66 67 59 49 43 40 36 53 59 65 47 50 45 37
98 94 79 86 93 92 90 88 91 89 85 87 90 86 85 79 95 95 94 91 87 86 85 91 70 53 46 54 50 57 59 68 64 67 60 66 46 36 35 32 44 44 73 52 57 48 42
78 97 89 82 90 94 93 87 90 90 87 82 91 86 88 83 93 96 95 93 88 81 63 85 72 53 38 50 49 51 58 66 59 68 58 78 69 42 34 40 32 35 57 56 47 56 47
82 77 88 86 82 87 94 93 90 90 85 87 82 85 84 82 93 96 95 86 70 71 64 73 53 51 44 47 50 52 55 52 56 67 65 76 72 52 47 37 41 40 45 71 57 46 42
90 74 79 86 84 76 92 94 92 90 85 85 92 91 85 86 95 96 85 58 60 61 65 60 54 46 46 47 50 56 59 53 56 63 80 82 73 55 51 54 59 47 50 50 50 41 41
97 84 70 82 78 57 85 95 95 92 87 86 88 86 89 88 96 82 62 53 61 58 58 54 46 52 44 53 54 60 59 58 50 74 72 88 71 56 48 48 62 54 39 32 38 48 45
99 93 72 71 69 53 58 90 95 94 90 89 87 90 91 91 96 80 62 60 47 50 50 56 56 52 51 52 52 55 61 50 48 67 81 89 85 63 44 38 36 30 34 29 27 35 48
100 97 78 68 50 56 50 67 87 96 92 90 93 97 95 92 88 67 63 43 56 62 58 52 52 48 55 62 57 57 55 52 50 71 71 86 70 46 36 35 43 42 35 37 38 38 42
100 96 83 67 54 40 54 40 61 94 94 95 95 99 98 96 82 68 55 60 71 67 60 57 55 52 56 56 74 63 57 54 49 58 68 98 59 49 47 49 45 41 38 47 42 41 41
100 96 88 68 60 32 32 38 43 76 95 98 97 99 98 84 83 63 56 72 72 67 95 62 51 57 52 51 66 62 60 61 52 56 65 79 60 58 50 46 39 47 34 33 40 48 50
100 96 91 68 65 32 27 37 37 60 92 90 98 99 95 85 69 62 67 76 74 62 87 57 58 60 53 52 53 58 60 55 52 58 65 74 67 60 52 41 39 42 42 43 45 47 47
100 100 92 67 68 31 26 37 37 52 86 87 96 96 79 77 73 71 75 73 65 92 86 77 57 56 50 51 50 51 55 53 44 56 65 75 62 47 42 42 46 47 47 44 47 52 87
100 100 92 67 67 32 24 36 40 48 59 82 76 75 91 81 64 72 77 62 94 89 64 76 62 58 56 55 55 52 57 65 70 88 97 92 76 56 61 60 50 47 47 73 77 85 64
100 100 94 67 66 32 23 35 41 46 43 63 66 79 79 80 82 81 72 65 97 60 80 58 60 57 64 51 50 49 53 61 50 59 90 95 100 69 49 51 52 48 46 54 59 47 39
100 100 98 69 65 33 22 32 41 46 48 64 72 88 83 87 88 87 62 99 70 74 70 59 61 70 53 54 55 55 49 46 38 48 72 97 97 65 62 52 59 56 67 39 58 47 49
100 100 99 70 64 33 22 30 41 46 53 71 74 72 79 93 79 76 70 79 63 51 52 58 59 49 47 57 65 59 50 35 37 41 46 78 98 75 73 62 60 75 46 71 75 69 53
100 100 99 71 64 33 22 31 42 44 51 73 69 62 90 95 85 60 96 62 55 48 52 58 49 49 46 46 52 62 50 40 35 41 38 43 69 86 92 91 59 68 70 61 52 40 49
99 100 99 71 62 33 23 31 44 42 64 77 65 64 93 92 70 58 62 52 62 51 51 58 57 51 47 42 46 57 54 47 40 41 59 47 65 99 84 68 58 54 53 50 65 59 51
100 99 100 72 60 32 24 32 44 41 65 69 51 60 76 87 66 58 44 45 55 56 53 52 52 47 40 46 49 40 45 35 48 56 52 52 85 86 94 86 73 88 76 64 50 49 97
99 100 100 74 57 28 26 35 44 40 63 79 45 58 53 55 44 35 34 35 39 53 57 49 49 46 46 44 39 45 44 50 52 60 77 71 72 66 67 67 52 76 61 56 68 100 64
100 100 100 74 51 25 29 39 44 40 41 69 36 35 49 54 36 36 41 40 36 41 50 52 46 48 50 52 35 32 36 40 47 61 83 96 100 82 59 53 52 63 59 55 80 73 80
99 100 99 76 45 25 31 42 45 37 54 54 35 34 41 36 39 36 46 35 42 37 49 28 46 38 42 40 32 42 58 79 88 77 88 94 100 99 100 94 59 66 55 54 54 55 62
100 100 95 86 44 28 37 44 44 36 43 49 62 49 28 42 33 28 19 29 36 44 30 35 41 43 38 37 48 44 42 50 94 99 100 100 100 100 95 96 100 98 72 59 54 48 49
100 100 94 93 38 32 40 44 44 36 32 44 56 32 22 20 25 23 35 40 38 38 42 34 38 43 44 42 41 39 42 45 45 67 82 100 99 97 93 92 92 41 42 44 47 43 40
100 100 98 81 35 38 43 44 39 34 34 33 40 38 20 16 20 29 36 38 38 40 49 48 44 45 41 47 57 62 74 79 61 48 68 96 98 99 86 70 41 37 44 46 48 41 34
100 98 95 71 39 43 45 40 36 35 33 34 37 44 31 18 23 29 34 39 34 35 41 50 43 43 50 58 66 81 52 57 76 96 99 93 100 100 96 91 59 39 41 36 37 46 37
100 100 90 60 49 46 45 36 33 32 35 27 41 44 36 26 37 35 33 38 45 48 50 53 52 51 53 68 76 72 67 56 69 85 93 98 98 97 78 69 50 34 43 41 50 46 48
100 99 93 63 48 49 42 37 38 36 32 22 55 51 52 36 53 48 47 50 56 52 54 56 59 65 57 71 72 68 64 60 68 56 74 79 86 94 85 86 67 37 48 48 40 44 41
99 100 84 49 53 49 42 40 40 40 36 30 71 58 66 52 59 57 54 58 55 51 53 58 61 56 60 63 67 66 60 60 64 57 57 72 73 90 56 51 44 40 35 36 32 35 39

GFSGBSN_925_rhum_090.txt.gz
RH
80 94 91 92 93 93 93 90 91 84 87 84 89 93 92 86 90 96 92 92 87 85 83 84 87 69 65 44 52 59 62 80 68 73 73 69 64 48 48 58 76 78 70 58 66 55 59
94 83 92 86 92 94 94 93 90 87 82 86 81 82 81 81 89 95 96 92 89 85 83 82 81 56 55 56 48 51 54 69 72 78 69 62 64 58 43 43 72 67 67 75 72 54 49
100 96 90 88 84 94 95 95 94 93 93 82 85 83 87 82 89 92 95 94 94 79 83 79 79 64 42 48 49 50 54 61 61 69 62 72 64 60 50 38 45 62 77 76 84 62 49
99 100 90 83 76 89 93 96 96 91 92 95 80 90 91 87 90 92 96 94 67 60 62 54 59 59 45 45 49 51 56 53 57 67 71 72 66 59 54 37 42 65 80 87 69 54 55
100 100 98 86 77 67 93 93 97 96 95 94 83 89 85 92 93 95 90 56 50 52 50 50 56 44 48 43 46 56 56 54 66 72 67 60 62 63 51 55 58 52 76 84 77 72 56
92 100 100 93 73 63 80 81 97 97 93 92 86 89 90 95 94 89 73 45 47 50 58 53 43 50 43 50 48 54 57 54 65 59 62 76 85 77 62 69 83 62 50 47 62 68 57
88 99 100 99 84 66 53 48 97 97 96 96 86 93 96 88 95 80 62 58 63 56 48 52 53 46 48 49 51 54 55 50 55 66 83 86 95 83 57 50 35 38 42 40 41 52 63
88 93 100 99 89 68 48 38 90 89 98 97 94 95 96 91 90 68 64 48 61 67 62 42 43 45 49 53 58 52 54 53 59 83 80 89 84 50 40 39 39 47 40 40 50 51 61
79 94 100 100 92 71 53 35 68 59 97 97 95 95 96 90 68 72 55 64 67 63 71 53 49 45 52 52 63 64 50 52 51 62 68 83 78 52 48 44 49 50 50 49 52 44 41
84 84 100 100 93 75 60 30 40 39 97 93 92 96 97 77 86 60 57 68 66 64 91 59 49 53 50 48 64 55 54 60 50 59 64 69 58 58 55 54 45 56 37 54 56 52 66
92 79 94 100 97 80 65 28 31 38 91 93 88 98 87 81 75 61 67 71 68 63 89 57 56 54 48 53 55 59 54 57 54 54 62 75 71 64 62 46 40 49 40 51 56 52 55
100 86 86 100 98 84 63 28 26 38 76 94 80 89 73 76 72 69 73 68 66 94 83 75 52 55 54 48 48 53 55 54 52 49 57 69 64 67 54 47 39 45 50 44 47 56 96
97 90 89 100 100 84 62 28 24 40 63 88 69 74 88 77 68 74 74 66 96 93 65 74 57 51 51 51 52 55 62 66 73 91 96 76 74 55 60 68 57 56 63 90 93 91 91
98 100 94 98 100 90 60 27 24 40 55 75 63 75 78 75 76 76 74 80 94 56 88 60 56 52 65 47 49 51 53 58 60 61 79 93 93 77 58 69 66 63 63 82 73 75 60
100 97 89 99 100 92 59 27 26 42 52 69 78 89 82 86 84 82 81 97 80 83 76 56 51 64 61 49 53 51 53 55 48 52 78 83 76 60 57 50 52 65 75 51 90 61 70
100 95 93 100 100 91 58 26 28 41 52 72 86 82 79 89 77 81 89 82 63 47 47 53 60 49 50 55 66 58 54 41 44 37 45 80 96 76 67 62 62 78 60 76 92 90 62
97 96 98 91 100 93 58 26 30 42 50 73 80 79 94 90 83 83 93 70 50 45 48 55 53 47 43 44 61 61 56 41 36 37 45 75 92 95 86 88 78 87 97 90 64 62 74
96 99 100 92 100 97 59 26 31 44 63 87 71 87 89 89 98 81 93 55 56 46 48 55 53 57 55 46 47 45 58 43 44 51 58 52 95 92 88 77 61 56 69 81 97 74 67
96 100 100 98 100 98 58 26 32 44 72 80 76 86 83 84 98 90 48 40 48 51 51 53 53 47 42 48 53 39 40 43 50 71 80 63 99 98 99 95 78 92 73 61 68 80 87
99 99 100 100 99 97 56 26 32 42 60 64 61 82 78 81 54 48 38 34 39 52 53 46 46 45 49 48 39 45 41 44 54 56 72 86 89 70 68 75 75 95 77 64 78 97 78
100 96 100 100 100 95 52 26 35 40 67 69 60 55 62 82 54 42 39 35 31 38 50 44 50 47 41 55 45 39 32 32 47 80 67 93 99 98 66 55 74 88 71 71 91 89 82
98 98 98 100 96 95 48 29 40 42 78 68 59 51 47 43 37 36 50 38 35 32 47 31 40 33 41 47 39 48 49 52 57 86 98 99 99 100 98 89 97 92 70 61 64 68 75
99 98 97 100 100 95 43 29 44 46 68 58 51 45 44 44 37 33 34 29 34 41 31 32 40 42 43 46 52 49 48 50 77 89 86 95 98 98 98 98 100 99 92 66 59 55 59
99 88 99 99 100 87 33 31 46 43 40 47 43 40 40 40 35 32 32 35 36 40 43 33 37 44 50 42 43 44 46 47 48 70 78 89 85 93 99 98 97 56 48 55 55 51 50
96 97 100 100 99 82 30 36 45 40 45 37 39 53 38 32 29 25 34 35 35 40 48 46 44 47 44 52 64 68 69 78 70 53 84 76 82 97 98 95 56 45 50 55 64 62 48
97 94 99 100 98 70 34 42 44 38 46 37 31 46 49 38 32 27 36 37 40 36 51 52 43 42 53 66 70 84 78 71 90 95 99 84 81 99 98 97 89 50 42 35 38 63 46
93 94 99 100 96 64 43 44 45 40 41 40 33 41 50 53 42 36 39 47 46 50 53 56 52 55 54 71 85 84 70 57 82 91 80 98 98 94 94 95 65 48 45 40 56 70 54
99 90 100 100 100 49 42 47 41 37 42 38 44 49 52 65 58 46 40 52 58 53 58 65 69 74 69 76 71 66 64 67 74 56 67 83 93 93 89 96 90 49 49 49 54 45 43
81 99 100 100 85 47 47 46 40 34 39 33 49 56 49 73 68 52 61 61 57 56 60 62 65 58 75 83 90 88 87 85 72 86 61 76 87 93 97 78 50 44 46 41 43 43 44

GFSGBSN_925_rhum_093.txt.gz
RH
99 100 95 83 81 92 95 94 93 94 94 88 87 86 91 83 85 91 95 94 90 87 83 74 82 66 65 54 57 52 63 69 67 66 84 88 87 81 80 74 78 86 69 70 80 79 64
100 100 99 94 78 68 92 95 95 96 95 94 91 89 88 92 88 90 90 90 92 92 79 70 76 59 66 69 48 50 53 57 64 67 79 89 84 80 72 75 73 78 76 73 72 73 73
87 100 100 100 90 77 64 92 95 96 95 94 95 93 90 95 90 90 93 94 95 64 59 47 57 76 52 53 48 53 55 57 56 68 74 81 84 82 64 80 63 64 84 76 65 80 79
84 86 100 100 100 85 66 56 80 96 95 94 96 94 90 88 94 93 83 58 66 53 46 47 58 78 52 45 48 54 56 57 69 72 69 66 62 67 62 52 67 82 76 85 76 78 69
89 88 93 99 100 94 72 51 71 90 96 94 95 93 91 93 95 91 52 45 45 53 51 46 57 60 56 44 50 54 56 69 62 58 56 55 61 69 64 63 79 69 94 88 80 79 81
99 91 90 93 100 100 85 64 41 88 95 95 97 97 94 94 94 77 45 50 41 48 52 52 53 53 50 56 51 54 55 61 63 62 67 76 84 82 74 78 87 74 78 85 83 78 76
99 98 95 90 99 100 95 75 41 64 77 84 97 97 95 97 93 63 48 59 65 65 48 58 56 53 52 52 53 54 55 58 59 71 89 88 84 83 73 63 53 50 51 54 61 68 71
99 99 97 92 87 100 98 72 43 48 48 70 97 95 95 94 78 54 66 69 67 65 66 46 47 51 50 54 63 62 55 61 67 94 80 84 82 67 60 54 52 48 48 53 68 64 70
100 98 99 99 85 97 100 76 47 37 41 53 92 92 93 83 62 64 62 66 65 65 80 58 50 50 57 58 66 70 64 64 67 82 78 80 80 68 61 60 52 51 56 53 71 63 68
96 100 98 99 99 99 100 83 51 29 40 43 88 87 92 70 80 60 64 58 60 64 87 65 63 59 56 49 68 54 56 67 54 78 79 75 63 67 69 61 52 63 49 55 61 70 84
84 97 96 98 100 98 100 96 55 27 40 44 81 84 89 84 77 70 66 55 57 64 72 53 63 52 52 60 58 65 54 67 63 64 67 74 77 73 70 58 45 54 52 59 68 59 64
87 92 96 85 99 100 100 96 60 27 36 46 74 80 78 77 75 70 69 65 67 84 67 77 63 65 65 55 57 61 64 59 63 57 61 72 66 71 64 58 51 48 54 56 56 67 91
78 85 94 89 97 100 100 99 56 28 34 47 64 75 84 80 76 71 71 75 90 73 63 72 66 58 56 61 64 65 72 73 82 78 78 82 75 72 60 66 61 55 69 95 94 95 88
76 80 89 96 97 100 100 99 64 31 36 50 60 79 82 79 72 70 77 87 67 65 86 60 59 59 68 56 59 66 64 73 68 75 93 93 74 81 66 72 72 73 75 88 81 94 72
72 82 82 91 88 99 100 98 77 34 42 49 72 85 82 81 76 79 91 94 68 80 78 71 62 72 70 61 56 59 66 67 52 62 83 95 83 68 62 59 60 68 81 57 86 78 84
71 80 83 93 86 99 99 99 72 31 44 66 87 88 83 80 78 82 94 85 65 63 55 56 70 65 64 64 70 72 62 51 56 49 56 72 93 77 68 61 69 72 65 76 97 94 78
70 81 90 95 83 100 99 98 77 33 44 75 82 95 93 82 79 95 91 94 58 49 50 61 64 62 51 51 72 67 59 51 44 58 53 75 92 94 80 90 86 91 93 84 76 74 74
76 92 97 96 90 98 99 99 54 34 55 91 85 98 95 82 96 97 98 63 52 54 53 59 57 64 67 62 57 52 69 56 56 67 89 79 98 99 98 79 64 65 83 80 92 84 78
86 97 95 86 100 100 100 99 42 44 64 86 93 98 92 88 98 95 58 44 54 56 61 64 66 60 50 53 60 50 44 57 59 70 83 85 99 99 99 98 87 98 84 86 88 91 91
98 99 81 98 98 100 100 96 39 43 48 60 77 97 92 95 92 62 55 45 53 53 54 54 52 49 56 59 53 55 45 49 54 79 70 81 100 99 93 95 84 99 79 76 94 99 85
99 99 98 99 93 100 100 88 35 41 51 68 72 76 74 95 87 53 34 35 41 57 57 47 56 58 49 59 59 55 47 48 59 81 90 92 99 100 96 81 94 95 83 86 99 86 81
99 99 96 98 96 100 100 90 32 38 65 71 67 60 53 53 52 51 50 37 41 40 46 40 56 45 44 49 46 59 62 59 64 82 91 98 96 99 98 87 97 85 80 81 81 85 84
96 94 96 99 90 100 99 80 29 42 80 73 57 48 44 54 45 46 50 35 45 38 38 40 43 46 49 57 58 59 56 57 71 83 79 90 98 94 93 99 99 98 94 82 66 67 75
90 99 95 98 89 100 100 64 29 41 59 44 43 44 46 43 45 39 38 36 51 42 41 43 42 45 53 48 53 54 58 58 59 83 73 91 92 96 95 99 96 60 53 62 66 54 57
92 93 100 98 90 100 100 64 30 41 57 39 38 55 45 44 38 37 45 42 45 47 45 47 54 52 51 57 72 77 87 77 77 56 92 80 87 97 100 97 77 47 44 68 74 68 55
88 92 99 96 100 100 100 73 30 40 66 41 34 45 55 41 35 32 42 40 51 57 62 58 48 45 53 77 79 89 91 80 92 100 93 85 84 88 95 96 85 54 42 38 40 60 56
93 93 98 87 92 100 100 78 36 43 54 40 34 36 51 61 56 44 48 49 54 58 72 62 58 58 57 82 94 95 82 62 81 96 94 98 97 89 88 96 80 50 42 40 51 53 56
84 96 99 87 84 100 100 79 41 46 52 46 42 39 54 76 66 61 55 59 59 62 75 71 76 79 80 84 91 92 79 78 80 71 82 84 96 96 88 99 94 52 46 50 57 51 46
96 98 96 100 100 100 100 89 52 53 53 42 38 51 56 77 74 66 68 65 59 60 76 73 71 70 85 91 95 95 92 93 80 92 66 79 89 91 99 90 80 75 64 61 57 52 47

GFSGBSN_925_rhum_096.txt.gz
RH
91 95 98 100 100 99 84 84 92 93 95 95 93 90 89 90 94 89 93 91 88 90 90 88 80 58 56 58 58 50 58 57 67 78 79 75 84 86 82 87 90 90 92 78 80 75 75
96 90 93 97 100 100 97 95 82 90 96 96 94 94 91 91 94 91 93 95 95 94 92 87 81 53 58 68 46 51 55 56 61 72 81 80 81 78 95 81 76 84 92 78 78 82 74
95 99 92 93 95 100 99 94 91 57 94 96 95 93 92 90 93 91 94 87 68 74 60 70 78 66 69 53 48 53 56 58 57 76 83 80 83 93 71 78 71 80 88 85 78 88 85
99 98 96 98 96 98 100 98 93 62 89 98 96 96 93 93 96 94 73 43 47 54 52 53 70 63 60 44 49 54 65 72 72 74 78 71 83 87 71 64 68 84 81 95 87 88 82
99 98 99 94 100 93 100 100 94 78 88 94 97 92 93 95 96 97 55 37 42 48 51 54 55 60 61 44 52 53 57 66 61 58 62 72 75 72 61 79 84 75 98 90 86 85 88
98 100 99 99 96 100 100 100 98 84 90 83 97 88 85 81 94 95 51 39 38 51 51 55 53 51 46 61 54 53 55 61 62 60 58 71 75 72 78 76 88 84 94 85 79 88 86
89 98 100 99 99 99 100 99 100 90 95 74 90 90 78 74 94 85 58 55 63 61 51 53 54 56 53 53 52 52 58 58 58 73 79 81 74 76 69 64 58 57 76 75 67 70 77
70 78 88 95 99 94 99 95 100 91 90 55 84 92 77 63 78 70 71 66 67 64 64 50 51 53 51 55 68 57 56 64 72 90 80 76 70 78 72 64 58 56 59 63 68 64 71
71 70 75 85 99 96 94 100 96 97 81 59 78 86 73 55 64 71 66 64 65 66 73 58 50 51 52 57 67 68 65 71 75 80 76 79 75 69 65 64 58 56 57 67 71 76 72
71 72 71 83 89 95 95 99 100 98 73 53 72 85 74 58 78 66 63 58 60 65 84 64 65 59 58 52 62 53 59 68 56 80 75 76 64 69 71 63 55 64 52 51 69 80 94
68 69 72 75 87 95 86 96 100 100 91 69 64 81 75 72 82 72 65 60 58 59 55 46 67 52 56 62 56 62 55 67 70 68 66 71 77 82 72 62 54 57 52 62 70 68 63
68 69 69 70 81 84 89 92 100 99 88 76 72 76 72 80 82 71 70 60 64 79 45 78 71 76 74 58 60 61 63 60 64 61 66 72 64 73 71 63 57 48 61 64 80 89 94
68 68 71 70 73 84 84 94 100 100 88 78 81 78 71 82 80 72 69 72 85 62 62 69 75 67 62 68 66 68 73 72 80 82 84 78 73 71 64 66 60 59 89 99 98 98 92
71 68 69 74 71 81 79 94 100 100 85 93 84 81 82 80 74 71 74 80 44 58 83 56 63 61 69 64 65 72 69 83 72 70 95 97 72 82 70 67 71 73 91 92 83 92 78
75 71 67 74 72 78 84 92 97 99 81 92 88 89 82 78 74 74 85 98 51 75 74 76 69 74 71 65 56 68 76 71 61 65 92 97 84 68 69 65 62 74 87 60 83 81 88
78 72 68 67 73 75 84 94 91 100 80 86 88 88 86 82 76 79 92 82 68 63 62 60 72 70 75 70 71 74 72 59 59 57 54 69 98 74 68 66 74 68 64 89 98 97 85
80 73 69 69 76 80 93 86 89 100 89 80 84 96 93 79 76 91 97 79 68 53 52 63 71 68 60 58 72 76 64 52 50 66 60 66 90 88 86 89 89 86 92 81 71 68 82
77 72 68 69 78 80 96 89 90 99 71 90 88 98 96 80 96 94 98 87 50 58 55 59 60 64 68 61 62 68 71 61 64 63 64 74 96 98 84 85 84 80 77 70 83 83 78
75 67 74 78 85 90 96 85 99 91 89 84 98 98 97 87 98 98 80 47 54 62 64 69 70 66 62 58 61 55 48 56 63 73 82 81 100 97 97 93 91 99 83 80 88 88 88
71 80 88 88 88 97 89 97 100 86 89 60 92 99 95 97 91 89 65 53 58 55 60 60 57 53 57 62 57 60 45 50 64 78 69 81 96 98 96 98 98 100 98 84 87 98 87
73 91 91 94 100 93 89 99 99 82 72 66 77 80 81 98 96 77 52 49 54 64 55 55 57 54 52 58 57 58 52 54 75 81 84 86 93 94 90 87 99 100 97 98 99 88 85
81 85 98 100 98 91 100 100 98 74 75 72 78 74 66 68 61 73 47 44 41 49 61 53 57 46 44 53 49 51 60 60 64 76 82 92 94 97 84 80 86 88 96 97 98 92 80
79 98 99 97 93 94 99 97 100 75 90 79 64 50 46 54 55 51 54 40 44 46 46 41 48 48 46 48 58 58 58 58 72 81 80 91 98 90 83 76 91 92 84 90 88 86 89
85 92 92 94 95 94 100 99 100 86 71 52 49 50 47 44 47 44 48 42 49 35 47 45 43 45 49 48 53 57 62 64 65 77 74 88 93 96 92 96 97 70 57 69 76 66 64
87 91 91 90 99 92 100 100 99 75 59 44 40 45 51 50 44 42 43 53 54 48 49 53 57 52 52 56 73 73 87 73 84 77 85 81 88 97 97 96 85 52 46 73 78 68 62
86 90 87 94 99 95 100 99 94 74 72 33 44 36 53 43 37 40 44 44 55 64 63 62 49 49 61 80 78 92 92 86 94 97 90 86 81 78 90 96 84 57 50 44 49 64 64
86 88 91 95 92 91 100 99 97 80 69 28 41 30 43 58 62 51 46 46 55 64 77 66 58 59 62 83 95 96 82 67 79 91 93 92 92 96 91 99 81 76 65 50 55 54 64
86 93 96 96 91 98 100 100 89 88 80 38 54 40 43 74 74 76 70 60 63 64 73 72 72 76 84 86 90 91 85 82 84 72 88 85 96 96 92 99 94 91 73 78 77 67 56
88 94 94 80 95 97 100 100 96 93 74 39 55 46 37 78 79 70 72 72 63 58 79 77 68 77 83 91 97 96 92 95 83 88 63 91 90 90 92 81 85 87 88 65 74 73 74

GFSGBSN_925_rhum_099.txt.gz
RH
97 94 95 98 97 100 100 100 93 85 95 94 96 95 96 91 91 90 90 93 94 92 92 92 91 59 47 57 58 48 57 56 63 84 88 75 84 88 88 83 90 94 89 82 80 76 75
98 98 98 96 96 100 99 100 100 91 83 94 96 95 97 95 92 92 92 95 96 93 95 95 93 59 52 72 47 52 58 57 58 74 80 67 73 79 92 89 84 86 93 82 80 80 80
100 99 98 98 99 97 100 99 100 98 84 73 94 96 97 95 94 93 95 96 90 57 58 90 94 74 57 55 45 52 65 63 58 71 74 74 76 81 78 90 73 88 92 78 82 81 81
95 97 98 98 97 98 99 100 99 100 92 71 94 97 97 97 94 91 66 80 52 48 52 61 90 69 54 42 48 53 59 65 69 78 80 83 80 84 82 75 81 90 91 98 82 81 73
79 83 89 97 98 98 94 98 100 100 98 82 95 96 96 98 95 76 42 41 42 45 50 57 64 58 59 48 52 52 56 62 64 58 60 70 76 72 63 82 89 82 98 100 88 84 81
73 72 74 78 88 96 99 98 100 100 99 90 94 92 96 92 94 72 41 37 38 48 52 56 58 47 47 58 52 52 56 60 64 62 56 68 71 72 77 73 88 97 93 91 93 87 87
72 73 74 74 79 82 96 96 97 100 100 93 74 91 93 85 91 67 47 51 63 56 53 55 55 55 52 53 53 49 58 60 59 69 78 74 80 82 83 77 67 70 78 79 78 79 86
72 74 74 75 73 78 91 96 97 99 100 97 82 87 93 82 89 65 65 66 65 60 63 52 53 54 52 57 64 56 56 64 72 73 74 68 73 80 76 64 61 60 74 70 68 75 75
71 71 71 72 72 73 77 95 100 94 100 100 89 92 87 81 76 64 66 64 66 66 72 60 52 52 53 56 66 61 64 68 73 80 75 66 70 71 66 62 60 60 63 67 71 79 74
73 72 72 73 73 71 74 82 89 99 100 100 89 94 86 82 77 69 64 62 61 64 82 56 71 59 60 56 57 53 60 65 58 78 75 74 68 70 67 65 57 64 54 54 84 86 94
75 74 75 74 76 76 72 80 85 94 95 100 96 83 85 90 74 70 66 55 52 55 62 44 71 54 58 63 55 63 56 66 70 72 64 63 76 77 71 64 59 59 57 62 82 72 73
78 78 76 77 74 75 75 78 84 79 90 100 96 76 94 98 83 72 65 53 60 82 47 77 73 80 75 65 60 62 64 61 63 63 68 69 65 76 70 63 61 51 69 83 90 84 95
88 85 81 78 77 74 76 75 76 84 86 100 95 86 98 82 79 71 62 66 88 84 63 73 82 78 71 69 65 69 72 74 76 84 87 78 72 69 69 71 59 69 83 98 98 98 92
88 85 83 83 79 74 73 76 78 83 86 99 91 89 96 86 74 69 65 81 94 47 81 56 67 67 72 69 66 71 72 86 74 66 94 96 74 79 71 69 70 82 92 93 89 95 94
92 91 90 84 82 74 72 73 77 83 97 97 97 94 97 81 74 69 80 97 75 63 71 77 73 77 74 68 62 73 80 75 67 75 81 97 83 63 71 68 64 80 93 81 98 81 90
86 95 89 83 82 75 70 75 79 92 99 94 98 98 89 77 74 74 91 93 69 62 65 65 64 72 77 74 73 78 72 63 61 66 58 70 96 72 69 74 79 73 72 91 98 96 92
93 94 89 84 81 73 72 76 84 95 99 97 96 99 91 79 78 85 98 89 67 57 55 64 72 77 68 68 75 80 70 56 57 62 60 66 89 79 94 94 87 90 89 78 78 86 91
87 95 95 92 78 74 74 81 89 96 96 94 96 98 94 82 96 95 99 90 56 60 56 62 63 64 67 64 66 81 73 72 68 62 71 67 85 89 87 88 91 86 78 75 87 90 80
90 96 85 81 77 81 77 84 91 98 98 96 98 99 98 91 98 98 90 66 58 64 63 66 68 64 63 64 62 61 63 59 67 71 76 70 96 97 88 95 90 99 87 76 77 82 89
94 92 88 78 87 88 87 90 95 99 99 84 98 98 100 98 95 94 75 55 56 56 66 65 62 59 60 63 58 60 53 60 70 85 80 75 91 92 92 91 98 100 100 82 83 98 84
91 85 77 88 94 82 92 94 97 99 98 87 92 91 87 97 95 94 64 58 63 66 54 59 60 56 62 67 60 64 51 50 68 80 89 82 78 83 87 87 90 96 98 100 99 82 83
82 78 88 81 87 99 99 94 92 97 95 97 89 81 81 88 81 93 66 52 57 61 64 59 54 48 50 60 54 58 56 57 58 71 83 89 90 96 96 70 86 92 80 91 99 98 92
75 73 91 98 90 89 88 95 93 100 97 97 71 53 53 65 82 77 59 38 47 53 47 46 56 50 46 44 54 58 55 62 75 78 78 93 97 93 84 73 92 89 82 74 77 87 94
75 75 85 93 88 87 99 98 99 92 90 72 55 51 50 57 58 48 51 46 52 36 53 46 44 42 50 51 57 62 65 64 64 64 75 87 93 95 97 93 88 58 57 68 72 75 81
75 77 88 94 86 93 98 100 99 89 81 78 46 46 47 55 45 45 49 62 52 56 55 56 58 54 54 57 74 79 87 78 80 92 79 81 90 96 96 93 76 54 60 70 86 73 64
78 76 86 90 89 92 94 100 99 96 81 98 48 50 46 47 42 43 49 45 55 67 65 63 52 54 66 79 76 89 90 85 92 95 92 86 80 84 89 98 95 75 81 68 57 69 69
80 76 82 93 94 90 94 100 100 94 96 78 46 48 43 70 70 49 48 44 60 66 77 68 62 65 64 84 95 96 86 70 94 94 91 82 85 94 96 98 82 92 90 69 63 67 81
88 78 82 92 92 89 96 100 99 99 98 48 53 43 42 84 82 79 75 60 61 64 66 72 66 73 85 86 89 93 87 81 83 75 88 93 91 86 90 100 93 90 74 74 86 80 80
92 80 82 90 82 86 95 98 100 100 76 42 47 51 40 80 81 72 72 73 76 64 80 79 58 79 81 89 97 96 94 97 84 85 63 90 81 86 85 76 82 87 79 68 78 83 84

GFSGBSN_925_rhum_102.txt.gz
RH
99 99 98 98 97 97 99 99 100 97 99 94 91 95 90 96 96 92 94 94 94 89 92 94 95 94 65 56 58 50 59 58 57 82 88 83 88 90 92 86 87 89 87 83 91 84 75
92 95 97 98 97 97 97 94 98 100 99 98 80 95 95 95 94 94 95 96 96 96 94 63 95 95 61 66 45 49 60 61 59 65 84 88 84 90 77 83 76 89 87 86 88 84 79
81 79 81 89 93 98 99 92 88 97 100 100 89 89 96 93 96 94 96 96 94 57 59 53 92 94 72 56 47 53 59 71 67 67 78 77 80 80 80 84 82 83 85 86 88 81 80
77 76 74 76 77 77 83 90 87 89 99 100 100 89 96 86 97 96 97 96 61 47 48 51 81 74 65 39 50 53 56 62 65 77 80 79 79 79 77 75 82 86 92 100 84 83 76
77 72 78 79 76 77 77 88 96 92 94 100 100 94 86 73 96 92 97 53 44 43 50 54 62 64 62 44 52 52 57 60 63 61 60 73 72 72 68 86 93 87 99 100 94 82 78
76 75 74 72 76 76 75 74 88 95 98 99 100 99 83 58 85 80 94 44 39 45 52 56 60 52 44 58 52 51 57 60 64 61 54 67 69 77 77 77 92 96 96 94 97 86 74
86 82 75 74 73 74 74 74 73 90 98 98 100 99 83 66 87 84 83 53 57 56 52 60 60 58 56 53 54 50 59 62 59 65 74 71 83 86 84 79 69 76 84 88 86 85 81
79 77 80 76 73 74 74 72 73 73 81 98 100 100 90 91 82 89 88 68 58 54 63 54 58 58 53 57 66 54 57 64 68 74 65 68 85 76 79 74 62 72 82 83 85 85 80
74 74 72 70 76 71 78 77 74 78 82 90 96 99 90 87 81 90 79 63 64 64 73 63 54 55 54 57 65 62 66 66 75 78 78 67 68 70 65 61 61 61 70 70 83 88 78
84 81 78 75 82 78 78 78 76 77 81 79 87 99 90 77 86 80 70 61 62 60 83 54 73 60 60 57 57 53 61 68 64 78 78 75 70 70 66 66 60 65 56 58 88 86 91
90 89 87 86 84 77 82 82 76 77 80 74 99 100 90 92 89 73 64 57 56 51 84 45 73 54 60 63 58 61 59 62 72 75 67 65 81 78 73 63 59 63 63 68 85 81 85
89 93 92 89 88 88 84 84 78 76 79 78 98 100 90 99 95 77 65 55 59 82 78 76 78 80 75 68 60 63 67 60 65 66 69 70 68 78 70 65 63 60 76 84 90 83 98
88 88 88 92 92 90 88 86 79 74 79 79 87 99 95 94 85 72 61 66 85 94 65 80 90 86 75 72 67 70 71 77 74 78 87 78 69 67 72 75 61 70 74 96 98 99 93
85 84 86 89 91 91 91 87 79 73 79 86 87 98 94 86 84 72 66 79 95 56 77 56 74 77 78 71 68 74 75 84 74 68 97 96 73 70 68 72 71 82 77 89 88 97 94
87 86 88 88 90 94 90 87 77 74 80 93 98 100 96 84 83 74 80 96 78 65 67 80 72 78 80 70 64 74 79 76 69 77 78 96 82 60 68 70 68 84 97 74 90 80 92
88 89 87 86 86 91 92 85 66 75 83 96 99 96 90 85 78 79 93 85 72 56 68 68 58 69 78 79 76 80 74 66 65 73 59 69 94 69 76 75 81 77 75 96 99 96 95
88 89 90 89 91 93 81 84 73 77 87 92 93 96 83 84 82 88 97 88 68 62 58 64 65 84 68 78 77 82 70 64 69 63 66 70 86 74 84 93 89 95 100 90 87 84 92
90 93 92 93 98 78 88 82 78 82 92 99 93 99 99 83 98 93 99 85 63 64 58 63 64 64 73 69 79 81 77 69 64 68 73 67 85 88 72 76 91 80 97 96 92 97 83
92 88 93 83 68 82 82 81 82 82 91 98 96 97 100 88 98 97 90 90 69 65 64 65 67 62 62 65 61 73 68 64 73 72 86 79 96 96 75 82 87 100 98 93 100 86 92
90 85 88 90 88 86 81 79 90 90 89 99 99 100 100 98 95 91 93 74 65 59 67 64 65 64 63 64 60 65 64 67 71 87 77 74 89 82 89 78 90 98 87 93 100 98 94
90 79 83 84 87 91 94 94 96 96 93 99 99 95 84 98 96 93 85 60 64 68 59 60 63 64 68 74 62 70 51 49 70 76 86 86 86 84 73 80 89 92 87 85 99 97 96
90 75 77 78 85 98 97 81 91 89 85 100 98 92 92 93 86 92 90 70 63 69 63 64 57 58 56 63 54 62 58 53 55 66 83 85 91 91 88 80 84 85 82 83 88 94 98
90 85 78 77 85 99 93 96 96 96 88 93 90 59 70 85 93 90 88 60 56 56 46 51 58 52 49 47 55 58 61 68 77 74 79 95 92 96 92 71 84 92 84 80 76 86 84
86 91 79 77 86 87 80 88 91 95 99 90 72 56 69 82 82 71 56 47 54 37 53 49 44 41 53 61 64 64 70 69 68 76 75 92 92 90 97 92 87 63 61 66 75 72 71
86 90 85 76 84 91 93 89 99 92 88 92 64 56 56 63 54 46 54 63 55 61 60 60 60 57 60 59 76 83 88 80 90 84 85 81 92 95 92 91 75 63 78 68 92 100 78
87 86 90 77 79 87 91 81 100 100 86 66 61 53 51 52 48 52 56 48 54 69 68 65 56 60 67 76 73 89 94 88 85 90 90 88 88 91 92 96 95 82 85 79 75 95 84
88 86 90 85 77 84 88 90 100 83 75 71 56 54 52 70 80 65 48 46 59 65 75 70 64 68 65 84 95 94 84 75 95 96 88 82 90 92 98 100 77 72 86 78 79 71 86
87 87 92 92 78 80 94 87 100 91 86 86 59 48 53 84 85 84 81 59 63 64 68 73 69 77 81 85 90 94 88 84 83 79 86 88 88 80 90 94 90 85 76 68 83 83 85
86 88 93 91 80 77 79 79 100 98 100 90 46 53 51 78 81 72 73 73 74 65 81 79 54 78 79 86 96 96 95 98 84 89 73 94 82 88 85 80 71 85 76 74 84 88 85

GFSGBSN_925_rhum_105.txt.gz
RH
84 79 77 79 84 87 91 94 84 90 91 97 99 100 98 96 95 96 92 92 93 91 93 95 87 94 81 59 59 48 55 66 60 70 84 89 84 87 88 80 83 83 83 73 74 83 92
83 84 81 78 79 78 78 79 85 94 95 85 98 100 95 84 95 98 95 95 94 95 96 88 84 85 74 71 46 48 56 70 61 66 80 82 80 85 79 80 80 79 79 78 74 82 84
84 82 78 81 81 80 80 78 81 93 98 99 92 100 98 86 88 98 95 95 95 96 72 76 87 86 79 62 45 52 56 66 72 73 77 83 83 88 73 87 75 75 76 80 84 88 86
86 84 78 74 77 77 79 78 78 76 92 98 98 100 99 93 86 81 97 76 78 89 67 74 94 72 75 39 47 52 54 59 64 77 78 80 82 81 78 73 81 84 83 98 79 87 78
82 83 83 80 73 72 75 77 76 77 78 83 96 99 100 93 78 84 96 65 40 49 71 76 68 58 66 44 50 51 54 62 62 61 60 67 73 75 86 91 93 79 91 99 84 84 90
86 88 88 90 87 84 78 76 77 76 78 80 90 96 100 92 75 75 89 68 34 42 61 61 65 58 45 57 51 51 52 62 65 60 53 64 68 81 71 76 82 93 95 89 91 87 86
92 88 84 79 82 85 84 84 80 78 80 82 91 95 93 96 71 84 85 53 52 59 56 52 53 60 55 53 56 52 56 63 61 58 67 62 79 87 82 81 73 76 81 88 86 81 91
88 90 87 82 85 84 79 82 80 79 80 82 85 75 97 92 80 86 84 75 60 61 70 57 58 59 54 56 67 53 59 65 64 65 63 70 86 74 77 79 66 77 84 88 84 83 80
85 86 90 92 92 88 84 78 82 80 80 82 85 81 100 96 76 82 79 68 60 68 78 61 57 56 52 58 64 61 65 65 70 74 74 67 65 71 64 62 64 69 77 84 77 84 83
82 85 86 89 93 94 93 90 83 76 78 82 87 95 98 88 89 80 76 61 59 66 86 59 73 59 61 58 57 52 62 66 67 78 78 73 70 72 68 67 61 66 58 60 86 90 93
83 86 84 84 89 91 95 95 95 88 77 80 81 87 100 91 96 86 65 63 59 57 80 55 73 56 61 61 58 63 61 60 77 78 65 67 79 77 76 63 60 62 65 77 83 80 85
78 77 83 87 86 92 94 95 96 94 82 79 78 81 99 98 94 83 66 57 58 83 76 76 78 78 77 69 61 63 65 59 66 67 68 70 68 78 71 70 64 69 77 82 86 81 94
82 86 85 86 88 88 90 91 96 95 85 80 62 78 100 92 90 75 66 66 89 96 61 76 90 87 75 73 68 68 73 73 71 70 80 72 68 68 74 78 64 69 77 95 97 97 89
84 84 85 86 90 89 89 93 92 87 88 68 80 84 99 84 90 75 63 83 97 77 69 58 79 80 76 70 72 76 74 80 74 71 93 94 67 64 75 73 74 86 82 86 91 94 87
83 83 86 89 91 90 89 90 91 77 84 66 95 100 99 90 93 73 83 98 87 84 62 79 71 77 80 72 67 74 78 76 68 73 72 92 80 60 68 73 74 84 99 74 86 82 82
83 88 88 93 88 91 91 95 84 80 78 65 98 95 94 86 87 70 95 86 86 60 68 70 60 70 80 81 74 79 75 65 68 72 60 70 96 75 79 75 88 85 83 99 98 96 94
81 85 91 88 89 82 86 93 84 80 74 77 99 96 90 98 79 90 99 89 78 60 63 67 61 79 66 82 75 83 71 71 70 69 71 71 87 74 69 86 91 95 98 94 95 82 83
77 87 86 89 87 72 88 91 83 80 82 88 92 100 93 95 97 94 100 86 68 66 62 63 61 66 70 77 81 80 78 69 69 76 73 71 80 89 75 87 90 83 100 100 95 97 77
78 89 91 86 88 80 80 84 84 82 82 95 96 96 100 100 98 98 92 86 80 67 65 64 66 62 62 67 62 73 71 67 75 84 92 80 92 92 71 75 69 86 88 93 99 96 92
82 86 92 81 88 82 86 93 82 87 84 94 96 100 100 99 94 88 89 84 79 61 63 61 66 62 63 66 67 69 70 71 71 87 74 71 89 80 82 67 90 91 82 81 96 99 96
83 82 92 83 82 89 97 83 82 89 82 96 96 99 90 99 99 92 84 79 65 70 62 63 65 65 66 73 65 71 53 53 67 71 82 80 91 93 83 78 80 76 87 90 95 89 99
86 81 89 92 81 84 91 96 85 97 96 93 99 98 92 93 89 90 90 89 68 65 69 72 60 67 56 57 46 67 59 51 50 63 84 89 84 97 90 69 81 89 78 76 86 77 84
82 83 86 92 84 82 88 94 87 98 96 88 77 73 81 89 91 92 86 83 59 59 48 52 59 54 57 52 55 63 65 71 79 73 84 92 94 96 90 77 85 86 73 80 79 81 84
82 85 86 89 92 80 86 89 83 78 96 87 71 67 74 90 89 85 67 76 55 45 51 55 44 44 60 66 65 65 73 79 85 90 76 92 95 82 93 87 85 87 68 72 87 95 91
84 85 86 84 91 88 79 87 78 90 81 98 87 61 58 72 79 62 57 61 57 62 64 64 66 64 67 58 81 85 88 80 91 80 87 83 91 94 91 87 74 74 82 81 88 98 97
83 84 87 84 91 89 82 81 81 92 98 100 95 62 51 55 61 59 56 52 52 67 65 66 59 62 64 72 72 90 93 89 83 88 88 89 89 89 92 99 88 68 76 79 82 95 96
82 87 88 89 91 94 86 77 84 100 100 97 72 57 46 67 84 79 54 52 55 60 73 70 67 70 66 83 94 92 78 78 95 93 83 82 82 94 97 98 73 60 80 79 88 78 87
89 90 90 89 90 95 93 69 82 100 96 74 66 52 47 87 87 83 82 58 61 62 67 73 68 75 82 82 89 95 88 87 86 81 84 86 93 93 85 92 81 78 72 71 74 82 82
88 91 92 88 90 90 91 70 80 100 87 70 58 51 52 81 82 73 74 74 78 70 80 80 52 78 78 83 94 96 94 98 83 88 80 92 78 85 80 74 59 83 74 77 86 92 88

GFSGBSN_925_rhum_108.txt.gz
RH
84 84 86 84 85 83 81 81 82 80 89 96 99 99 99 98 91 80 95 92 95 93 93 87 95 94 70 50 46 46 52 64 59 72 72 71 69 69 62 59 69 63 69 73 72 78 72
87 86 88 84 81 81 82 82 80 79 80 88 96 98 100 99 90 72 93 96 95 95 94 77 95 92 65 56 43 47 53 64 63 67 63 68 71 70 62 64 62 66 66 66 67 72 73
81 82 84 88 82 78 74 74 79 79 80 80 84 94 98 100 92 88 95 91 97 95 98 66 94 91 67 43 42 47 56 58 68 68 70 84 78 83 58 72 60 65 70 62 70 67 75
84 85 86 87 90 83 77 81 80 80 80 80 83 94 96 100 94 77 79 78 89 89 79 65 94 84 50 38 42 52 52 57 65 73 77 80 80 81 68 55 64 60 62 84 71 70 73
91 91 87 84 83 86 87 84 79 80 81 82 82 92 100 99 98 80 71 57 61 52 73 69 91 59 45 41 46 49 52 55 57 62 68 72 80 73 66 70 65 62 65 87 55 78 82
88 90 92 93 90 84 84 76 85 79 82 82 82 88 94 96 100 86 65 56 49 50 62 72 62 60 40 45 49 52 54 64 59 53 55 62 69 82 70 69 60 60 62 47 52 70 74
89 86 86 87 94 96 94 92 82 80 78 84 83 84 69 73 100 83 61 54 50 54 57 46 42 47 47 49 56 50 55 56 49 47 61 55 73 74 66 59 59 56 53 34 64 64 79
89 85 89 85 86 90 95 96 95 84 83 82 85 78 89 92 100 88 70 60 55 55 65 49 49 51 51 54 56 46 56 52 50 52 51 58 63 57 64 59 59 58 57 64 64 66 82
87 89 87 93 86 85 89 94 95 94 90 88 86 76 98 100 95 81 82 69 63 66 74 57 52 49 48 54 53 51 55 54 56 53 58 62 55 60 60 53 55 61 56 63 60 70 76
87 82 78 79 79 83 88 93 95 96 96 92 90 84 88 100 94 90 80 67 64 62 91 62 64 56 57 53 53 47 56 58 57 60 61 54 56 61 57 54 50 53 49 55 67 72 82
82 79 82 85 86 86 89 89 91 93 93 90 94 85 83 99 92 93 75 66 60 58 69 61 66 56 56 56 54 57 58 56 56 60 60 58 64 61 60 54 54 53 58 53 61 64 63
80 82 82 86 88 86 89 91 93 91 95 93 93 87 81 97 99 82 75 60 57 88 79 73 68 64 63 59 54 54 55 51 56 61 58 60 56 66 59 61 59 60 60 63 62 65 73
81 82 82 86 88 88 91 91 90 92 93 94 91 76 95 92 89 79 69 58 92 86 60 73 77 74 62 62 59 58 56 51 51 60 79 58 54 55 66 65 56 62 61 77 78 87 61
78 84 85 84 90 88 88 90 92 83 82 89 71 78 96 97 87 85 74 69 82 88 74 58 73 70 59 57 62 63 59 53 60 54 66 70 62 55 57 65 68 58 67 61 61 59 55
79 81 86 90 86 90 91 93 94 90 87 81 74 98 99 90 92 83 63 96 74 84 60 68 68 60 63 62 59 62 59 54 54 53 55 60 58 52 57 60 64 96 92 62 71 60 63
82 84 84 92 86 90 95 96 81 85 87 73 94 97 99 85 95 81 72 79 77 61 60 65 56 57 48 61 60 60 53 58 59 56 50 57 78 62 63 63 63 71 77 98 94 88 62
82 84 82 95 88 90 94 84 90 87 74 74 90 96 92 92 92 82 92 79 70 56 58 65 55 58 50 61 57 58 56 64 57 60 55 58 72 56 58 61 57 64 76 86 99 90 58
82 83 81 90 90 88 77 87 81 82 65 82 85 97 100 99 99 88 88 73 65 62 60 60 54 56 51 62 63 61 62 59 54 65 62 65 65 75 53 57 60 63 87 100 94 86 91
83 84 85 83 89 79 79 77 93 81 71 94 93 94 100 98 100 91 80 74 71 61 61 60 59 57 54 57 51 60 62 59 62 67 70 62 77 67 47 70 58 65 64 74 88 99 85
83 85 87 87 84 86 93 85 87 87 96 84 96 100 99 97 91 85 74 70 70 62 60 56 56 55 53 54 54 58 59 58 62 70 70 58 90 76 58 66 69 71 60 62 78 89 90
79 86 88 90 88 87 88 84 85 77 84 91 90 98 91 100 99 73 64 75 65 60 61 59 60 56 50 55 57 58 50 50 51 58 61 59 70 70 56 53 56 63 62 56 82 70 90
80 80 87 89 91 88 86 92 83 82 91 87 92 100 83 88 88 73 77 77 64 59 61 66 61 61 52 42 36 47 49 46 42 50 60 68 82 90 78 59 68 65 52 58 61 61 66
81 85 86 89 91 93 86 87 90 90 92 82 89 82 94 89 94 84 70 72 56 56 49 48 55 53 53 49 45 49 47 51 62 61 65 69 81 82 70 65 87 82 69 66 69 68 74
84 85 89 88 88 89 87 81 80 91 82 86 87 86 98 83 79 73 67 66 57 52 47 49 42 39 56 47 45 46 53 56 57 65 62 69 81 76 75 73 74 70 59 68 76 87 90
83 79 89 86 90 88 84 86 73 72 78 97 94 82 78 54 70 69 67 60 52 55 56 57 57 54 47 52 57 65 70 71 74 67 67 69 69 77 72 60 57 65 69 68 70 90 97
82 82 85 85 91 90 86 88 76 77 81 99 100 92 84 50 59 58 58 49 46 52 54 61 55 53 57 50 57 65 51 68 76 82 76 73 67 71 76 67 51 63 64 69 70 70 85
78 84 85 90 92 92 86 90 84 84 92 100 98 98 70 53 70 66 48 47 45 49 52 58 58 59 59 56 55 58 49 62 65 72 76 77 73 71 63 62 42 40 58 66 80 66 73
85 88 87 90 93 92 89 90 87 98 98 96 90 97 61 61 70 73 71 50 50 48 46 60 53 61 60 64 66 60 56 59 64 60 66 57 65 68 68 77 54 47 64 63 62 69 69
88 89 91 92 92 88 82 85 93 99 83 66 70 56 48 60 69 74 75 76 76 70 57 65 46 58 51 51 68 69 62 80 61 43 61 64 48 53 52 41 48 66 63 64 69 72 65

GFSGBSN_925_rhum_111.txt.gz
RH
81 82 80 82 85 80 77 76 75 78 81 80 80 81 99 99 100 94 90 96 93 92 93 94 94 93 74 44 37 41 49 51 63 64 61 57 64 57 67 50 49 58 54 61 65 73 75
83 81 85 82 85 88 82 74 80 80 79 81 81 82 97 95 100 97 80 95 96 94 95 96 92 87 69 53 37 42 47 52 62 59 53 56 60 62 71 56 54 47 57 58 60 67 73
89 89 90 88 85 86 86 62 64 83 82 80 82 82 92 99 100 99 99 96 96 96 96 97 96 81 64 46 37 40 48 48 59 68 68 73 72 81 60 67 54 53 63 66 60 58 64
86 88 89 91 94 92 86 89 68 79 84 82 82 83 81 96 99 100 99 82 90 92 84 96 95 74 55 38 39 42 44 45 56 60 72 69 76 83 67 51 57 60 65 77 53 59 66
86 86 86 84 86 89 96 94 92 82 85 82 83 84 84 89 97 100 99 85 85 97 97 95 84 65 43 36 38 41 45 45 48 52 66 70 83 72 58 70 71 50 56 81 50 58 65
86 87 85 84 87 86 85 92 97 96 88 85 84 86 85 97 68 80 100 83 90 77 82 71 59 59 39 33 41 46 45 53 51 46 53 59 72 79 76 83 96 56 51 44 54 59 59
86 84 86 87 83 88 87 88 92 96 96 91 88 88 87 94 92 83 99 70 62 64 53 47 39 37 36 37 46 44 45 46 44 48 60 59 78 74 52 50 50 49 43 38 30 52 59
86 82 85 86 88 85 84 83 90 93 95 96 91 92 87 88 100 100 86 70 50 61 54 42 40 38 42 45 48 41 46 47 45 51 45 52 66 49 54 49 51 47 41 39 47 50 60
88 83 83 87 86 83 84 86 91 91 95 94 84 94 84 90 95 94 90 71 61 63 61 54 45 42 40 45 43 44 44 45 46 46 45 57 56 48 50 50 48 44 46 43 48 53 54
84 85 81 85 88 85 87 89 90 93 90 94 95 92 89 83 95 96 81 68 70 71 90 62 57 50 48 47 49 40 46 54 46 54 46 44 39 50 50 49 43 50 42 46 50 54 52
87 82 84 84 83 85 89 91 91 92 92 93 91 84 91 84 94 97 76 73 72 63 88 55 59 50 48 51 44 48 49 48 51 44 53 54 53 55 51 43 49 51 48 47 45 48 46
84 76 82 82 86 89 91 88 89 91 95 86 83 86 90 71 92 94 84 75 66 91 83 69 57 55 56 49 45 46 47 46 47 49 42 45 43 52 54 52 49 48 51 45 45 53 66
87 79 82 84 87 88 84 87 89 90 95 89 84 92 82 80 76 92 83 63 94 95 60 71 64 55 47 49 49 47 46 44 48 61 70 49 42 41 54 56 43 50 57 76 75 78 56
86 78 83 85 92 87 86 92 96 95 94 88 88 73 85 90 80 92 74 72 98 75 68 54 59 55 48 44 47 50 46 41 45 41 53 56 59 46 42 53 64 59 57 73 82 60 41
88 77 85 83 92 88 89 94 95 85 83 77 76 74 95 92 89 95 68 100 75 73 56 57 57 50 51 48 48 48 40 39 44 41 50 48 45 39 45 50 54 75 77 55 70 44 46
90 79 85 88 91 91 91 92 93 82 85 79 82 82 99 100 98 86 82 80 68 52 52 54 41 44 36 47 45 42 37 47 50 47 41 45 62 47 43 45 52 57 65 81 76 78 54
94 84 84 90 86 88 92 88 94 87 69 71 82 93 92 98 83 76 94 72 60 50 52 51 42 40 36 41 41 38 40 52 48 51 45 44 51 50 38 52 53 54 74 73 97 88 90
97 85 84 90 91 82 94 84 73 94 75 80 80 97 97 89 98 83 72 63 65 57 52 52 43 43 39 43 44 42 44 48 50 55 48 50 51 65 40 44 48 50 60 76 76 95 69
97 85 84 89 86 83 93 88 83 86 94 79 86 95 98 95 100 87 63 60 61 54 54 50 46 46 44 43 42 44 48 49 51 57 57 48 66 68 49 60 54 56 51 49 81 95 84
96 85 80 88 91 81 89 80 83 79 83 81 85 100 92 94 94 84 62 56 60 54 54 49 46 42 41 42 40 44 47 50 51 54 59 51 89 74 57 62 59 64 50 42 68 86 71
95 88 82 88 91 89 87 70 84 78 74 81 78 97 88 97 94 75 58 61 58 52 54 49 48 44 39 39 41 41 44 48 43 48 45 45 71 57 49 47 50 52 54 46 72 67 81
95 94 81 85 90 93 88 73 85 83 78 64 82 99 87 95 73 63 64 65 58 49 51 54 49 49 43 36 33 32 38 39 35 40 48 55 82 82 76 52 56 53 41 42 49 53 56
96 94 83 81 90 93 85 85 83 87 82 66 82 83 86 90 86 68 59 57 53 50 45 43 48 44 46 46 39 38 36 40 52 56 54 59 77 81 63 55 81 82 57 59 60 59 71
95 96 82 84 87 93 87 86 86 90 86 76 80 79 99 87 69 64 57 57 52 50 43 44 37 35 48 34 33 35 38 42 47 51 53 54 75 73 67 73 73 61 54 60 60 70 76
95 94 82 84 86 92 88 82 77 84 84 95 87 66 72 57 44 54 62 54 48 45 49 50 50 43 36 45 44 49 59 62 59 56 51 57 59 67 68 43 46 52 56 59 61 70 93
96 93 82 85 86 89 85 82 80 75 86 94 94 80 73 79 52 49 54 49 44 42 46 55 49 40 51 40 42 60 37 62 60 70 70 57 54 68 66 60 42 47 56 56 58 68 74
96 88 88 80 88 94 87 87 82 82 80 87 95 90 73 80 51 53 46 44 37 38 42 50 52 50 50 41 44 43 35 51 50 57 61 72 69 67 49 54 32 42 49 56 72 73 66
98 84 89 86 85 93 93 92 80 76 93 100 98 93 74 63 56 59 54 43 41 40 38 50 48 53 48 52 52 44 39 43 49 41 50 49 56 56 47 60 51 43 58 61 56 56 56
98 87 84 92 85 91 87 89 78 86 97 96 94 99 82 59 60 64 65 68 66 58 45 48 45 45 38 41 55 56 47 64 48 33 46 50 35 42 41 38 43 41 49 50 53 54 57

GFSGBSN_925_rhum_114.txt.gz
RH
89 89 90 89 89 86 84 83 82 82 84 82 78 80 82 88 100 99 100 95 88 94 93 94 94 94 83 56 44 41 45 50 58 60 61 58 59 61 74 63 70 67 53 50 53 62 68
88 87 89 90 91 95 93 89 87 87 84 85 83 80 82 82 93 99 100 97 97 96 95 96 96 93 81 74 36 39 44 49 57 57 57 52 60 61 73 73 71 58 60 52 56 65 62
89 85 85 86 84 84 87 94 96 92 90 86 86 84 82 84 85 96 100 96 97 97 96 96 96 90 68 64 36 37 42 44 51 63 66 65 68 72 70 71 52 54 70 62 63 63 65
83 86 85 84 84 85 88 89 90 96 96 92 87 87 86 86 86 92 90 100 95 95 96 95 96 88 72 39 38 37 40 42 51 58 64 69 71 78 79 60 60 62 62 88 56 62 58
87 85 79 86 86 82 80 84 87 91 94 97 95 89 89 90 90 98 76 95 97 92 96 91 93 77 57 36 36 36 42 42 44 48 58 67 75 80 66 77 83 62 83 85 70 59 62
89 89 83 78 83 85 86 84 83 84 90 94 95 91 94 91 93 90 78 84 81 94 85 80 74 62 48 35 38 42 43 46 48 48 59 62 74 84 68 89 100 97 95 60 68 65 65
93 86 83 82 84 83 84 82 88 88 88 91 94 86 84 87 92 98 95 72 76 75 64 61 52 47 32 36 41 44 41 42 44 54 67 70 82 92 88 61 50 57 55 54 38 58 60
87 84 87 84 84 82 83 87 90 91 90 91 92 92 80 89 90 91 92 82 63 70 68 55 44 39 34 40 48 42 44 49 48 62 52 61 74 51 55 48 51 50 56 53 48 56 63
86 84 84 79 80 83 87 91 90 88 88 93 95 83 75 84 76 92 96 84 70 69 73 52 45 43 39 42 43 45 43 45 51 52 52 54 49 41 47 48 50 52 68 52 52 49 56
87 87 81 78 82 87 92 87 81 82 85 93 94 77 75 76 78 92 81 75 68 70 99 67 58 47 43 48 50 39 44 53 48 53 55 53 40 44 51 52 49 66 57 50 44 51 85
88 89 80 82 86 90 91 83 88 92 96 91 95 81 80 77 71 85 92 75 71 68 98 56 58 48 44 52 45 49 48 49 53 50 51 63 58 64 64 53 51 59 50 53 51 50 57
91 88 82 83 87 92 89 85 93 88 89 86 83 83 84 81 82 78 87 79 67 96 97 69 57 58 55 47 42 45 44 45 44 49 43 48 34 47 57 52 50 46 55 54 51 55 84
92 91 84 84 88 93 89 86 94 92 88 85 87 85 85 79 76 83 87 72 98 98 61 74 60 51 46 48 46 44 46 47 53 69 75 52 42 39 47 62 50 55 68 93 94 95 86
95 95 85 85 90 93 88 88 94 88 85 80 85 83 89 84 75 77 87 90 98 65 69 53 51 47 46 42 47 47 46 48 44 43 70 69 74 48 40 52 62 67 80 97 95 94 91
90 92 90 85 90 93 90 88 91 94 83 69 83 79 87 100 86 74 86 99 96 76 51 56 48 51 54 44 49 47 38 45 49 48 63 73 52 36 40 40 54 68 85 66 96 59 70
95 88 91 85 91 93 93 92 93 95 77 78 86 83 98 99 91 85 94 95 71 52 50 50 47 43 48 48 48 42 35 48 52 46 43 50 74 48 38 40 50 64 63 85 88 94 69
97 88 91 85 90 94 95 91 93 96 77 72 83 93 99 94 81 82 100 80 55 50 53 56 43 35 38 42 39 36 41 53 53 55 47 50 55 62 44 61 64 74 79 71 94 92 97
98 83 89 85 91 94 95 80 94 94 68 74 81 99 88 88 98 90 88 65 57 54 51 49 42 42 42 39 42 43 53 57 54 54 57 53 60 85 61 52 45 53 58 88 94 89 88
98 84 89 85 90 89 90 92 85 71 63 99 92 97 83 92 100 97 56 52 55 57 54 47 45 42 38 42 47 44 53 48 51 61 69 62 79 92 75 71 54 56 50 50 90 94 90
98 84 87 86 91 89 79 83 76 58 54 81 81 96 93 93 91 86 61 58 55 56 53 46 44 36 35 40 37 46 50 52 50 53 59 54 92 84 89 72 57 72 58 48 80 91 90
99 90 86 85 91 94 84 81 80 68 55 81 78 99 94 94 82 70 58 58 51 58 48 46 43 42 41 38 36 42 43 51 43 42 42 57 82 72 58 48 51 56 55 50 82 70 86
98 95 84 81 90 93 83 80 75 76 81 66 83 87 70 93 68 63 62 61 55 52 51 50 52 45 41 46 43 51 42 44 45 39 54 66 90 90 88 53 63 54 41 40 47 54 60
98 98 84 77 86 84 82 81 70 79 81 59 74 75 84 80 76 66 65 58 54 53 45 43 47 45 55 50 40 37 41 49 57 64 56 67 90 92 73 58 86 86 58 55 58 53 66
95 98 87 75 76 78 80 76 76 80 87 83 73 70 88 75 69 59 57 54 56 52 50 45 46 44 46 33 33 37 40 45 50 53 61 62 85 88 91 86 87 66 54 57 62 62 69
92 97 93 75 75 80 79 78 79 71 78 84 87 72 72 59 46 53 60 52 49 44 52 55 53 44 37 46 57 56 75 65 61 56 54 61 81 87 90 83 46 53 54 65 65 70 80
93 88 96 80 73 75 78 77 75 75 65 80 88 80 67 80 60 50 54 50 55 46 54 56 47 45 54 58 50 71 69 69 74 80 75 60 58 88 89 78 56 64 62 55 58 88 82
98 84 96 82 72 79 81 82 81 74 81 85 88 85 78 84 55 50 56 52 41 42 58 56 58 57 49 54 70 67 52 52 70 61 72 88 88 85 85 76 51 58 60 58 81 75 78
99 90 95 82 76 85 85 85 85 76 83 89 91 78 84 71 64 56 51 51 47 49 51 55 60 63 59 66 80 76 55 58 56 44 53 66 83 85 63 72 74 56 63 74 67 58 64
98 95 92 87 68 82 88 84 87 82 87 97 97 98 86 88 73 62 60 62 60 59 64 55 56 50 55 61 82 84 77 85 58 65 44 64 47 63 54 62 45 57 56 60 57 59 62

GFSGBSN_925_rhum_117.txt.gz
RH
89 89 85 87 87 85 84 87 92 95 94 91 88 84 85 84 84 87 98 100 95 89 94 93 89 94 78 87 72 48 47 56 58 64 67 71 78 72 80 68 69 80 73 58 53 58 56
86 84 89 82 84 85 84 87 92 93 93 95 93 89 91 88 87 83 94 97 98 98 91 92 92 88 96 94 42 40 45 50 57 60 61 62 67 70 77 84 82 69 74 75 67 58 69
87 89 87 81 86 86 83 83 84 86 88 90 92 96 92 92 90 87 94 96 100 95 87 94 87 88 91 76 41 40 41 46 53 58 67 65 70 73 81 85 70 66 80 64 62 59 69
83 94 91 83 79 82 85 87 88 87 88 87 91 93 95 95 94 87 98 96 94 97 90 93 86 93 88 49 42 40 38 41 50 57 64 67 72 83 83 72 72 72 69 87 57 65 70
87 89 83 88 83 82 83 83 85 87 87 88 88 93 93 89 94 87 91 89 71 93 91 92 87 92 86 41 38 34 34 44 55 56 58 69 74 89 80 89 86 79 95 86 78 54 69
85 86 86 86 77 80 82 83 87 90 90 92 90 93 85 76 85 77 87 82 87 91 89 92 82 76 58 41 39 42 43 44 52 58 72 72 84 90 85 92 96 98 92 84 86 61 70
84 87 88 86 78 80 84 88 91 82 78 83 91 96 84 75 77 73 82 82 88 94 81 78 72 64 44 38 40 44 42 48 56 59 79 76 94 92 82 74 84 84 68 78 67 66 74
89 89 90 82 78 84 88 92 80 81 87 89 86 88 78 73 75 81 92 89 78 76 80 68 55 55 43 39 55 52 43 60 64 83 68 77 94 70 60 67 76 56 64 85 81 63 68
93 91 90 80 80 87 92 88 86 92 91 92 94 95 82 73 85 83 95 74 77 75 84 59 58 53 45 44 54 58 46 55 58 63 62 74 58 44 51 60 61 57 69 74 66 49 63
97 92 95 82 85 92 94 87 93 94 96 77 82 84 77 77 77 83 88 78 71 73 98 73 62 53 47 50 59 44 46 56 58 59 56 64 54 58 64 66 63 77 57 57 62 69 79
97 96 96 85 86 94 92 86 91 93 89 83 94 81 81 85 77 82 85 76 72 72 95 66 64 48 48 59 50 54 48 56 62 63 57 65 57 61 66 66 58 72 59 60 65 71 64
100 98 97 89 87 95 92 85 90 92 87 85 90 87 85 80 78 84 75 76 71 96 95 70 63 65 63 53 45 49 49 49 48 58 49 57 42 49 57 54 60 57 64 65 64 69 87
100 92 96 91 87 92 93 88 93 92 92 70 76 84 82 75 88 77 84 81 99 95 58 76 66 62 64 53 51 49 56 55 57 70 73 62 48 41 44 62 58 59 80 95 91 94 89
99 96 93 92 88 90 92 91 90 92 81 79 78 86 100 84 77 72 79 96 92 71 73 55 54 54 55 48 52 49 52 62 57 58 86 82 74 50 45 52 68 75 80 98 96 91 93
97 95 89 87 88 91 94 91 92 93 54 80 74 89 97 93 82 78 89 97 96 73 59 60 55 57 58 45 51 51 57 63 59 60 74 82 66 46 43 45 62 73 90 67 97 93 90
100 97 82 87 89 93 95 92 94 93 60 76 79 80 99 95 86 80 97 79 75 60 63 57 56 44 59 52 52 44 61 61 69 61 57 60 77 53 48 50 53 67 66 79 91 94 95
100 98 85 87 92 94 94 95 95 55 72 77 79 93 82 76 74 90 100 81 66 54 58 58 60 50 49 47 45 49 71 63 66 68 58 59 66 66 58 69 76 75 83 84 87 96 97
98 99 92 69 92 93 83 93 57 65 70 74 87 98 76 80 94 93 93 65 63 63 56 52 48 52 50 50 55 58 70 63 57 63 69 61 72 89 74 57 50 58 67 84 94 91 97
100 99 87 70 90 83 74 67 65 51 62 99 94 96 74 87 95 98 65 57 60 68 63 58 53 48 42 46 60 54 66 53 57 65 69 64 87 89 74 60 54 64 58 66 89 92 90
100 99 87 75 82 82 74 64 62 49 57 77 93 96 91 93 94 94 71 71 62 57 56 54 48 43 40 44 44 51 61 55 50 53 54 63 90 78 89 77 65 74 62 58 79 95 91
100 98 86 79 75 77 72 66 67 54 50 70 96 94 90 94 85 77 64 63 64 64 53 52 53 52 48 47 41 48 51 54 45 40 50 66 84 80 62 57 53 64 57 55 75 71 88
100 98 87 78 77 70 74 68 74 68 55 66 95 97 86 95 83 72 69 66 68 61 55 57 63 54 53 55 52 54 53 58 56 49 60 70 96 92 94 63 74 57 48 48 47 55 63
98 99 90 82 69 70 75 65 76 71 67 74 73 78 94 82 84 79 71 61 62 51 48 48 51 51 59 50 40 41 53 63 61 63 62 77 93 95 83 66 84 76 58 57 63 56 67
94 99 94 86 67 71 74 67 64 77 74 76 81 80 94 87 84 69 62 57 58 53 52 53 54 52 47 40 37 43 48 57 58 62 67 70 91 93 98 85 66 54 57 61 64 65 70
86 99 98 88 73 66 74 71 68 64 70 73 85 87 85 98 65 58 62 55 52 50 54 56 55 51 57 48 67 64 84 71 68 66 70 70 84 90 87 93 56 64 64 72 74 67 77
83 96 100 88 78 60 71 74 71 70 72 68 68 73 76 93 74 59 59 54 65 58 58 57 49 50 57 72 59 77 75 66 72 81 74 71 68 90 91 83 65 51 65 59 60 76 88
87 92 100 93 82 62 70 75 72 71 74 80 75 74 78 89 79 58 67 65 50 51 66 61 57 54 54 65 82 76 56 57 74 69 68 92 93 86 93 86 62 56 67 61 64 43 86
94 89 97 94 86 72 60 81 76 74 74 73 76 78 76 80 80 58 56 60 59 55 61 58 61 64 68 70 87 87 62 63 57 54 62 68 86 88 79 80 59 65 70 65 58 74 78
97 90 96 93 92 79 62 77 82 78 80 91 98 92 88 86 86 64 55 54 58 61 70 63 61 63 67 74 88 93 79 92 64 64 48 58 56 62 62 58 43 67 54 62 62 66 67

GFSGBSN_925_rhum_120.txt.gz
RH
88 88 93 90 82 81 82 84 85 86 86 88 89 92 93 94 89 88 86 97 100 91 91 90 84 85 79 96 88 48 62 66 66 70 73 74 82 79 82 72 67 80 70 65 64 63 63
84 92 95 84 87 82 81 84 88 90 89 90 89 90 95 89 94 90 85 94 97 100 92 83 87 80 89 80 44 52 51 60 59 63 66 72 77 70 76 81 83 70 76 74 69 72 67
86 87 85 87 87 78 84 88 86 88 90 89 88 92 90 90 92 88 79 95 95 100 92 80 89 84 92 75 46 52 54 49 55 59 66 63 70 71 75 87 71 73 89 78 69 68 76
83 86 86 90 86 80 81 87 90 92 92 89 91 92 96 77 80 77 57 96 94 97 90 84 91 91 89 51 51 42 41 40 44 58 57 68 71 82 86 78 81 85 75 91 58 62 67
85 86 91 89 80 77 82 89 92 86 78 78 79 88 94 75 72 79 62 92 86 89 82 83 95 88 87 50 43 37 37 40 52 61 64 71 73 88 87 92 86 82 92 92 78 58 62
92 91 92 90 81 80 89 91 85 85 90 92 93 86 84 75 74 76 62 84 84 81 92 88 85 80 64 45 40 44 37 46 53 64 72 80 90 94 93 92 95 92 84 75 79 64 66
96 97 97 94 85 85 91 88 86 93 95 98 91 90 82 78 73 84 52 83 91 86 86 82 74 68 50 40 41 42 42 47 55 61 88 85 96 86 86 75 88 92 95 91 67 67 78
97 93 97 96 85 89 90 87 88 90 87 100 87 84 93 76 76 78 82 82 77 74 80 71 65 66 54 42 53 50 47 59 70 87 78 82 98 75 69 69 72 72 86 75 72 70 71
96 98 97 92 85 90 91 84 87 88 86 94 98 78 76 79 75 80 87 87 78 78 79 63 64 64 48 43 54 59 51 57 66 72 68 80 65 52 54 60 73 68 70 72 69 58 60
97 99 94 96 87 89 91 88 86 85 90 92 91 84 80 79 74 81 89 75 71 77 94 77 62 55 48 50 59 45 48 57 62 66 61 66 54 53 54 60 66 88 60 61 64 78 91
98 98 90 96 88 89 91 90 81 86 90 82 77 83 78 75 65 85 78 81 73 70 92 69 65 49 50 58 53 54 49 56 70 64 58 43 56 58 64 61 60 71 61 70 70 81 73
99 96 84 97 88 91 92 90 88 88 93 85 93 72 74 78 82 82 80 74 72 86 97 71 58 67 59 53 48 51 54 53 51 60 55 58 47 48 54 54 59 56 69 68 71 80 95
98 98 80 94 88 92 91 88 90 84 92 92 86 74 61 74 87 74 75 77 90 94 58 72 69 64 65 53 52 50 53 59 68 74 76 64 53 49 46 64 59 66 79 91 91 94 97
95 99 82 93 89 93 93 93 90 92 72 82 90 88 96 98 82 74 68 92 89 79 76 57 56 56 56 49 50 53 53 68 62 65 86 86 78 54 48 54 68 76 80 97 97 97 96
94 98 86 94 89 95 94 94 94 89 71 71 79 87 92 92 81 72 89 93 96 73 68 63 56 59 61 47 50 51 65 79 68 69 82 87 72 51 50 51 64 77 87 84 99 99 91
94 93 89 94 73 81 94 91 87 66 69 73 72 81 80 76 74 81 87 86 77 60 64 59 59 51 60 53 52 48 74 68 80 68 66 61 81 55 56 56 54 66 67 77 90 92 96
93 91 91 86 50 67 67 74 45 57 66 69 75 91 71 70 72 88 97 82 70 57 59 54 58 57 51 51 51 64 75 63 64 73 58 64 68 59 68 71 72 68 78 85 83 94 96
90 96 93 78 52 67 60 84 49 61 56 61 86 95 68 69 88 93 90 66 59 65 58 51 49 49 51 52 61 67 68 64 60 66 60 64 73 94 74 59 51 56 63 87 87 89 91
90 92 88 80 54 65 59 70 60 79 64 67 95 97 60 74 89 95 67 62 65 66 64 56 53 50 43 46 56 63 65 53 56 62 67 65 85 90 60 49 50 66 60 68 87 87 96
91 91 90 82 61 62 59 57 61 43 77 66 93 96 92 92 94 90 71 67 65 57 55 53 51 45 43 49 52 56 62 53 51 50 58 63 88 70 74 67 68 75 63 61 79 93 92
90 94 96 85 68 50 64 56 59 54 59 70 93 96 92 99 91 90 68 61 64 61 53 55 56 56 48 46 44 54 52 54 44 53 61 59 75 78 63 65 58 65 59 55 74 77 84
89 93 95 89 73 48 59 58 57 55 58 66 86 92 93 94 88 85 76 66 65 60 54 52 61 56 55 58 54 54 54 55 54 59 60 75 87 92 83 68 79 65 56 48 50 56 63
87 93 98 94 78 54 55 56 64 56 58 73 82 83 91 80 85 81 79 69 61 53 50 50 50 56 56 49 41 45 58 66 63 63 65 79 91 93 80 78 77 58 62 50 65 62 66
84 91 91 94 84 64 49 59 61 62 60 73 85 82 92 83 83 73 69 64 60 56 53 55 54 47 48 44 39 49 56 60 62 69 67 71 92 93 91 78 34 32 59 60 70 67 72
79 91 93 96 92 70 49 60 58 66 60 64 78 80 92 90 80 62 61 62 55 54 57 56 54 54 62 51 67 67 81 64 69 72 73 74 84 92 80 93 53 59 67 73 75 60 71
78 88 94 96 97 77 55 62 62 65 67 69 70 74 82 90 74 62 62 60 69 65 62 55 50 51 58 68 62 74 67 62 64 76 73 72 78 89 93 77 50 36 55 61 55 67 75
80 84 94 95 99 84 63 59 67 65 70 67 71 78 75 91 84 56 65 65 56 60 66 66 55 51 56 67 84 77 54 56 73 70 67 91 93 82 94 93 66 45 69 60 58 19 86
83 82 92 99 98 88 72 58 70 73 70 77 68 69 75 89 83 61 57 59 60 61 61 59 54 64 66 70 86 89 62 60 67 53 65 62 85 90 86 84 42 69 70 59 48 76 82
86 82 90 97 98 93 79 60 68 74 77 76 85 84 78 89 82 63 60 56 50 51 69 68 57 66 69 73 89 94 84 94 64 52 53 63 54 58 60 53 38 70 53 63 70 74 79

GFSGBSN_925_rhum_123.txt.gz
RH
86 87 88 88 88 85 78 81 84 86 88 90 90 87 82 81 85 85 88 85 99 100 89 83 88 82 85 92 78 57 71 68 69 74 77 81 85 86 88 78 70 85 72 64 65 67 68
84 86 88 90 88 86 79 80 96 85 77 80 80 79 86 76 84 90 90 64 95 91 99 94 84 79 78 52 45 58 63 68 67 72 76 75 78 76 79 78 78 70 74 74 69 72 71
89 86 90 93 86 82 80 92 89 92 89 88 87 85 81 68 79 79 80 84 83 98 92 94 89 76 81 53 55 61 62 63 59 62 70 68 68 76 72 88 77 78 85 79 74 74 79
97 96 96 96 89 83 89 92 93 88 90 89 91 92 84 77 71 80 79 81 86 94 92 94 94 78 72 49 53 56 52 50 54 60 62 65 72 75 80 77 84 88 90 93 62 63 66
98 98 99 98 90 83 90 90 84 88 94 87 95 97 87 76 79 78 59 82 85 86 81 85 83 77 65 50 47 40 44 41 50 63 64 76 76 84 86 94 91 80 92 85 82 60 64
100 100 99 97 94 85 86 86 78 94 87 90 97 89 83 77 76 80 60 78 84 83 90 80 83 76 52 52 42 45 36 40 60 68 72 84 92 94 92 96 98 86 95 68 82 68 65
94 99 89 98 96 84 85 83 77 87 87 94 88 79 74 75 72 72 78 80 79 87 80 67 69 65 58 46 43 43 45 49 56 67 93 86 98 93 83 85 88 84 97 87 81 65 72
97 85 98 99 86 84 86 86 84 87 88 93 92 89 80 76 71 69 77 79 79 71 78 74 67 66 58 48 52 48 48 59 71 88 76 87 95 71 65 70 75 86 83 88 74 63 63
97 96 99 100 84 88 88 87 88 86 91 99 96 86 80 73 67 82 88 100 88 74 78 66 67 64 58 44 52 57 52 58 73 81 81 91 68 56 50 54 67 73 80 76 74 65 62
94 97 99 99 85 87 89 92 88 87 97 97 88 88 73 71 65 84 86 86 74 74 88 81 64 56 50 51 58 45 50 57 65 74 65 70 58 54 54 58 65 84 62 66 68 82 86
94 96 99 97 87 90 90 92 86 91 98 95 69 70 72 53 71 87 80 75 70 65 92 62 63 48 51 60 56 53 50 57 79 70 58 52 56 59 62 57 58 73 61 72 72 82 83
90 92 97 97 89 92 90 86 92 94 81 95 79 64 70 70 74 81 76 69 66 76 95 77 58 65 59 52 50 51 52 54 55 61 55 62 52 51 50 53 57 60 69 71 77 85 96
87 90 96 97 89 94 94 92 94 70 72 81 83 78 77 81 89 74 68 75 84 91 60 73 66 64 64 54 53 51 52 67 78 78 76 67 53 50 48 65 60 68 78 94 92 97 96
85 88 94 95 86 95 94 94 91 79 66 73 75 81 88 87 84 70 66 80 90 74 78 60 58 57 56 51 51 59 58 82 66 70 88 89 76 55 53 57 69 79 95 96 94 96 96
85 89 92 88 73 88 95 93 56 72 74 60 70 78 77 72 71 70 83 95 88 74 69 65 57 61 59 49 52 57 72 82 74 75 91 88 74 52 51 57 65 75 95 92 98 82 91
88 88 89 84 61 60 78 65 42 68 72 59 56 77 74 67 69 76 88 89 77 62 64 58 56 54 60 56 51 60 78 66 78 70 69 59 87 52 62 55 50 64 64 83 92 90 99
90 89 87 85 66 54 59 50 39 59 60 69 66 87 57 60 64 85 94 83 68 58 61 53 55 55 52 55 57 70 68 60 64 72 61 68 66 56 62 67 76 66 78 86 86 90 94
90 89 87 87 70 49 55 55 43 52 52 59 77 82 50 56 85 93 91 68 61 64 59 51 49 49 51 53 63 67 62 65 61 66 61 66 73 94 80 65 52 54 65 88 92 88 82
84 91 89 89 74 47 53 53 48 48 58 72 90 91 49 56 97 96 74 66 63 65 63 57 52 50 43 49 50 66 64 52 57 64 69 63 81 86 50 46 49 65 62 65 86 87 95
77 90 94 95 79 54 52 49 50 42 57 60 87 81 85 92 92 89 88 70 66 55 56 52 50 44 43 48 52 58 60 52 50 52 62 60 88 70 67 62 67 78 64 59 77 91 92
74 87 92 96 85 65 50 50 55 51 48 53 94 97 92 97 82 88 76 69 70 66 56 56 53 58 55 43 45 54 52 54 43 58 60 53 71 79 66 67 68 66 67 55 77 82 82
77 82 92 97 94 70 45 53 53 57 58 64 81 86 93 92 88 73 78 77 68 64 60 55 57 57 58 54 54 52 54 57 52 60 61 72 85 91 80 67 76 77 60 57 53 60 65
79 80 88 90 94 80 54 54 52 57 66 74 86 89 84 81 81 76 78 70 63 57 51 56 56 57 53 53 47 50 61 68 66 68 66 80 92 91 66 78 69 46 50 53 62 63 64
65 85 85 85 91 90 69 49 54 58 66 70 79 80 84 76 80 73 69 64 59 58 58 55 57 48 52 58 44 52 57 61 64 73 68 72 93 92 85 74 24 24 57 59 71 73 69
58 80 85 84 90 94 76 49 54 58 57 63 79 77 87 79 80 65 59 63 57 56 54 55 53 56 63 60 66 67 77 52 67 76 76 75 83 94 76 92 45 41 64 70 70 61 70
73 64 87 89 84 95 86 60 56 55 62 65 72 78 82 82 76 57 61 60 73 67 59 54 51 52 60 66 65 70 64 59 55 72 70 72 79 85 93 57 26 23 53 61 50 41 58
87 72 86 87 94 90 94 72 52 60 60 64 67 72 75 86 82 62 67 67 59 64 65 64 52 50 54 69 83 79 51 57 65 65 58 90 93 73 93 89 56 39 67 55 34 12 74
95 81 84 88 92 92 92 79 56 64 65 67 64 74 71 91 85 70 58 62 63 64 61 57 50 61 68 72 86 88 67 57 69 54 61 56 77 86 88 88 23 68 70 52 36 70 72
100 87 86 88 91 96 93 88 66 64 74 71 66 71 76 86 82 70 61 56 50 46 61 72 52 67 66 72 91 95 91 95 69 47 59 62 48 46 57 43 32 74 60 61 63 69 78